<?xml version="1.0" encoding="UTF-8" standalone="no" ?>
<gpx xmlns="http://www.topografix.com/GPX/1/1" xmlns:xsi="http://www.w3.org/2001/XMLSchema-instance" xsi:schemaLocation="http://www.topografix.com/GPX/1/1 http://www.topografix.com/GPX/1/1/gpx.xsd" version="1.1" creator="VisuGPX - https://www.visugpx.com">
  <metadata>
    <name>La Joux'Le Chevreuil,Sapin président'La Vessoye</name>
  </metadata>
  <trk>
    <name><![CDATA[La Joux'Le Chevreuil,Sapin président'La Vessoye_1]]></name>
    <trkseg>
      <trkpt lat="46.84709" lon="6.0061">
        <ele>721.7</ele>
        <time>2020-07-09T07:03:00Z</time>
      </trkpt>
      <trkpt lat="46.84712" lon="6.00615">
        <ele>727.5</ele>
        <time>2020-07-09T07:03:08Z</time>
      </trkpt>
      <trkpt lat="46.8471" lon="6.00622">
        <ele>728.8</ele>
        <time>2020-07-09T07:03:16Z</time>
      </trkpt>
      <trkpt lat="46.84707" lon="6.00631">
        <ele>720.9</ele>
        <time>2020-07-09T07:06:13Z</time>
      </trkpt>
      <trkpt lat="46.84705" lon="6.00638">
        <ele>720.2</ele>
        <time>2020-07-09T07:06:17Z</time>
      </trkpt>
      <trkpt lat="46.84703" lon="6.00648">
        <ele>717.7</ele>
        <time>2020-07-09T07:06:32Z</time>
      </trkpt>
      <trkpt lat="46.84701" lon="6.00655">
        <ele>717.4</ele>
        <time>2020-07-09T07:06:34Z</time>
      </trkpt>
      <trkpt lat="46.84698" lon="6.0066">
        <ele>716.6</ele>
        <time>2020-07-09T07:06:39Z</time>
      </trkpt>
      <trkpt lat="46.84705" lon="6.00656">
        <ele>712</ele>
        <time>2020-07-09T07:07:25Z</time>
      </trkpt>
      <trkpt lat="46.84708" lon="6.00662">
        <ele>712.3</ele>
        <time>2020-07-09T07:07:31Z</time>
      </trkpt>
      <trkpt lat="46.8472" lon="6.00667">
        <ele>712.7</ele>
        <time>2020-07-09T07:07:53Z</time>
      </trkpt>
      <trkpt lat="46.84725" lon="6.00669">
        <ele>712.3</ele>
        <time>2020-07-09T07:07:59Z</time>
      </trkpt>
      <trkpt lat="46.84731" lon="6.00672">
        <ele>711.8</ele>
        <time>2020-07-09T07:08:03Z</time>
      </trkpt>
      <trkpt lat="46.84735" lon="6.0067">
        <ele>710.9</ele>
        <time>2020-07-09T07:08:10Z</time>
      </trkpt>
      <trkpt lat="46.84752" lon="6.00664">
        <ele>710.6</ele>
        <time>2020-07-09T07:09:07Z</time>
      </trkpt>
      <trkpt lat="46.84758" lon="6.00647">
        <ele>710</ele>
        <time>2020-07-09T07:09:18Z</time>
      </trkpt>
      <trkpt lat="46.84762" lon="6.00643">
        <ele>709.6</ele>
        <time>2020-07-09T07:09:24Z</time>
      </trkpt>
      <trkpt lat="46.84767" lon="6.00641">
        <ele>709.6</ele>
        <time>2020-07-09T07:09:32Z</time>
      </trkpt>
      <trkpt lat="46.84782" lon="6.00632">
        <ele>713.6</ele>
        <time>2020-07-09T07:09:56Z</time>
      </trkpt>
      <trkpt lat="46.84786" lon="6.0063">
        <ele>712.6</ele>
        <time>2020-07-09T07:10:05Z</time>
      </trkpt>
      <trkpt lat="46.8479" lon="6.00624">
        <ele>712.9</ele>
        <time>2020-07-09T07:10:13Z</time>
      </trkpt>
      <trkpt lat="46.84801" lon="6.00606">
        <ele>715.8</ele>
        <time>2020-07-09T07:10:41Z</time>
      </trkpt>
      <trkpt lat="46.84806" lon="6.00601">
        <ele>716.3</ele>
        <time>2020-07-09T07:10:44Z</time>
      </trkpt>
      <trkpt lat="46.8481" lon="6.00598">
        <ele>717.1</ele>
        <time>2020-07-09T07:10:49Z</time>
      </trkpt>
      <trkpt lat="46.8483" lon="6.0055">
        <ele>727.7</ele>
        <time>2020-07-09T07:11:44Z</time>
      </trkpt>
      <trkpt lat="46.8483" lon="6.00544">
        <ele>728.3</ele>
        <time>2020-07-09T07:11:49Z</time>
      </trkpt>
      <trkpt lat="46.84877" lon="6.00515">
        <ele>742.3</ele>
        <time>2020-07-09T07:13:44Z</time>
      </trkpt>
      <trkpt lat="46.84882" lon="6.00515">
        <ele>742.7</ele>
        <time>2020-07-09T07:13:49Z</time>
      </trkpt>
      <trkpt lat="46.84895" lon="6.00519">
        <ele>747.3</ele>
        <time>2020-07-09T07:14:21Z</time>
      </trkpt>
      <trkpt lat="46.8491" lon="6.00532">
        <ele>751</ele>
        <time>2020-07-09T07:15:03Z</time>
      </trkpt>
      <trkpt lat="46.84919" lon="6.0055">
        <ele>754</ele>
        <time>2020-07-09T07:15:26Z</time>
      </trkpt>
      <trkpt lat="46.84924" lon="6.00558">
        <ele>754.4</ele>
        <time>2020-07-09T07:15:39Z</time>
      </trkpt>
      <trkpt lat="46.84965" lon="6.00576">
        <ele>765.5</ele>
        <time>2020-07-09T07:17:13Z</time>
      </trkpt>
      <trkpt lat="46.84992" lon="6.00586">
        <ele>772.5</ele>
        <time>2020-07-09T07:18:12Z</time>
      </trkpt>
      <trkpt lat="46.84997" lon="6.00588">
        <ele>772.7</ele>
        <time>2020-07-09T07:18:14Z</time>
      </trkpt>
      <trkpt lat="46.85001" lon="6.00585">
        <ele>773.1</ele>
        <time>2020-07-09T07:18:19Z</time>
      </trkpt>
      <trkpt lat="46.85026" lon="6.00584">
        <ele>774.1</ele>
        <time>2020-07-09T07:18:47Z</time>
      </trkpt>
      <trkpt lat="46.85032" lon="6.00587">
        <ele>774.2</ele>
        <time>2020-07-09T07:18:51Z</time>
      </trkpt>
      <trkpt lat="46.85038" lon="6.00588">
        <ele>774.3</ele>
        <time>2020-07-09T07:18:54Z</time>
      </trkpt>
      <trkpt lat="46.85042" lon="6.0059">
        <ele>774.3</ele>
        <time>2020-07-09T07:18:56Z</time>
      </trkpt>
      <trkpt lat="46.85047" lon="6.00592">
        <ele>774.2</ele>
        <time>2020-07-09T07:19:00Z</time>
      </trkpt>
      <trkpt lat="46.85062" lon="6.00607">
        <ele>775.7</ele>
        <time>2020-07-09T07:19:39Z</time>
      </trkpt>
      <trkpt lat="46.85067" lon="6.00611">
        <ele>775.6</ele>
        <time>2020-07-09T07:19:41Z</time>
      </trkpt>
      <trkpt lat="46.85071" lon="6.00613">
        <ele>775.3</ele>
        <time>2020-07-09T07:19:44Z</time>
      </trkpt>
      <trkpt lat="46.85077" lon="6.00611">
        <ele>774.8</ele>
        <time>2020-07-09T07:19:50Z</time>
      </trkpt>
      <trkpt lat="46.85093" lon="6.0061">
        <ele>774.5</ele>
        <time>2020-07-09T07:20:17Z</time>
      </trkpt>
      <trkpt lat="46.8513" lon="6.00643">
        <ele>774.3</ele>
        <time>2020-07-09T07:20:54Z</time>
      </trkpt>
      <trkpt lat="46.85137" lon="6.00648">
        <ele>774.3</ele>
        <time>2020-07-09T07:20:56Z</time>
      </trkpt>
      <trkpt lat="46.85141" lon="6.00652">
        <ele>774.3</ele>
        <time>2020-07-09T07:20:59Z</time>
      </trkpt>
      <trkpt lat="46.85146" lon="6.00655">
        <ele>774.7</ele>
        <time>2020-07-09T07:21:03Z</time>
      </trkpt>
      <trkpt lat="46.8515" lon="6.0066">
        <ele>775.5</ele>
        <time>2020-07-09T07:21:08Z</time>
      </trkpt>
      <trkpt lat="46.85155" lon="6.00662">
        <ele>776.5</ele>
        <time>2020-07-09T07:21:14Z</time>
      </trkpt>
      <trkpt lat="46.85135" lon="6.00673">
        <ele>778</ele>
        <time>2020-07-09T07:23:00Z</time>
      </trkpt>
      <trkpt lat="46.85131" lon="6.00672">
        <ele>778.3</ele>
        <time>2020-07-09T07:23:06Z</time>
      </trkpt>
      <trkpt lat="46.8512" lon="6.00676">
        <ele>779.3</ele>
        <time>2020-07-09T07:23:14Z</time>
      </trkpt>
      <trkpt lat="46.85115" lon="6.00677">
        <ele>779.6</ele>
        <time>2020-07-09T07:23:18Z</time>
      </trkpt>
      <trkpt lat="46.85108" lon="6.00679">
        <ele>780.2</ele>
        <time>2020-07-09T07:23:29Z</time>
      </trkpt>
      <trkpt lat="46.85099" lon="6.00686">
        <ele>779.7</ele>
        <time>2020-07-09T07:23:40Z</time>
      </trkpt>
      <trkpt lat="46.85089" lon="6.00693">
        <ele>780.1</ele>
        <time>2020-07-09T07:23:49Z</time>
      </trkpt>
      <trkpt lat="46.85085" lon="6.00697">
        <ele>780.2</ele>
        <time>2020-07-09T07:23:51Z</time>
      </trkpt>
      <trkpt lat="46.85069" lon="6.00706">
        <ele>782.8</ele>
        <time>2020-07-09T07:24:25Z</time>
      </trkpt>
      <trkpt lat="46.85066" lon="6.00711">
        <ele>783</ele>
        <time>2020-07-09T07:24:36Z</time>
      </trkpt>
      <trkpt lat="46.85031" lon="6.00768">
        <ele>782.2</ele>
        <time>2020-07-09T07:25:30Z</time>
      </trkpt>
      <trkpt lat="46.85033" lon="6.00775">
        <ele>782.1</ele>
        <time>2020-07-09T07:25:37Z</time>
      </trkpt>
      <trkpt lat="46.85036" lon="6.00782">
        <ele>781.6</ele>
        <time>2020-07-09T07:25:44Z</time>
      </trkpt>
      <trkpt lat="46.85038" lon="6.00788">
        <ele>781.3</ele>
        <time>2020-07-09T07:25:48Z</time>
      </trkpt>
      <trkpt lat="46.85041" lon="6.00794">
        <ele>781</ele>
        <time>2020-07-09T07:25:54Z</time>
      </trkpt>
      <trkpt lat="46.85045" lon="6.00798">
        <ele>781</ele>
        <time>2020-07-09T07:26:00Z</time>
      </trkpt>
      <trkpt lat="46.85053" lon="6.00808">
        <ele>784.2</ele>
        <time>2020-07-09T07:26:30Z</time>
      </trkpt>
      <trkpt lat="46.85059" lon="6.00818">
        <ele>786.5</ele>
        <time>2020-07-09T07:26:42Z</time>
      </trkpt>
      <trkpt lat="46.85063" lon="6.00823">
        <ele>787.1</ele>
        <time>2020-07-09T07:26:45Z</time>
      </trkpt>
      <trkpt lat="46.85069" lon="6.0083">
        <ele>787.7</ele>
        <time>2020-07-09T07:26:48Z</time>
      </trkpt>
      <trkpt lat="46.85073" lon="6.00834">
        <ele>788.1</ele>
        <time>2020-07-09T07:26:50Z</time>
      </trkpt>
      <trkpt lat="46.85077" lon="6.00837">
        <ele>788.6</ele>
        <time>2020-07-09T07:26:53Z</time>
      </trkpt>
      <trkpt lat="46.85081" lon="6.00842">
        <ele>790.2</ele>
        <time>2020-07-09T07:27:06Z</time>
      </trkpt>
      <trkpt lat="46.85081" lon="6.00849">
        <ele>791.2</ele>
        <time>2020-07-09T07:27:15Z</time>
      </trkpt>
      <trkpt lat="46.85082" lon="6.00856">
        <ele>791.4</ele>
        <time>2020-07-09T07:27:23Z</time>
      </trkpt>
      <trkpt lat="46.85085" lon="6.00862">
        <ele>791.6</ele>
        <time>2020-07-09T07:27:26Z</time>
      </trkpt>
      <trkpt lat="46.85089" lon="6.00869">
        <ele>792.2</ele>
        <time>2020-07-09T07:27:33Z</time>
      </trkpt>
      <trkpt lat="46.85092" lon="6.00875">
        <ele>792.8</ele>
        <time>2020-07-09T07:27:38Z</time>
      </trkpt>
      <trkpt lat="46.85095" lon="6.00881">
        <ele>793.1</ele>
        <time>2020-07-09T07:27:41Z</time>
      </trkpt>
      <trkpt lat="46.85097" lon="6.00888">
        <ele>793.5</ele>
        <time>2020-07-09T07:27:44Z</time>
      </trkpt>
      <trkpt lat="46.85099" lon="6.00894">
        <ele>793.9</ele>
        <time>2020-07-09T07:27:48Z</time>
      </trkpt>
      <trkpt lat="46.85098" lon="6.00911">
        <ele>794.8</ele>
        <time>2020-07-09T07:28:03Z</time>
      </trkpt>
      <trkpt lat="46.85097" lon="6.00918">
        <ele>794.8</ele>
        <time>2020-07-09T07:28:08Z</time>
      </trkpt>
      <trkpt lat="46.85101" lon="6.00936">
        <ele>794.9</ele>
        <time>2020-07-09T07:28:20Z</time>
      </trkpt>
      <trkpt lat="46.85098" lon="6.01018">
        <ele>807.6</ele>
        <time>2020-07-09T07:29:54Z</time>
      </trkpt>
      <trkpt lat="46.85099" lon="6.01032">
        <ele>807.1</ele>
        <time>2020-07-09T07:30:14Z</time>
      </trkpt>
      <trkpt lat="46.85098" lon="6.01048">
        <ele>808.7</ele>
        <time>2020-07-09T07:30:23Z</time>
      </trkpt>
      <trkpt lat="46.85099" lon="6.01055">
        <ele>809.3</ele>
        <time>2020-07-09T07:30:27Z</time>
      </trkpt>
      <trkpt lat="46.85104" lon="6.01089">
        <ele>812.1</ele>
        <time>2020-07-09T07:31:03Z</time>
      </trkpt>
      <trkpt lat="46.85107" lon="6.01095">
        <ele>812.5</ele>
        <time>2020-07-09T07:31:08Z</time>
      </trkpt>
      <trkpt lat="46.8511" lon="6.01101">
        <ele>812.9</ele>
        <time>2020-07-09T07:31:12Z</time>
      </trkpt>
      <trkpt lat="46.85119" lon="6.01113">
        <ele>815</ele>
        <time>2020-07-09T07:31:31Z</time>
      </trkpt>
      <trkpt lat="46.85133" lon="6.01126">
        <ele>816.4</ele>
        <time>2020-07-09T07:31:57Z</time>
      </trkpt>
      <trkpt lat="46.85137" lon="6.0113">
        <ele>816.7</ele>
        <time>2020-07-09T07:32:02Z</time>
      </trkpt>
      <trkpt lat="46.85143" lon="6.01136">
        <ele>818.8</ele>
        <time>2020-07-09T07:32:15Z</time>
      </trkpt>
      <trkpt lat="46.85148" lon="6.01138">
        <ele>819.9</ele>
        <time>2020-07-09T07:32:22Z</time>
      </trkpt>
      <trkpt lat="46.85158" lon="6.01143">
        <ele>822.4</ele>
        <time>2020-07-09T07:32:35Z</time>
      </trkpt>
      <trkpt lat="46.85192" lon="6.01152">
        <ele>833.5</ele>
        <time>2020-07-09T07:34:27Z</time>
      </trkpt>
      <trkpt lat="46.85215" lon="6.01166">
        <ele>838.4</ele>
        <time>2020-07-09T07:34:59Z</time>
      </trkpt>
      <trkpt lat="46.85218" lon="6.01172">
        <ele>838.9</ele>
        <time>2020-07-09T07:35:04Z</time>
      </trkpt>
      <trkpt lat="46.85234" lon="6.01189">
        <ele>843.1</ele>
        <time>2020-07-09T07:35:42Z</time>
      </trkpt>
      <trkpt lat="46.85239" lon="6.01198">
        <ele>843.6</ele>
        <time>2020-07-09T07:35:49Z</time>
      </trkpt>
      <trkpt lat="46.85243" lon="6.01202">
        <ele>843.7</ele>
        <time>2020-07-09T07:35:53Z</time>
      </trkpt>
      <trkpt lat="46.85248" lon="6.01204">
        <ele>844.9</ele>
        <time>2020-07-09T07:36:11Z</time>
      </trkpt>
      <trkpt lat="46.8527" lon="6.01211">
        <ele>849.8</ele>
        <time>2020-07-09T07:36:52Z</time>
      </trkpt>
      <trkpt lat="46.85276" lon="6.01213">
        <ele>850.3</ele>
        <time>2020-07-09T07:36:55Z</time>
      </trkpt>
      <trkpt lat="46.85282" lon="6.01216">
        <ele>850.7</ele>
        <time>2020-07-09T07:36:57Z</time>
      </trkpt>
      <trkpt lat="46.85287" lon="6.01217">
        <ele>851.1</ele>
        <time>2020-07-09T07:36:59Z</time>
      </trkpt>
      <trkpt lat="46.85297" lon="6.01222">
        <ele>854.1</ele>
        <time>2020-07-09T07:37:11Z</time>
      </trkpt>
      <trkpt lat="46.85302" lon="6.01227">
        <ele>858</ele>
        <time>2020-07-09T07:37:28Z</time>
      </trkpt>
      <trkpt lat="46.85307" lon="6.0123">
        <ele>858.8</ele>
        <time>2020-07-09T07:37:32Z</time>
      </trkpt>
      <trkpt lat="46.85322" lon="6.0124">
        <ele>857.6</ele>
        <time>2020-07-09T07:38:19Z</time>
      </trkpt>
      <trkpt lat="46.85326" lon="6.01242">
        <ele>857.8</ele>
        <time>2020-07-09T07:38:23Z</time>
      </trkpt>
      <trkpt lat="46.85331" lon="6.01248">
        <ele>858</ele>
        <time>2020-07-09T07:38:27Z</time>
      </trkpt>
      <trkpt lat="46.85334" lon="6.01253">
        <ele>858.1</ele>
        <time>2020-07-09T07:38:29Z</time>
      </trkpt>
      <trkpt lat="46.85344" lon="6.01262">
        <ele>860.8</ele>
        <time>2020-07-09T07:38:47Z</time>
      </trkpt>
      <trkpt lat="46.85348" lon="6.01267">
        <ele>860.8</ele>
        <time>2020-07-09T07:38:49Z</time>
      </trkpt>
      <trkpt lat="46.85363" lon="6.01285">
        <ele>861.7</ele>
        <time>2020-07-09T07:39:11Z</time>
      </trkpt>
      <trkpt lat="46.85372" lon="6.01294">
        <ele>863.6</ele>
        <time>2020-07-09T07:39:30Z</time>
      </trkpt>
      <trkpt lat="46.85374" lon="6.01301">
        <ele>864.4</ele>
        <time>2020-07-09T07:39:36Z</time>
      </trkpt>
      <trkpt lat="46.85391" lon="6.01317">
        <ele>865.9</ele>
        <time>2020-07-09T07:39:46Z</time>
      </trkpt>
      <trkpt lat="46.85395" lon="6.01322">
        <ele>866.1</ele>
        <time>2020-07-09T07:39:52Z</time>
      </trkpt>
      <trkpt lat="46.85398" lon="6.01327">
        <ele>866.2</ele>
        <time>2020-07-09T07:40:00Z</time>
      </trkpt>
      <trkpt lat="46.85402" lon="6.01331">
        <ele>866</ele>
        <time>2020-07-09T07:40:10Z</time>
      </trkpt>
      <trkpt lat="46.85406" lon="6.01336">
        <ele>865.7</ele>
        <time>2020-07-09T07:40:14Z</time>
      </trkpt>
      <trkpt lat="46.85409" lon="6.01341">
        <ele>864.9</ele>
        <time>2020-07-09T07:40:23Z</time>
      </trkpt>
      <trkpt lat="46.85413" lon="6.01347">
        <ele>864.2</ele>
        <time>2020-07-09T07:40:29Z</time>
      </trkpt>
      <trkpt lat="46.85417" lon="6.01355">
        <ele>863.7</ele>
        <time>2020-07-09T07:40:42Z</time>
      </trkpt>
      <trkpt lat="46.85421" lon="6.0136">
        <ele>863.5</ele>
        <time>2020-07-09T07:40:47Z</time>
      </trkpt>
      <trkpt lat="46.85424" lon="6.01364">
        <ele>863.2</ele>
        <time>2020-07-09T07:40:51Z</time>
      </trkpt>
      <trkpt lat="46.85429" lon="6.01367">
        <ele>862.8</ele>
        <time>2020-07-09T07:40:58Z</time>
      </trkpt>
      <trkpt lat="46.85435" lon="6.01367">
        <ele>862.5</ele>
        <time>2020-07-09T07:41:04Z</time>
      </trkpt>
      <trkpt lat="46.85441" lon="6.01367">
        <ele>862.5</ele>
        <time>2020-07-09T07:41:06Z</time>
      </trkpt>
      <trkpt lat="46.85446" lon="6.01369">
        <ele>862.4</ele>
        <time>2020-07-09T07:41:09Z</time>
      </trkpt>
      <trkpt lat="46.85451" lon="6.01372">
        <ele>862.5</ele>
        <time>2020-07-09T07:41:12Z</time>
      </trkpt>
      <trkpt lat="46.85455" lon="6.01374">
        <ele>862.7</ele>
        <time>2020-07-09T07:41:17Z</time>
      </trkpt>
      <trkpt lat="46.8546" lon="6.01376">
        <ele>863.4</ele>
        <time>2020-07-09T07:41:25Z</time>
      </trkpt>
      <trkpt lat="46.85464" lon="6.01379">
        <ele>863.7</ele>
        <time>2020-07-09T07:41:30Z</time>
      </trkpt>
      <trkpt lat="46.85468" lon="6.01384">
        <ele>863.8</ele>
        <time>2020-07-09T07:41:33Z</time>
      </trkpt>
      <trkpt lat="46.85471" lon="6.0139">
        <ele>864.4</ele>
        <time>2020-07-09T07:41:42Z</time>
      </trkpt>
      <trkpt lat="46.85477" lon="6.01392">
        <ele>864.3</ele>
        <time>2020-07-09T07:41:48Z</time>
      </trkpt>
      <trkpt lat="46.8549" lon="6.01407">
        <ele>864.3</ele>
        <time>2020-07-09T07:42:12Z</time>
      </trkpt>
      <trkpt lat="46.85502" lon="6.01416">
        <ele>865.8</ele>
        <time>2020-07-09T07:42:23Z</time>
      </trkpt>
      <trkpt lat="46.85512" lon="6.01426">
        <ele>866.8</ele>
        <time>2020-07-09T07:42:42Z</time>
      </trkpt>
      <trkpt lat="46.85529" lon="6.01442">
        <ele>869</ele>
        <time>2020-07-09T07:43:01Z</time>
      </trkpt>
      <trkpt lat="46.85534" lon="6.01451">
        <ele>870.1</ele>
        <time>2020-07-09T07:43:10Z</time>
      </trkpt>
      <trkpt lat="46.85541" lon="6.01463">
        <ele>871.4</ele>
        <time>2020-07-09T07:43:25Z</time>
      </trkpt>
      <trkpt lat="46.85544" lon="6.01469">
        <ele>871.4</ele>
        <time>2020-07-09T07:43:28Z</time>
      </trkpt>
      <trkpt lat="46.85562" lon="6.01494">
        <ele>873.7</ele>
        <time>2020-07-09T07:43:54Z</time>
      </trkpt>
      <trkpt lat="46.85569" lon="6.0151">
        <ele>874.1</ele>
        <time>2020-07-09T07:44:17Z</time>
      </trkpt>
      <trkpt lat="46.85574" lon="6.01535">
        <ele>873.9</ele>
        <time>2020-07-09T07:44:48Z</time>
      </trkpt>
      <trkpt lat="46.85578" lon="6.01561">
        <ele>874.2</ele>
        <time>2020-07-09T07:45:11Z</time>
      </trkpt>
      <trkpt lat="46.85581" lon="6.0157">
        <ele>874</ele>
        <time>2020-07-09T07:45:18Z</time>
      </trkpt>
      <trkpt lat="46.85587" lon="6.0158">
        <ele>873.9</ele>
        <time>2020-07-09T07:45:20Z</time>
      </trkpt>
      <trkpt lat="46.85596" lon="6.0159">
        <ele>873.8</ele>
        <time>2020-07-09T07:45:22Z</time>
      </trkpt>
      <trkpt lat="46.85609" lon="6.01609">
        <ele>873.6</ele>
        <time>2020-07-09T07:45:31Z</time>
      </trkpt>
      <trkpt lat="46.85611" lon="6.01616">
        <ele>873.4</ele>
        <time>2020-07-09T07:45:36Z</time>
      </trkpt>
      <trkpt lat="46.85624" lon="6.01625">
        <ele>872.9</ele>
        <time>2020-07-09T07:45:46Z</time>
      </trkpt>
      <trkpt lat="46.85629" lon="6.01629">
        <ele>872.9</ele>
        <time>2020-07-09T07:45:48Z</time>
      </trkpt>
      <trkpt lat="46.85644" lon="6.0165">
        <ele>872.2</ele>
        <time>2020-07-09T07:46:16Z</time>
      </trkpt>
      <trkpt lat="46.8565" lon="6.01655">
        <ele>872.4</ele>
        <time>2020-07-09T07:46:18Z</time>
      </trkpt>
      <trkpt lat="46.85661" lon="6.01669">
        <ele>873.6</ele>
        <time>2020-07-09T07:46:28Z</time>
      </trkpt>
      <trkpt lat="46.85665" lon="6.01673">
        <ele>873.4</ele>
        <time>2020-07-09T07:46:35Z</time>
      </trkpt>
      <trkpt lat="46.8567" lon="6.01676">
        <ele>873.3</ele>
        <time>2020-07-09T07:46:38Z</time>
      </trkpt>
      <trkpt lat="46.85674" lon="6.0168">
        <ele>873.3</ele>
        <time>2020-07-09T07:46:44Z</time>
      </trkpt>
      <trkpt lat="46.85678" lon="6.01685">
        <ele>873.3</ele>
        <time>2020-07-09T07:46:51Z</time>
      </trkpt>
      <trkpt lat="46.85683" lon="6.01691">
        <ele>873.3</ele>
        <time>2020-07-09T07:46:54Z</time>
      </trkpt>
      <trkpt lat="46.85686" lon="6.01695">
        <ele>873.2</ele>
        <time>2020-07-09T07:46:58Z</time>
      </trkpt>
      <trkpt lat="46.8569" lon="6.017">
        <ele>872.8</ele>
        <time>2020-07-09T07:47:04Z</time>
      </trkpt>
      <trkpt lat="46.85695" lon="6.01717">
        <ele>870.7</ele>
        <time>2020-07-09T07:47:20Z</time>
      </trkpt>
      <trkpt lat="46.85697" lon="6.01731">
        <ele>870.9</ele>
        <time>2020-07-09T07:47:30Z</time>
      </trkpt>
      <trkpt lat="46.857" lon="6.01739">
        <ele>870.9</ele>
        <time>2020-07-09T07:47:33Z</time>
      </trkpt>
      <trkpt lat="46.85723" lon="6.01784">
        <ele>867.7</ele>
        <time>2020-07-09T07:48:11Z</time>
      </trkpt>
      <trkpt lat="46.85744" lon="6.01812">
        <ele>866.1</ele>
        <time>2020-07-09T07:48:37Z</time>
      </trkpt>
      <trkpt lat="46.85748" lon="6.01814">
        <ele>865.9</ele>
        <time>2020-07-09T07:48:40Z</time>
      </trkpt>
      <trkpt lat="46.85764" lon="6.01828">
        <ele>864.5</ele>
        <time>2020-07-09T07:49:04Z</time>
      </trkpt>
      <trkpt lat="46.85776" lon="6.01836">
        <ele>863.7</ele>
        <time>2020-07-09T07:49:14Z</time>
      </trkpt>
      <trkpt lat="46.8578" lon="6.01839">
        <ele>863.7</ele>
        <time>2020-07-09T07:49:19Z</time>
      </trkpt>
      <trkpt lat="46.85783" lon="6.01845">
        <ele>863.8</ele>
        <time>2020-07-09T07:49:22Z</time>
      </trkpt>
      <trkpt lat="46.85792" lon="6.0186">
        <ele>862.8</ele>
        <time>2020-07-09T07:49:37Z</time>
      </trkpt>
      <trkpt lat="46.85801" lon="6.0187">
        <ele>862.1</ele>
        <time>2020-07-09T07:49:48Z</time>
      </trkpt>
      <trkpt lat="46.85805" lon="6.01873">
        <ele>862</ele>
        <time>2020-07-09T07:49:52Z</time>
      </trkpt>
      <trkpt lat="46.85809" lon="6.01877">
        <ele>862</ele>
        <time>2020-07-09T07:49:58Z</time>
      </trkpt>
      <trkpt lat="46.85806" lon="6.01875">
        <ele>862.6</ele>
        <time>2020-07-09T07:50:07Z</time>
      </trkpt>
      <trkpt lat="46.85801" lon="6.01872">
        <ele>862.3</ele>
        <time>2020-07-09T07:50:13Z</time>
      </trkpt>
      <trkpt lat="46.85797" lon="6.01867">
        <ele>862.1</ele>
        <time>2020-07-09T07:50:16Z</time>
      </trkpt>
      <trkpt lat="46.85792" lon="6.01869">
        <ele>860.9</ele>
        <time>2020-07-09T07:50:25Z</time>
      </trkpt>
      <trkpt lat="46.85789" lon="6.01874">
        <ele>859.3</ele>
        <time>2020-07-09T07:50:35Z</time>
      </trkpt>
      <trkpt lat="46.85785" lon="6.01878">
        <ele>859</ele>
        <time>2020-07-09T07:50:41Z</time>
      </trkpt>
      <trkpt lat="46.85781" lon="6.01878">
        <ele>857.8</ele>
        <time>2020-07-09T07:50:59Z</time>
      </trkpt>
      <trkpt lat="46.85778" lon="6.01884">
        <ele>857.3</ele>
        <time>2020-07-09T07:51:10Z</time>
      </trkpt>
      <trkpt lat="46.85774" lon="6.01893">
        <ele>855.9</ele>
        <time>2020-07-09T07:51:19Z</time>
      </trkpt>
      <trkpt lat="46.85772" lon="6.01899">
        <ele>855.4</ele>
        <time>2020-07-09T07:51:23Z</time>
      </trkpt>
      <trkpt lat="46.85774" lon="6.01907">
        <ele>854.8</ele>
        <time>2020-07-09T07:51:29Z</time>
      </trkpt>
      <trkpt lat="46.85776" lon="6.01913">
        <ele>854</ele>
        <time>2020-07-09T07:51:39Z</time>
      </trkpt>
      <trkpt lat="46.85779" lon="6.01918">
        <ele>853.5</ele>
        <time>2020-07-09T07:51:45Z</time>
      </trkpt>
      <trkpt lat="46.85782" lon="6.01923">
        <ele>853</ele>
        <time>2020-07-09T07:51:50Z</time>
      </trkpt>
      <trkpt lat="46.85782" lon="6.01931">
        <ele>852.1</ele>
        <time>2020-07-09T07:52:00Z</time>
      </trkpt>
      <trkpt lat="46.85784" lon="6.01937">
        <ele>851.1</ele>
        <time>2020-07-09T07:52:11Z</time>
      </trkpt>
      <trkpt lat="46.85786" lon="6.01943">
        <ele>848</ele>
        <time>2020-07-09T07:52:30Z</time>
      </trkpt>
      <trkpt lat="46.85788" lon="6.0195">
        <ele>846.3</ele>
        <time>2020-07-09T07:53:19Z</time>
      </trkpt>
      <trkpt lat="46.8579" lon="6.01956">
        <ele>847.3</ele>
        <time>2020-07-09T07:53:31Z</time>
      </trkpt>
      <trkpt lat="46.85838" lon="6.02004">
        <ele>847.2</ele>
        <time>2020-07-09T07:54:34Z</time>
      </trkpt>
      <trkpt lat="46.85836" lon="6.02032">
        <ele>838.4</ele>
        <time>2020-07-09T07:57:41Z</time>
      </trkpt>
      <trkpt lat="46.85842" lon="6.02017">
        <ele>842</ele>
        <time>2020-07-09T08:04:57Z</time>
      </trkpt>
      <trkpt lat="46.8588" lon="6.02051">
        <ele>848.6</ele>
        <time>2020-07-09T08:06:28Z</time>
      </trkpt>
      <trkpt lat="46.85889" lon="6.02055">
        <ele>849.9</ele>
        <time>2020-07-09T08:06:38Z</time>
      </trkpt>
      <trkpt lat="46.85894" lon="6.02055">
        <ele>850.3</ele>
        <time>2020-07-09T08:06:45Z</time>
      </trkpt>
      <trkpt lat="46.85902" lon="6.02061">
        <ele>850.9</ele>
        <time>2020-07-09T08:07:14Z</time>
      </trkpt>
      <trkpt lat="46.85913" lon="6.02052">
        <ele>852.2</ele>
        <time>2020-07-09T08:07:39Z</time>
      </trkpt>
      <trkpt lat="46.85915" lon="6.02045">
        <ele>852.3</ele>
        <time>2020-07-09T08:07:47Z</time>
      </trkpt>
      <trkpt lat="46.85919" lon="6.02041">
        <ele>852.4</ele>
        <time>2020-07-09T08:07:55Z</time>
      </trkpt>
      <trkpt lat="46.85921" lon="6.02034">
        <ele>850</ele>
        <time>2020-07-09T08:08:13Z</time>
      </trkpt>
      <trkpt lat="46.85923" lon="6.02027">
        <ele>849.6</ele>
        <time>2020-07-09T08:08:17Z</time>
      </trkpt>
      <trkpt lat="46.85922" lon="6.0202">
        <ele>848.1</ele>
        <time>2020-07-09T08:08:32Z</time>
      </trkpt>
      <trkpt lat="46.85918" lon="6.02007">
        <ele>850.6</ele>
        <time>2020-07-09T08:09:08Z</time>
      </trkpt>
      <trkpt lat="46.85923" lon="6.01989">
        <ele>853.2</ele>
        <time>2020-07-09T08:09:25Z</time>
      </trkpt>
      <trkpt lat="46.85917" lon="6.01972">
        <ele>857</ele>
        <time>2020-07-09T08:11:08Z</time>
      </trkpt>
      <trkpt lat="46.85913" lon="6.01967">
        <ele>856.7</ele>
        <time>2020-07-09T08:11:14Z</time>
      </trkpt>
      <trkpt lat="46.85902" lon="6.01952">
        <ele>855</ele>
        <time>2020-07-09T08:11:30Z</time>
      </trkpt>
      <trkpt lat="46.85881" lon="6.01938">
        <ele>852.4</ele>
        <time>2020-07-09T08:12:02Z</time>
      </trkpt>
      <trkpt lat="46.85876" lon="6.01938">
        <ele>851.2</ele>
        <time>2020-07-09T08:12:16Z</time>
      </trkpt>
      <trkpt lat="46.85871" lon="6.01934">
        <ele>850.5</ele>
        <time>2020-07-09T08:12:25Z</time>
      </trkpt>
      <trkpt lat="46.85866" lon="6.0193">
        <ele>849.8</ele>
        <time>2020-07-09T08:12:30Z</time>
      </trkpt>
      <trkpt lat="46.85861" lon="6.01926">
        <ele>849.6</ele>
        <time>2020-07-09T08:12:33Z</time>
      </trkpt>
      <trkpt lat="46.85857" lon="6.01923">
        <ele>849.5</ele>
        <time>2020-07-09T08:12:39Z</time>
      </trkpt>
      <trkpt lat="46.85853" lon="6.01919">
        <ele>850</ele>
        <time>2020-07-09T08:12:46Z</time>
      </trkpt>
      <trkpt lat="46.8585" lon="6.01914">
        <ele>851.2</ele>
        <time>2020-07-09T08:12:56Z</time>
      </trkpt>
      <trkpt lat="46.85846" lon="6.0191">
        <ele>851.1</ele>
        <time>2020-07-09T08:13:05Z</time>
      </trkpt>
      <trkpt lat="46.85841" lon="6.0191">
        <ele>851.1</ele>
        <time>2020-07-09T08:13:07Z</time>
      </trkpt>
      <trkpt lat="46.85835" lon="6.01906">
        <ele>851</ele>
        <time>2020-07-09T08:13:10Z</time>
      </trkpt>
      <trkpt lat="46.85831" lon="6.01902">
        <ele>850.9</ele>
        <time>2020-07-09T08:13:13Z</time>
      </trkpt>
      <trkpt lat="46.85827" lon="6.01897">
        <ele>850.6</ele>
        <time>2020-07-09T08:13:18Z</time>
      </trkpt>
      <trkpt lat="46.85823" lon="6.01892">
        <ele>850.2</ele>
        <time>2020-07-09T08:13:22Z</time>
      </trkpt>
      <trkpt lat="46.85819" lon="6.01889">
        <ele>849.9</ele>
        <time>2020-07-09T08:13:26Z</time>
      </trkpt>
      <trkpt lat="46.85815" lon="6.01886">
        <ele>849.9</ele>
        <time>2020-07-09T08:13:31Z</time>
      </trkpt>
      <trkpt lat="46.85811" lon="6.01882">
        <ele>849.6</ele>
        <time>2020-07-09T08:13:36Z</time>
      </trkpt>
      <trkpt lat="46.85807" lon="6.01879">
        <ele>849.3</ele>
        <time>2020-07-09T08:13:39Z</time>
      </trkpt>
      <trkpt lat="46.85802" lon="6.01874">
        <ele>849</ele>
        <time>2020-07-09T08:13:42Z</time>
      </trkpt>
      <trkpt lat="46.85798" lon="6.01872">
        <ele>848.8</ele>
        <time>2020-07-09T08:13:45Z</time>
      </trkpt>
      <trkpt lat="46.85796" lon="6.01865">
        <ele>848.2</ele>
        <time>2020-07-09T08:13:52Z</time>
      </trkpt>
      <trkpt lat="46.858" lon="6.01867">
        <ele>848.6</ele>
        <time>2020-07-09T08:14:07Z</time>
      </trkpt>
      <trkpt lat="46.85805" lon="6.01869">
        <ele>850.1</ele>
        <time>2020-07-09T08:14:16Z</time>
      </trkpt>
      <trkpt lat="46.85808" lon="6.01874">
        <ele>850.6</ele>
        <time>2020-07-09T08:14:22Z</time>
      </trkpt>
      <trkpt lat="46.85812" lon="6.01879">
        <ele>851.1</ele>
        <time>2020-07-09T08:14:28Z</time>
      </trkpt>
      <trkpt lat="46.85817" lon="6.01881">
        <ele>851.5</ele>
        <time>2020-07-09T08:14:34Z</time>
      </trkpt>
      <trkpt lat="46.85822" lon="6.01884">
        <ele>852</ele>
        <time>2020-07-09T08:14:39Z</time>
      </trkpt>
      <trkpt lat="46.85826" lon="6.01887">
        <ele>852.9</ele>
        <time>2020-07-09T08:14:45Z</time>
      </trkpt>
      <trkpt lat="46.85832" lon="6.0189">
        <ele>853.9</ele>
        <time>2020-07-09T08:14:50Z</time>
      </trkpt>
      <trkpt lat="46.85836" lon="6.01894">
        <ele>855.2</ele>
        <time>2020-07-09T08:14:55Z</time>
      </trkpt>
      <trkpt lat="46.85841" lon="6.01898">
        <ele>855.9</ele>
        <time>2020-07-09T08:15:01Z</time>
      </trkpt>
      <trkpt lat="46.85845" lon="6.01901">
        <ele>856</ele>
        <time>2020-07-09T08:15:07Z</time>
      </trkpt>
      <trkpt lat="46.8585" lon="6.01904">
        <ele>856.1</ele>
        <time>2020-07-09T08:15:10Z</time>
      </trkpt>
      <trkpt lat="46.85854" lon="6.01906">
        <ele>856.2</ele>
        <time>2020-07-09T08:15:13Z</time>
      </trkpt>
      <trkpt lat="46.85859" lon="6.01909">
        <ele>856.7</ele>
        <time>2020-07-09T08:15:18Z</time>
      </trkpt>
      <trkpt lat="46.85866" lon="6.01916">
        <ele>860.3</ele>
        <time>2020-07-09T08:15:41Z</time>
      </trkpt>
      <trkpt lat="46.85872" lon="6.01918">
        <ele>860.9</ele>
        <time>2020-07-09T08:15:46Z</time>
      </trkpt>
      <trkpt lat="46.85878" lon="6.01928">
        <ele>859.3</ele>
        <time>2020-07-09T08:16:02Z</time>
      </trkpt>
      <trkpt lat="46.85873" lon="6.01925">
        <ele>858.5</ele>
        <time>2020-07-09T08:16:09Z</time>
      </trkpt>
      <trkpt lat="46.85868" lon="6.01923">
        <ele>857.8</ele>
        <time>2020-07-09T08:16:13Z</time>
      </trkpt>
      <trkpt lat="46.85864" lon="6.01921">
        <ele>857.3</ele>
        <time>2020-07-09T08:16:16Z</time>
      </trkpt>
      <trkpt lat="46.85859" lon="6.01917">
        <ele>856.2</ele>
        <time>2020-07-09T08:16:21Z</time>
      </trkpt>
      <trkpt lat="46.85855" lon="6.01913">
        <ele>855.4</ele>
        <time>2020-07-09T08:16:25Z</time>
      </trkpt>
      <trkpt lat="46.85855" lon="6.01906">
        <ele>854.2</ele>
        <time>2020-07-09T08:16:32Z</time>
      </trkpt>
      <trkpt lat="46.85854" lon="6.01898">
        <ele>853.6</ele>
        <time>2020-07-09T08:16:36Z</time>
      </trkpt>
      <trkpt lat="46.85867" lon="6.01883">
        <ele>854</ele>
        <time>2020-07-09T08:17:04Z</time>
      </trkpt>
      <trkpt lat="46.85875" lon="6.01873">
        <ele>862</ele>
        <time>2020-07-09T08:17:40Z</time>
      </trkpt>
      <trkpt lat="46.85881" lon="6.0186">
        <ele>863.7</ele>
        <time>2020-07-09T08:18:27Z</time>
      </trkpt>
      <trkpt lat="46.8588" lon="6.01852">
        <ele>863.9</ele>
        <time>2020-07-09T08:18:30Z</time>
      </trkpt>
      <trkpt lat="46.85879" lon="6.01845">
        <ele>864.1</ele>
        <time>2020-07-09T08:18:32Z</time>
      </trkpt>
      <trkpt lat="46.8588" lon="6.01838">
        <ele>864.6</ele>
        <time>2020-07-09T08:18:37Z</time>
      </trkpt>
      <trkpt lat="46.85885" lon="6.01835">
        <ele>865</ele>
        <time>2020-07-09T08:18:41Z</time>
      </trkpt>
      <trkpt lat="46.85901" lon="6.01829">
        <ele>869.9</ele>
        <time>2020-07-09T08:19:19Z</time>
      </trkpt>
      <trkpt lat="46.85905" lon="6.01827">
        <ele>870.7</ele>
        <time>2020-07-09T08:19:26Z</time>
      </trkpt>
      <trkpt lat="46.85916" lon="6.01832">
        <ele>873.5</ele>
        <time>2020-07-09T08:19:52Z</time>
      </trkpt>
      <trkpt lat="46.85932" lon="6.01839">
        <ele>874.1</ele>
        <time>2020-07-09T08:20:08Z</time>
      </trkpt>
      <trkpt lat="46.85937" lon="6.01837">
        <ele>874.3</ele>
        <time>2020-07-09T08:20:10Z</time>
      </trkpt>
      <trkpt lat="46.85972" lon="6.01798">
        <ele>881.9</ele>
        <time>2020-07-09T08:21:15Z</time>
      </trkpt>
      <trkpt lat="46.85974" lon="6.01784">
        <ele>884.1</ele>
        <time>2020-07-09T08:21:32Z</time>
      </trkpt>
      <trkpt lat="46.85973" lon="6.01771">
        <ele>875.1</ele>
        <time>2020-07-09T08:23:02Z</time>
      </trkpt>
      <trkpt lat="46.85968" lon="6.01772">
        <ele>874</ele>
        <time>2020-07-09T08:23:09Z</time>
      </trkpt>
      <trkpt lat="46.85963" lon="6.01769">
        <ele>872.6</ele>
        <time>2020-07-09T08:23:17Z</time>
      </trkpt>
      <trkpt lat="46.85959" lon="6.01766">
        <ele>870.8</ele>
        <time>2020-07-09T08:23:25Z</time>
      </trkpt>
      <trkpt lat="46.85954" lon="6.01764">
        <ele>870</ele>
        <time>2020-07-09T08:23:29Z</time>
      </trkpt>
      <trkpt lat="46.85949" lon="6.01763">
        <ele>869.8</ele>
        <time>2020-07-09T08:23:32Z</time>
      </trkpt>
      <trkpt lat="46.85944" lon="6.01762">
        <ele>869.8</ele>
        <time>2020-07-09T08:23:37Z</time>
      </trkpt>
      <trkpt lat="46.8594" lon="6.0176">
        <ele>870.4</ele>
        <time>2020-07-09T08:23:43Z</time>
      </trkpt>
      <trkpt lat="46.85936" lon="6.01755">
        <ele>870.6</ele>
        <time>2020-07-09T08:23:45Z</time>
      </trkpt>
      <trkpt lat="46.85932" lon="6.01749">
        <ele>870.8</ele>
        <time>2020-07-09T08:23:47Z</time>
      </trkpt>
      <trkpt lat="46.85922" lon="6.01738">
        <ele>871.8</ele>
        <time>2020-07-09T08:23:55Z</time>
      </trkpt>
      <trkpt lat="46.85917" lon="6.01735">
        <ele>872.1</ele>
        <time>2020-07-09T08:23:59Z</time>
      </trkpt>
      <trkpt lat="46.859" lon="6.01701">
        <ele>873.1</ele>
        <time>2020-07-09T08:24:29Z</time>
      </trkpt>
      <trkpt lat="46.85899" lon="6.01694">
        <ele>873.6</ele>
        <time>2020-07-09T08:24:34Z</time>
      </trkpt>
      <trkpt lat="46.85897" lon="6.01688">
        <ele>874.8</ele>
        <time>2020-07-09T08:24:44Z</time>
      </trkpt>
      <trkpt lat="46.85909" lon="6.01658">
        <ele>874.5</ele>
        <time>2020-07-09T08:24:57Z</time>
      </trkpt>
      <trkpt lat="46.8592" lon="6.0164">
        <ele>873.1</ele>
        <time>2020-07-09T08:25:54Z</time>
      </trkpt>
      <trkpt lat="46.85916" lon="6.0161">
        <ele>869.2</ele>
        <time>2020-07-09T08:27:07Z</time>
      </trkpt>
      <trkpt lat="46.85918" lon="6.01603">
        <ele>868.7</ele>
        <time>2020-07-09T08:27:12Z</time>
      </trkpt>
      <trkpt lat="46.8594" lon="6.01592">
        <ele>859.8</ele>
        <time>2020-07-09T08:27:50Z</time>
      </trkpt>
      <trkpt lat="46.8595" lon="6.01588">
        <ele>859</ele>
        <time>2020-07-09T08:28:20Z</time>
      </trkpt>
      <trkpt lat="46.85953" lon="6.01581">
        <ele>859.1</ele>
        <time>2020-07-09T08:28:22Z</time>
      </trkpt>
      <trkpt lat="46.85955" lon="6.01574">
        <ele>859.1</ele>
        <time>2020-07-09T08:28:25Z</time>
      </trkpt>
      <trkpt lat="46.85959" lon="6.01569">
        <ele>859.5</ele>
        <time>2020-07-09T08:28:31Z</time>
      </trkpt>
      <trkpt lat="46.85965" lon="6.01561">
        <ele>859.7</ele>
        <time>2020-07-09T08:28:40Z</time>
      </trkpt>
      <trkpt lat="46.85968" lon="6.01553">
        <ele>859.5</ele>
        <time>2020-07-09T08:28:47Z</time>
      </trkpt>
      <trkpt lat="46.85968" lon="6.01547">
        <ele>859.3</ele>
        <time>2020-07-09T08:28:55Z</time>
      </trkpt>
      <trkpt lat="46.85971" lon="6.01522">
        <ele>827.1</ele>
        <time>2020-07-09T08:38:08Z</time>
      </trkpt>
      <trkpt lat="46.85969" lon="6.01487">
        <ele>826.2</ele>
        <time>2020-07-09T08:38:57Z</time>
      </trkpt>
      <trkpt lat="46.85992" lon="6.01487">
        <ele>831.7</ele>
        <time>2020-07-09T08:39:44Z</time>
      </trkpt>
      <trkpt lat="46.85997" lon="6.01492">
        <ele>831.4</ele>
        <time>2020-07-09T08:39:47Z</time>
      </trkpt>
      <trkpt lat="46.86013" lon="6.01515">
        <ele>831.7</ele>
        <time>2020-07-09T08:40:06Z</time>
      </trkpt>
      <trkpt lat="46.86023" lon="6.01531">
        <ele>833.2</ele>
        <time>2020-07-09T08:40:18Z</time>
      </trkpt>
      <trkpt lat="46.86026" lon="6.01538">
        <ele>833.8</ele>
        <time>2020-07-09T08:40:22Z</time>
      </trkpt>
      <trkpt lat="46.8603" lon="6.01541">
        <ele>835</ele>
        <time>2020-07-09T08:40:29Z</time>
      </trkpt>
      <trkpt lat="46.86034" lon="6.01546">
        <ele>835.8</ele>
        <time>2020-07-09T08:40:34Z</time>
      </trkpt>
      <trkpt lat="46.86045" lon="6.0157">
        <ele>837.4</ele>
        <time>2020-07-09T08:40:53Z</time>
      </trkpt>
      <trkpt lat="46.86054" lon="6.0159">
        <ele>836.4</ele>
        <time>2020-07-09T08:41:10Z</time>
      </trkpt>
      <trkpt lat="46.86058" lon="6.01594">
        <ele>835.8</ele>
        <time>2020-07-09T08:41:17Z</time>
      </trkpt>
      <trkpt lat="46.8606" lon="6.016">
        <ele>834.6</ele>
        <time>2020-07-09T08:41:25Z</time>
      </trkpt>
      <trkpt lat="46.86064" lon="6.01604">
        <ele>833.8</ele>
        <time>2020-07-09T08:41:31Z</time>
      </trkpt>
      <trkpt lat="46.8607" lon="6.01615">
        <ele>831.5</ele>
        <time>2020-07-09T08:41:43Z</time>
      </trkpt>
      <trkpt lat="46.86081" lon="6.01638">
        <ele>830.6</ele>
        <time>2020-07-09T08:42:05Z</time>
      </trkpt>
      <trkpt lat="46.86085" lon="6.01646">
        <ele>830.3</ele>
        <time>2020-07-09T08:42:10Z</time>
      </trkpt>
      <trkpt lat="46.86088" lon="6.01651">
        <ele>830.2</ele>
        <time>2020-07-09T08:42:12Z</time>
      </trkpt>
      <trkpt lat="46.86093" lon="6.01665">
        <ele>829.1</ele>
        <time>2020-07-09T08:42:34Z</time>
      </trkpt>
      <trkpt lat="46.86098" lon="6.01669">
        <ele>828.6</ele>
        <time>2020-07-09T08:42:39Z</time>
      </trkpt>
      <trkpt lat="46.86105" lon="6.01682">
        <ele>827.9</ele>
        <time>2020-07-09T08:42:49Z</time>
      </trkpt>
      <trkpt lat="46.86109" lon="6.01687">
        <ele>827.8</ele>
        <time>2020-07-09T08:42:55Z</time>
      </trkpt>
      <trkpt lat="46.86117" lon="6.01699">
        <ele>827.1</ele>
        <time>2020-07-09T08:43:13Z</time>
      </trkpt>
      <trkpt lat="46.8612" lon="6.01707">
        <ele>825.4</ele>
        <time>2020-07-09T08:43:25Z</time>
      </trkpt>
      <trkpt lat="46.86124" lon="6.01711">
        <ele>825.4</ele>
        <time>2020-07-09T08:43:28Z</time>
      </trkpt>
      <trkpt lat="46.86129" lon="6.01719">
        <ele>825.2</ele>
        <time>2020-07-09T08:43:32Z</time>
      </trkpt>
      <trkpt lat="46.86133" lon="6.01726">
        <ele>825.2</ele>
        <time>2020-07-09T08:43:34Z</time>
      </trkpt>
      <trkpt lat="46.86136" lon="6.01731">
        <ele>825.3</ele>
        <time>2020-07-09T08:43:37Z</time>
      </trkpt>
      <trkpt lat="46.86142" lon="6.01746">
        <ele>825.9</ele>
        <time>2020-07-09T08:43:50Z</time>
      </trkpt>
      <trkpt lat="46.86153" lon="6.01758">
        <ele>826.4</ele>
        <time>2020-07-09T08:43:59Z</time>
      </trkpt>
      <trkpt lat="46.86157" lon="6.01759">
        <ele>826.5</ele>
        <time>2020-07-09T08:44:01Z</time>
      </trkpt>
      <trkpt lat="46.86163" lon="6.0176">
        <ele>826.5</ele>
        <time>2020-07-09T08:44:04Z</time>
      </trkpt>
      <trkpt lat="46.86175" lon="6.01764">
        <ele>829.2</ele>
        <time>2020-07-09T08:44:19Z</time>
      </trkpt>
      <trkpt lat="46.8618" lon="6.01774">
        <ele>830.7</ele>
        <time>2020-07-09T08:44:30Z</time>
      </trkpt>
      <trkpt lat="46.86183" lon="6.01784">
        <ele>830.7</ele>
        <time>2020-07-09T08:44:32Z</time>
      </trkpt>
      <trkpt lat="46.86185" lon="6.0179">
        <ele>830.6</ele>
        <time>2020-07-09T08:44:34Z</time>
      </trkpt>
      <trkpt lat="46.86191" lon="6.01808">
        <ele>829.1</ele>
        <time>2020-07-09T08:44:54Z</time>
      </trkpt>
      <trkpt lat="46.862" lon="6.01822">
        <ele>829.4</ele>
        <time>2020-07-09T08:45:08Z</time>
      </trkpt>
      <trkpt lat="46.86203" lon="6.01828">
        <ele>829.9</ele>
        <time>2020-07-09T08:45:12Z</time>
      </trkpt>
      <trkpt lat="46.86207" lon="6.01833">
        <ele>832.1</ele>
        <time>2020-07-09T08:45:24Z</time>
      </trkpt>
      <trkpt lat="46.8621" lon="6.0184">
        <ele>832.8</ele>
        <time>2020-07-09T08:45:27Z</time>
      </trkpt>
      <trkpt lat="46.86213" lon="6.01845">
        <ele>833.3</ele>
        <time>2020-07-09T08:45:29Z</time>
      </trkpt>
      <trkpt lat="46.86225" lon="6.01854">
        <ele>837.9</ele>
        <time>2020-07-09T08:46:06Z</time>
      </trkpt>
      <trkpt lat="46.86228" lon="6.01861">
        <ele>838.4</ele>
        <time>2020-07-09T08:46:10Z</time>
      </trkpt>
      <trkpt lat="46.86231" lon="6.01866">
        <ele>839.1</ele>
        <time>2020-07-09T08:46:16Z</time>
      </trkpt>
      <trkpt lat="46.86234" lon="6.01872">
        <ele>840</ele>
        <time>2020-07-09T08:46:21Z</time>
      </trkpt>
      <trkpt lat="46.86238" lon="6.01877">
        <ele>840.7</ele>
        <time>2020-07-09T08:46:28Z</time>
      </trkpt>
      <trkpt lat="46.86243" lon="6.01879">
        <ele>841</ele>
        <time>2020-07-09T08:46:32Z</time>
      </trkpt>
      <trkpt lat="46.86248" lon="6.01882">
        <ele>841.4</ele>
        <time>2020-07-09T08:46:39Z</time>
      </trkpt>
      <trkpt lat="46.86251" lon="6.01887">
        <ele>841.6</ele>
        <time>2020-07-09T08:46:49Z</time>
      </trkpt>
      <trkpt lat="46.86255" lon="6.01892">
        <ele>841.5</ele>
        <time>2020-07-09T08:46:54Z</time>
      </trkpt>
      <trkpt lat="46.86259" lon="6.01895">
        <ele>841.4</ele>
        <time>2020-07-09T08:46:57Z</time>
      </trkpt>
      <trkpt lat="46.86263" lon="6.019">
        <ele>841.2</ele>
        <time>2020-07-09T08:47:04Z</time>
      </trkpt>
      <trkpt lat="46.86271" lon="6.01907">
        <ele>840.6</ele>
        <time>2020-07-09T08:47:14Z</time>
      </trkpt>
      <trkpt lat="46.86274" lon="6.01913">
        <ele>840.8</ele>
        <time>2020-07-09T08:47:19Z</time>
      </trkpt>
      <trkpt lat="46.86287" lon="6.01929">
        <ele>841.4</ele>
        <time>2020-07-09T08:47:33Z</time>
      </trkpt>
      <trkpt lat="46.86291" lon="6.01934">
        <ele>841.5</ele>
        <time>2020-07-09T08:47:38Z</time>
      </trkpt>
      <trkpt lat="46.86295" lon="6.0194">
        <ele>841.5</ele>
        <time>2020-07-09T08:47:44Z</time>
      </trkpt>
      <trkpt lat="46.86305" lon="6.01955">
        <ele>840.5</ele>
        <time>2020-07-09T08:48:02Z</time>
      </trkpt>
      <trkpt lat="46.86308" lon="6.01961">
        <ele>840.3</ele>
        <time>2020-07-09T08:48:06Z</time>
      </trkpt>
      <trkpt lat="46.86316" lon="6.01972">
        <ele>840.5</ele>
        <time>2020-07-09T08:48:17Z</time>
      </trkpt>
      <trkpt lat="46.86318" lon="6.01978">
        <ele>840.6</ele>
        <time>2020-07-09T08:48:21Z</time>
      </trkpt>
      <trkpt lat="46.86327" lon="6.01993">
        <ele>841.8</ele>
        <time>2020-07-09T08:48:36Z</time>
      </trkpt>
      <trkpt lat="46.86326" lon="6.02">
        <ele>842.1</ele>
        <time>2020-07-09T08:48:43Z</time>
      </trkpt>
      <trkpt lat="46.86324" lon="6.02007">
        <ele>842.8</ele>
        <time>2020-07-09T08:48:57Z</time>
      </trkpt>
      <trkpt lat="46.86326" lon="6.02014">
        <ele>843.1</ele>
        <time>2020-07-09T08:49:05Z</time>
      </trkpt>
      <trkpt lat="46.86332" lon="6.0202">
        <ele>843.1</ele>
        <time>2020-07-09T08:49:09Z</time>
      </trkpt>
      <trkpt lat="46.86336" lon="6.02024">
        <ele>843</ele>
        <time>2020-07-09T08:49:13Z</time>
      </trkpt>
      <trkpt lat="46.86336" lon="6.0203">
        <ele>842.3</ele>
        <time>2020-07-09T08:49:21Z</time>
      </trkpt>
      <trkpt lat="46.8634" lon="6.02037">
        <ele>841.8</ele>
        <time>2020-07-09T08:49:26Z</time>
      </trkpt>
      <trkpt lat="46.86343" lon="6.02042">
        <ele>841.4</ele>
        <time>2020-07-09T08:49:31Z</time>
      </trkpt>
      <trkpt lat="46.86347" lon="6.02044">
        <ele>840.9</ele>
        <time>2020-07-09T08:50:20Z</time>
      </trkpt>
      <trkpt lat="46.86351" lon="6.02047">
        <ele>844.8</ele>
        <time>2020-07-09T08:51:33Z</time>
      </trkpt>
      <trkpt lat="46.86352" lon="6.02054">
        <ele>845.2</ele>
        <time>2020-07-09T08:51:37Z</time>
      </trkpt>
      <trkpt lat="46.8635" lon="6.02048">
        <ele>845.2</ele>
        <time>2020-07-09T08:51:50Z</time>
      </trkpt>
      <trkpt lat="46.86349" lon="6.02052">
        <ele>847.4</ele>
        <time>2020-07-09T08:52:59Z</time>
      </trkpt>
      <trkpt lat="46.86352" lon="6.02058">
        <ele>847.9</ele>
        <time>2020-07-09T08:53:24Z</time>
      </trkpt>
      <trkpt lat="46.86353" lon="6.02065">
        <ele>848.2</ele>
        <time>2020-07-09T08:53:29Z</time>
      </trkpt>
      <trkpt lat="46.86355" lon="6.02072">
        <ele>848.4</ele>
        <time>2020-07-09T08:53:33Z</time>
      </trkpt>
      <trkpt lat="46.86356" lon="6.02079">
        <ele>848.7</ele>
        <time>2020-07-09T08:53:38Z</time>
      </trkpt>
      <trkpt lat="46.86361" lon="6.02084">
        <ele>848.9</ele>
        <time>2020-07-09T08:53:41Z</time>
      </trkpt>
      <trkpt lat="46.86366" lon="6.02087">
        <ele>849.2</ele>
        <time>2020-07-09T08:53:45Z</time>
      </trkpt>
      <trkpt lat="46.86369" lon="6.02094">
        <ele>849.5</ele>
        <time>2020-07-09T08:53:51Z</time>
      </trkpt>
      <trkpt lat="46.86368" lon="6.02101">
        <ele>849.5</ele>
        <time>2020-07-09T08:53:55Z</time>
      </trkpt>
      <trkpt lat="46.86372" lon="6.02107">
        <ele>849.3</ele>
        <time>2020-07-09T08:54:01Z</time>
      </trkpt>
      <trkpt lat="46.86378" lon="6.02116">
        <ele>849.7</ele>
        <time>2020-07-09T08:54:20Z</time>
      </trkpt>
      <trkpt lat="46.86381" lon="6.02122">
        <ele>849.6</ele>
        <time>2020-07-09T08:54:28Z</time>
      </trkpt>
      <trkpt lat="46.86384" lon="6.02129">
        <ele>849.4</ele>
        <time>2020-07-09T08:54:32Z</time>
      </trkpt>
      <trkpt lat="46.86388" lon="6.02135">
        <ele>849.1</ele>
        <time>2020-07-09T08:54:36Z</time>
      </trkpt>
      <trkpt lat="46.86393" lon="6.02139">
        <ele>848.9</ele>
        <time>2020-07-09T08:54:40Z</time>
      </trkpt>
      <trkpt lat="46.86397" lon="6.02143">
        <ele>849.1</ele>
        <time>2020-07-09T08:54:44Z</time>
      </trkpt>
      <trkpt lat="46.86402" lon="6.02147">
        <ele>849.3</ele>
        <time>2020-07-09T08:54:49Z</time>
      </trkpt>
      <trkpt lat="46.86405" lon="6.02152">
        <ele>849.7</ele>
        <time>2020-07-09T08:54:54Z</time>
      </trkpt>
      <trkpt lat="46.86409" lon="6.02156">
        <ele>850</ele>
        <time>2020-07-09T08:55:00Z</time>
      </trkpt>
      <trkpt lat="46.86418" lon="6.02168">
        <ele>851.1</ele>
        <time>2020-07-09T08:55:13Z</time>
      </trkpt>
      <trkpt lat="46.86423" lon="6.02172">
        <ele>851.4</ele>
        <time>2020-07-09T08:55:18Z</time>
      </trkpt>
      <trkpt lat="46.86427" lon="6.02175">
        <ele>851.6</ele>
        <time>2020-07-09T08:55:21Z</time>
      </trkpt>
      <trkpt lat="46.86432" lon="6.02177">
        <ele>851.5</ele>
        <time>2020-07-09T08:55:24Z</time>
      </trkpt>
      <trkpt lat="46.86434" lon="6.02183">
        <ele>851.1</ele>
        <time>2020-07-09T08:55:29Z</time>
      </trkpt>
      <trkpt lat="46.86438" lon="6.02188">
        <ele>850.3</ele>
        <time>2020-07-09T08:55:34Z</time>
      </trkpt>
      <trkpt lat="46.86442" lon="6.02194">
        <ele>849.5</ele>
        <time>2020-07-09T08:55:39Z</time>
      </trkpt>
      <trkpt lat="46.86446" lon="6.02199">
        <ele>848.9</ele>
        <time>2020-07-09T08:55:43Z</time>
      </trkpt>
      <trkpt lat="46.86449" lon="6.02205">
        <ele>848.5</ele>
        <time>2020-07-09T08:55:46Z</time>
      </trkpt>
      <trkpt lat="46.86451" lon="6.02212">
        <ele>848.1</ele>
        <time>2020-07-09T08:55:51Z</time>
      </trkpt>
      <trkpt lat="46.86454" lon="6.02219">
        <ele>847.6</ele>
        <time>2020-07-09T08:55:56Z</time>
      </trkpt>
      <trkpt lat="46.86459" lon="6.02221">
        <ele>847.4</ele>
        <time>2020-07-09T08:55:58Z</time>
      </trkpt>
      <trkpt lat="46.86463" lon="6.02222">
        <ele>846.5</ele>
        <time>2020-07-09T08:56:05Z</time>
      </trkpt>
      <trkpt lat="46.86468" lon="6.02241">
        <ele>845.2</ele>
        <time>2020-07-09T08:56:22Z</time>
      </trkpt>
      <trkpt lat="46.86472" lon="6.02245">
        <ele>845.9</ele>
        <time>2020-07-09T08:56:29Z</time>
      </trkpt>
      <trkpt lat="46.86476" lon="6.02249">
        <ele>846.4</ele>
        <time>2020-07-09T08:56:33Z</time>
      </trkpt>
      <trkpt lat="46.8648" lon="6.02254">
        <ele>846.8</ele>
        <time>2020-07-09T08:56:37Z</time>
      </trkpt>
      <trkpt lat="46.86484" lon="6.0227">
        <ele>846.6</ele>
        <time>2020-07-09T08:56:46Z</time>
      </trkpt>
      <trkpt lat="46.86488" lon="6.02275">
        <ele>846.5</ele>
        <time>2020-07-09T08:56:50Z</time>
      </trkpt>
      <trkpt lat="46.86493" lon="6.02278">
        <ele>846.5</ele>
        <time>2020-07-09T08:56:54Z</time>
      </trkpt>
      <trkpt lat="46.86496" lon="6.02284">
        <ele>846.5</ele>
        <time>2020-07-09T08:56:59Z</time>
      </trkpt>
      <trkpt lat="46.865" lon="6.02287">
        <ele>846.6</ele>
        <time>2020-07-09T08:57:04Z</time>
      </trkpt>
      <trkpt lat="46.86503" lon="6.02292">
        <ele>846.5</ele>
        <time>2020-07-09T08:57:12Z</time>
      </trkpt>
      <trkpt lat="46.86507" lon="6.02299">
        <ele>846.2</ele>
        <time>2020-07-09T08:57:18Z</time>
      </trkpt>
      <trkpt lat="46.86508" lon="6.02305">
        <ele>846</ele>
        <time>2020-07-09T08:57:23Z</time>
      </trkpt>
      <trkpt lat="46.86523" lon="6.0232">
        <ele>848.2</ele>
        <time>2020-07-09T08:57:43Z</time>
      </trkpt>
      <trkpt lat="46.86526" lon="6.02325">
        <ele>848.4</ele>
        <time>2020-07-09T08:57:45Z</time>
      </trkpt>
      <trkpt lat="46.8653" lon="6.0233">
        <ele>848.9</ele>
        <time>2020-07-09T08:57:49Z</time>
      </trkpt>
      <trkpt lat="46.86534" lon="6.02335">
        <ele>849.6</ele>
        <time>2020-07-09T08:57:53Z</time>
      </trkpt>
      <trkpt lat="46.86538" lon="6.0234">
        <ele>851.5</ele>
        <time>2020-07-09T08:58:02Z</time>
      </trkpt>
      <trkpt lat="46.86542" lon="6.02345">
        <ele>852.9</ele>
        <time>2020-07-09T08:58:08Z</time>
      </trkpt>
      <trkpt lat="46.86546" lon="6.02349">
        <ele>854.1</ele>
        <time>2020-07-09T08:58:14Z</time>
      </trkpt>
      <trkpt lat="46.86549" lon="6.02354">
        <ele>854.8</ele>
        <time>2020-07-09T08:58:20Z</time>
      </trkpt>
      <trkpt lat="46.86552" lon="6.02359">
        <ele>855.3</ele>
        <time>2020-07-09T08:58:25Z</time>
      </trkpt>
      <trkpt lat="46.86555" lon="6.02364">
        <ele>855.6</ele>
        <time>2020-07-09T08:58:30Z</time>
      </trkpt>
      <trkpt lat="46.8656" lon="6.0237">
        <ele>855.7</ele>
        <time>2020-07-09T08:58:34Z</time>
      </trkpt>
      <trkpt lat="46.86564" lon="6.02375">
        <ele>855.7</ele>
        <time>2020-07-09T08:58:37Z</time>
      </trkpt>
      <trkpt lat="46.86566" lon="6.02382">
        <ele>855.9</ele>
        <time>2020-07-09T08:58:41Z</time>
      </trkpt>
      <trkpt lat="46.86569" lon="6.02387">
        <ele>855.9</ele>
        <time>2020-07-09T08:58:43Z</time>
      </trkpt>
      <trkpt lat="46.86571" lon="6.02396">
        <ele>855.8</ele>
        <time>2020-07-09T08:58:48Z</time>
      </trkpt>
      <trkpt lat="46.86575" lon="6.02401">
        <ele>855.5</ele>
        <time>2020-07-09T08:58:52Z</time>
      </trkpt>
      <trkpt lat="46.86579" lon="6.02405">
        <ele>855.9</ele>
        <time>2020-07-09T08:58:57Z</time>
      </trkpt>
      <trkpt lat="46.86583" lon="6.02409">
        <ele>857.2</ele>
        <time>2020-07-09T08:59:18Z</time>
      </trkpt>
      <trkpt lat="46.86585" lon="6.02417">
        <ele>857.4</ele>
        <time>2020-07-09T08:59:25Z</time>
      </trkpt>
      <trkpt lat="46.86587" lon="6.02424">
        <ele>857.4</ele>
        <time>2020-07-09T08:59:28Z</time>
      </trkpt>
      <trkpt lat="46.86591" lon="6.0243">
        <ele>857.4</ele>
        <time>2020-07-09T08:59:32Z</time>
      </trkpt>
      <trkpt lat="46.86594" lon="6.02436">
        <ele>857.2</ele>
        <time>2020-07-09T08:59:37Z</time>
      </trkpt>
      <trkpt lat="46.86598" lon="6.0244">
        <ele>857</ele>
        <time>2020-07-09T08:59:42Z</time>
      </trkpt>
      <trkpt lat="46.86603" lon="6.02444">
        <ele>856.7</ele>
        <time>2020-07-09T08:59:45Z</time>
      </trkpt>
      <trkpt lat="46.86609" lon="6.02447">
        <ele>856.5</ele>
        <time>2020-07-09T08:59:48Z</time>
      </trkpt>
      <trkpt lat="46.86614" lon="6.0245">
        <ele>856.4</ele>
        <time>2020-07-09T08:59:51Z</time>
      </trkpt>
      <trkpt lat="46.86618" lon="6.02453">
        <ele>856.2</ele>
        <time>2020-07-09T08:59:54Z</time>
      </trkpt>
      <trkpt lat="46.86622" lon="6.0246">
        <ele>856.1</ele>
        <time>2020-07-09T08:59:58Z</time>
      </trkpt>
      <trkpt lat="46.86633" lon="6.02476">
        <ele>856.5</ele>
        <time>2020-07-09T09:00:13Z</time>
      </trkpt>
      <trkpt lat="46.86636" lon="6.02482">
        <ele>856.7</ele>
        <time>2020-07-09T09:00:19Z</time>
      </trkpt>
      <trkpt lat="46.86639" lon="6.02487">
        <ele>857.1</ele>
        <time>2020-07-09T09:00:22Z</time>
      </trkpt>
      <trkpt lat="46.86643" lon="6.02491">
        <ele>857.8</ele>
        <time>2020-07-09T09:00:27Z</time>
      </trkpt>
      <trkpt lat="46.86646" lon="6.02496">
        <ele>858.5</ele>
        <time>2020-07-09T09:00:35Z</time>
      </trkpt>
      <trkpt lat="46.86647" lon="6.02502">
        <ele>859</ele>
        <time>2020-07-09T09:00:44Z</time>
      </trkpt>
      <trkpt lat="46.86651" lon="6.02507">
        <ele>859.1</ele>
        <time>2020-07-09T09:00:49Z</time>
      </trkpt>
      <trkpt lat="46.86656" lon="6.0251">
        <ele>859.1</ele>
        <time>2020-07-09T09:00:54Z</time>
      </trkpt>
      <trkpt lat="46.86661" lon="6.02515">
        <ele>858.9</ele>
        <time>2020-07-09T09:00:58Z</time>
      </trkpt>
      <trkpt lat="46.86666" lon="6.02518">
        <ele>858.7</ele>
        <time>2020-07-09T09:01:00Z</time>
      </trkpt>
      <trkpt lat="46.8667" lon="6.02523">
        <ele>858.4</ele>
        <time>2020-07-09T09:01:04Z</time>
      </trkpt>
      <trkpt lat="46.86674" lon="6.02527">
        <ele>857.9</ele>
        <time>2020-07-09T09:01:10Z</time>
      </trkpt>
      <trkpt lat="46.86678" lon="6.02531">
        <ele>857.7</ele>
        <time>2020-07-09T09:01:14Z</time>
      </trkpt>
      <trkpt lat="46.86683" lon="6.02534">
        <ele>857.5</ele>
        <time>2020-07-09T09:01:18Z</time>
      </trkpt>
      <trkpt lat="46.86688" lon="6.02538">
        <ele>856.8</ele>
        <time>2020-07-09T09:01:24Z</time>
      </trkpt>
      <trkpt lat="46.86698" lon="6.02548">
        <ele>855.8</ele>
        <time>2020-07-09T09:01:36Z</time>
      </trkpt>
      <trkpt lat="46.86703" lon="6.02552">
        <ele>855.7</ele>
        <time>2020-07-09T09:01:42Z</time>
      </trkpt>
      <trkpt lat="46.86706" lon="6.02556">
        <ele>855.8</ele>
        <time>2020-07-09T09:01:47Z</time>
      </trkpt>
      <trkpt lat="46.86721" lon="6.02571">
        <ele>856.2</ele>
        <time>2020-07-09T09:02:04Z</time>
      </trkpt>
      <trkpt lat="46.86725" lon="6.02576">
        <ele>856</ele>
        <time>2020-07-09T09:02:08Z</time>
      </trkpt>
      <trkpt lat="46.86729" lon="6.02581">
        <ele>855.7</ele>
        <time>2020-07-09T09:02:14Z</time>
      </trkpt>
      <trkpt lat="46.86733" lon="6.02584">
        <ele>855.4</ele>
        <time>2020-07-09T09:02:20Z</time>
      </trkpt>
      <trkpt lat="46.86738" lon="6.02587">
        <ele>855.3</ele>
        <time>2020-07-09T09:02:22Z</time>
      </trkpt>
      <trkpt lat="46.86743" lon="6.02591">
        <ele>855.3</ele>
        <time>2020-07-09T09:02:26Z</time>
      </trkpt>
      <trkpt lat="46.86747" lon="6.02596">
        <ele>855.3</ele>
        <time>2020-07-09T09:02:30Z</time>
      </trkpt>
      <trkpt lat="46.86751" lon="6.02602">
        <ele>855.2</ele>
        <time>2020-07-09T09:02:35Z</time>
      </trkpt>
      <trkpt lat="46.86756" lon="6.02604">
        <ele>855</ele>
        <time>2020-07-09T09:02:40Z</time>
      </trkpt>
      <trkpt lat="46.86765" lon="6.02614">
        <ele>852.9</ele>
        <time>2020-07-09T09:02:52Z</time>
      </trkpt>
      <trkpt lat="46.8677" lon="6.02617">
        <ele>852.1</ele>
        <time>2020-07-09T09:02:57Z</time>
      </trkpt>
      <trkpt lat="46.86774" lon="6.0262">
        <ele>851.5</ele>
        <time>2020-07-09T09:03:01Z</time>
      </trkpt>
      <trkpt lat="46.86779" lon="6.02623">
        <ele>850.7</ele>
        <time>2020-07-09T09:03:06Z</time>
      </trkpt>
      <trkpt lat="46.86783" lon="6.02627">
        <ele>849.9</ele>
        <time>2020-07-09T09:03:11Z</time>
      </trkpt>
      <trkpt lat="46.86794" lon="6.02634">
        <ele>848.6</ele>
        <time>2020-07-09T09:03:24Z</time>
      </trkpt>
      <trkpt lat="46.86799" lon="6.02637">
        <ele>848.5</ele>
        <time>2020-07-09T09:03:28Z</time>
      </trkpt>
      <trkpt lat="46.86804" lon="6.02639">
        <ele>848.4</ele>
        <time>2020-07-09T09:03:32Z</time>
      </trkpt>
      <trkpt lat="46.86809" lon="6.0264">
        <ele>848.3</ele>
        <time>2020-07-09T09:03:36Z</time>
      </trkpt>
      <trkpt lat="46.86813" lon="6.02642">
        <ele>848.2</ele>
        <time>2020-07-09T09:03:40Z</time>
      </trkpt>
      <trkpt lat="46.86817" lon="6.02646">
        <ele>848.6</ele>
        <time>2020-07-09T09:03:45Z</time>
      </trkpt>
      <trkpt lat="46.86822" lon="6.02648">
        <ele>849.5</ele>
        <time>2020-07-09T09:03:51Z</time>
      </trkpt>
      <trkpt lat="46.86826" lon="6.02651">
        <ele>850.1</ele>
        <time>2020-07-09T09:03:55Z</time>
      </trkpt>
      <trkpt lat="46.8683" lon="6.02656">
        <ele>850.6</ele>
        <time>2020-07-09T09:03:58Z</time>
      </trkpt>
      <trkpt lat="46.86836" lon="6.02662">
        <ele>852.7</ele>
        <time>2020-07-09T09:04:07Z</time>
      </trkpt>
      <trkpt lat="46.86837" lon="6.02668">
        <ele>853.4</ele>
        <time>2020-07-09T09:04:12Z</time>
      </trkpt>
      <trkpt lat="46.86842" lon="6.02672">
        <ele>854</ele>
        <time>2020-07-09T09:04:17Z</time>
      </trkpt>
      <trkpt lat="46.86853" lon="6.02681">
        <ele>855.4</ele>
        <time>2020-07-09T09:04:25Z</time>
      </trkpt>
      <trkpt lat="46.86856" lon="6.02688">
        <ele>855.5</ele>
        <time>2020-07-09T09:04:30Z</time>
      </trkpt>
      <trkpt lat="46.86861" lon="6.02693">
        <ele>855.8</ele>
        <time>2020-07-09T09:04:35Z</time>
      </trkpt>
      <trkpt lat="46.86866" lon="6.02696">
        <ele>855.9</ele>
        <time>2020-07-09T09:04:37Z</time>
      </trkpt>
      <trkpt lat="46.86871" lon="6.02698">
        <ele>856</ele>
        <time>2020-07-09T09:04:40Z</time>
      </trkpt>
      <trkpt lat="46.86875" lon="6.027">
        <ele>856.1</ele>
        <time>2020-07-09T09:04:43Z</time>
      </trkpt>
      <trkpt lat="46.86879" lon="6.02704">
        <ele>856.3</ele>
        <time>2020-07-09T09:04:46Z</time>
      </trkpt>
      <trkpt lat="46.86883" lon="6.02708">
        <ele>856.7</ele>
        <time>2020-07-09T09:04:53Z</time>
      </trkpt>
      <trkpt lat="46.86887" lon="6.02712">
        <ele>857</ele>
        <time>2020-07-09T09:04:56Z</time>
      </trkpt>
      <trkpt lat="46.86899" lon="6.02724">
        <ele>858.4</ele>
        <time>2020-07-09T09:05:08Z</time>
      </trkpt>
      <trkpt lat="46.86903" lon="6.02728">
        <ele>858.6</ele>
        <time>2020-07-09T09:05:13Z</time>
      </trkpt>
      <trkpt lat="46.86919" lon="6.02749">
        <ele>857.7</ele>
        <time>2020-07-09T09:05:41Z</time>
      </trkpt>
      <trkpt lat="46.86923" lon="6.02753">
        <ele>857.4</ele>
        <time>2020-07-09T09:05:45Z</time>
      </trkpt>
      <trkpt lat="46.86928" lon="6.02755">
        <ele>856.9</ele>
        <time>2020-07-09T09:05:50Z</time>
      </trkpt>
      <trkpt lat="46.86932" lon="6.02761">
        <ele>856.5</ele>
        <time>2020-07-09T09:05:54Z</time>
      </trkpt>
      <trkpt lat="46.86934" lon="6.02766">
        <ele>855.8</ele>
        <time>2020-07-09T09:05:59Z</time>
      </trkpt>
      <trkpt lat="46.86936" lon="6.02772">
        <ele>855.1</ele>
        <time>2020-07-09T09:06:05Z</time>
      </trkpt>
      <trkpt lat="46.86939" lon="6.02778">
        <ele>854.5</ele>
        <time>2020-07-09T09:06:09Z</time>
      </trkpt>
      <trkpt lat="46.86944" lon="6.02783">
        <ele>853.9</ele>
        <time>2020-07-09T09:06:13Z</time>
      </trkpt>
      <trkpt lat="46.86949" lon="6.02784">
        <ele>853.3</ele>
        <time>2020-07-09T09:06:16Z</time>
      </trkpt>
      <trkpt lat="46.86956" lon="6.02796">
        <ele>850.4</ele>
        <time>2020-07-09T09:06:30Z</time>
      </trkpt>
      <trkpt lat="46.8696" lon="6.028">
        <ele>850.1</ele>
        <time>2020-07-09T09:06:33Z</time>
      </trkpt>
      <trkpt lat="46.86965" lon="6.02805">
        <ele>849.5</ele>
        <time>2020-07-09T09:06:38Z</time>
      </trkpt>
      <trkpt lat="46.86969" lon="6.0281">
        <ele>848.9</ele>
        <time>2020-07-09T09:06:42Z</time>
      </trkpt>
      <trkpt lat="46.86973" lon="6.02815">
        <ele>848.1</ele>
        <time>2020-07-09T09:06:47Z</time>
      </trkpt>
      <trkpt lat="46.86978" lon="6.0282">
        <ele>847.3</ele>
        <time>2020-07-09T09:06:53Z</time>
      </trkpt>
      <trkpt lat="46.86983" lon="6.02823">
        <ele>846.8</ele>
        <time>2020-07-09T09:06:58Z</time>
      </trkpt>
      <trkpt lat="46.86988" lon="6.02825">
        <ele>846.2</ele>
        <time>2020-07-09T09:07:03Z</time>
      </trkpt>
      <trkpt lat="46.86991" lon="6.0283">
        <ele>845.2</ele>
        <time>2020-07-09T09:07:10Z</time>
      </trkpt>
      <trkpt lat="46.86994" lon="6.02835">
        <ele>844.6</ele>
        <time>2020-07-09T09:07:13Z</time>
      </trkpt>
      <trkpt lat="46.87019" lon="6.02854">
        <ele>838.9</ele>
        <time>2020-07-09T09:07:41Z</time>
      </trkpt>
      <trkpt lat="46.87022" lon="6.0286">
        <ele>837.9</ele>
        <time>2020-07-09T09:07:50Z</time>
      </trkpt>
      <trkpt lat="46.87026" lon="6.02864">
        <ele>837.4</ele>
        <time>2020-07-09T09:07:55Z</time>
      </trkpt>
      <trkpt lat="46.87028" lon="6.02871">
        <ele>837.1</ele>
        <time>2020-07-09T09:07:58Z</time>
      </trkpt>
      <trkpt lat="46.87029" lon="6.02878">
        <ele>836.4</ele>
        <time>2020-07-09T09:08:02Z</time>
      </trkpt>
      <trkpt lat="46.87031" lon="6.02886">
        <ele>835.5</ele>
        <time>2020-07-09T09:08:06Z</time>
      </trkpt>
      <trkpt lat="46.87035" lon="6.02891">
        <ele>834.8</ele>
        <time>2020-07-09T09:08:09Z</time>
      </trkpt>
      <trkpt lat="46.87039" lon="6.02897">
        <ele>833.9</ele>
        <time>2020-07-09T09:08:13Z</time>
      </trkpt>
      <trkpt lat="46.87041" lon="6.02904">
        <ele>832.8</ele>
        <time>2020-07-09T09:08:19Z</time>
      </trkpt>
      <trkpt lat="46.87042" lon="6.02911">
        <ele>832.2</ele>
        <time>2020-07-09T09:08:25Z</time>
      </trkpt>
      <trkpt lat="46.87045" lon="6.02916">
        <ele>831.8</ele>
        <time>2020-07-09T09:08:31Z</time>
      </trkpt>
      <trkpt lat="46.87049" lon="6.02923">
        <ele>831.3</ele>
        <time>2020-07-09T09:08:37Z</time>
      </trkpt>
      <trkpt lat="46.87051" lon="6.0293">
        <ele>830.9</ele>
        <time>2020-07-09T09:08:40Z</time>
      </trkpt>
      <trkpt lat="46.87053" lon="6.02937">
        <ele>830.5</ele>
        <time>2020-07-09T09:08:44Z</time>
      </trkpt>
      <trkpt lat="46.87057" lon="6.02941">
        <ele>830.3</ele>
        <time>2020-07-09T09:08:47Z</time>
      </trkpt>
      <trkpt lat="46.87072" lon="6.0296">
        <ele>832.9</ele>
        <time>2020-07-09T09:09:10Z</time>
      </trkpt>
      <trkpt lat="46.87076" lon="6.02965">
        <ele>833.3</ele>
        <time>2020-07-09T09:09:14Z</time>
      </trkpt>
      <trkpt lat="46.87081" lon="6.02981">
        <ele>834.3</ele>
        <time>2020-07-09T09:09:24Z</time>
      </trkpt>
      <trkpt lat="46.87085" lon="6.02986">
        <ele>834.3</ele>
        <time>2020-07-09T09:09:28Z</time>
      </trkpt>
      <trkpt lat="46.87089" lon="6.0299">
        <ele>833.8</ele>
        <time>2020-07-09T09:09:34Z</time>
      </trkpt>
      <trkpt lat="46.87093" lon="6.02993">
        <ele>832.2</ele>
        <time>2020-07-09T09:09:42Z</time>
      </trkpt>
      <trkpt lat="46.87096" lon="6.02998">
        <ele>831.4</ele>
        <time>2020-07-09T09:09:48Z</time>
      </trkpt>
      <trkpt lat="46.87099" lon="6.03005">
        <ele>831.9</ele>
        <time>2020-07-09T09:09:58Z</time>
      </trkpt>
      <trkpt lat="46.87097" lon="6.03024">
        <ele>836.2</ele>
        <time>2020-07-09T09:10:12Z</time>
      </trkpt>
      <trkpt lat="46.87094" lon="6.03032">
        <ele>836.7</ele>
        <time>2020-07-09T09:10:17Z</time>
      </trkpt>
      <trkpt lat="46.87089" lon="6.03039">
        <ele>836.9</ele>
        <time>2020-07-09T09:10:21Z</time>
      </trkpt>
      <trkpt lat="46.87086" lon="6.03045">
        <ele>836.8</ele>
        <time>2020-07-09T09:10:24Z</time>
      </trkpt>
      <trkpt lat="46.87083" lon="6.03051">
        <ele>836</ele>
        <time>2020-07-09T09:10:30Z</time>
      </trkpt>
      <trkpt lat="46.87066" lon="6.0307">
        <ele>833.4</ele>
        <time>2020-07-09T09:10:55Z</time>
      </trkpt>
      <trkpt lat="46.8706" lon="6.0307">
        <ele>835</ele>
        <time>2020-07-09T09:11:06Z</time>
      </trkpt>
      <trkpt lat="46.87044" lon="6.03066">
        <ele>834.9</ele>
        <time>2020-07-09T09:11:24Z</time>
      </trkpt>
      <trkpt lat="46.87023" lon="6.03065">
        <ele>833.2</ele>
        <time>2020-07-09T09:11:37Z</time>
      </trkpt>
      <trkpt lat="46.87008" lon="6.03066">
        <ele>835.2</ele>
        <time>2020-07-09T09:11:57Z</time>
      </trkpt>
      <trkpt lat="46.87003" lon="6.03066">
        <ele>835.7</ele>
        <time>2020-07-09T09:12:01Z</time>
      </trkpt>
      <trkpt lat="46.86989" lon="6.03069">
        <ele>838.9</ele>
        <time>2020-07-09T09:12:16Z</time>
      </trkpt>
      <trkpt lat="46.86984" lon="6.0307">
        <ele>839.2</ele>
        <time>2020-07-09T09:12:20Z</time>
      </trkpt>
      <trkpt lat="46.86976" lon="6.03071">
        <ele>839.4</ele>
        <time>2020-07-09T09:12:28Z</time>
      </trkpt>
      <trkpt lat="46.86971" lon="6.03071">
        <ele>839</ele>
        <time>2020-07-09T09:12:34Z</time>
      </trkpt>
      <trkpt lat="46.86966" lon="6.03071">
        <ele>838.8</ele>
        <time>2020-07-09T09:12:39Z</time>
      </trkpt>
      <trkpt lat="46.8696" lon="6.03073">
        <ele>839</ele>
        <time>2020-07-09T09:12:46Z</time>
      </trkpt>
      <trkpt lat="46.86948" lon="6.0307">
        <ele>840.7</ele>
        <time>2020-07-09T09:12:59Z</time>
      </trkpt>
      <trkpt lat="46.86943" lon="6.03069">
        <ele>841.2</ele>
        <time>2020-07-09T09:13:06Z</time>
      </trkpt>
      <trkpt lat="46.86917" lon="6.03079">
        <ele>843.7</ele>
        <time>2020-07-09T09:13:31Z</time>
      </trkpt>
      <trkpt lat="46.86913" lon="6.03076">
        <ele>844.5</ele>
        <time>2020-07-09T09:13:35Z</time>
      </trkpt>
      <trkpt lat="46.86908" lon="6.03074">
        <ele>845.2</ele>
        <time>2020-07-09T09:13:41Z</time>
      </trkpt>
      <trkpt lat="46.86903" lon="6.03072">
        <ele>845.6</ele>
        <time>2020-07-09T09:13:47Z</time>
      </trkpt>
      <trkpt lat="46.86899" lon="6.03067">
        <ele>845.8</ele>
        <time>2020-07-09T09:13:51Z</time>
      </trkpt>
      <trkpt lat="46.86895" lon="6.03064">
        <ele>845.9</ele>
        <time>2020-07-09T09:13:55Z</time>
      </trkpt>
      <trkpt lat="46.8689" lon="6.0306">
        <ele>845.5</ele>
        <time>2020-07-09T09:14:01Z</time>
      </trkpt>
      <trkpt lat="46.86885" lon="6.03058">
        <ele>844.6</ele>
        <time>2020-07-09T09:14:08Z</time>
      </trkpt>
      <trkpt lat="46.86874" lon="6.03053">
        <ele>844.7</ele>
        <time>2020-07-09T09:14:23Z</time>
      </trkpt>
      <trkpt lat="46.86857" lon="6.0303">
        <ele>845.7</ele>
        <time>2020-07-09T09:14:56Z</time>
      </trkpt>
      <trkpt lat="46.86852" lon="6.0303">
        <ele>845.2</ele>
        <time>2020-07-09T09:15:01Z</time>
      </trkpt>
      <trkpt lat="46.86848" lon="6.03031">
        <ele>844.9</ele>
        <time>2020-07-09T09:15:05Z</time>
      </trkpt>
      <trkpt lat="46.86843" lon="6.03029">
        <ele>844.9</ele>
        <time>2020-07-09T09:15:12Z</time>
      </trkpt>
      <trkpt lat="46.86837" lon="6.03026">
        <ele>845</ele>
        <time>2020-07-09T09:15:15Z</time>
      </trkpt>
      <trkpt lat="46.86831" lon="6.0302">
        <ele>845.1</ele>
        <time>2020-07-09T09:15:20Z</time>
      </trkpt>
      <trkpt lat="46.86826" lon="6.03018">
        <ele>844.9</ele>
        <time>2020-07-09T09:15:23Z</time>
      </trkpt>
      <trkpt lat="46.86821" lon="6.03016">
        <ele>844.5</ele>
        <time>2020-07-09T09:15:27Z</time>
      </trkpt>
      <trkpt lat="46.86817" lon="6.03013">
        <ele>844.1</ele>
        <time>2020-07-09T09:15:31Z</time>
      </trkpt>
      <trkpt lat="46.86813" lon="6.03008">
        <ele>843.6</ele>
        <time>2020-07-09T09:15:38Z</time>
      </trkpt>
      <trkpt lat="46.86809" lon="6.03005">
        <ele>843.5</ele>
        <time>2020-07-09T09:15:46Z</time>
      </trkpt>
      <trkpt lat="46.86805" lon="6.03">
        <ele>843.5</ele>
        <time>2020-07-09T09:15:51Z</time>
      </trkpt>
      <trkpt lat="46.86783" lon="6.02962">
        <ele>838.5</ele>
        <time>2020-07-09T09:16:37Z</time>
      </trkpt>
      <trkpt lat="46.86779" lon="6.02958">
        <ele>838.8</ele>
        <time>2020-07-09T09:16:42Z</time>
      </trkpt>
      <trkpt lat="46.86777" lon="6.02952">
        <ele>838.9</ele>
        <time>2020-07-09T09:16:45Z</time>
      </trkpt>
      <trkpt lat="46.86773" lon="6.02948">
        <ele>839.5</ele>
        <time>2020-07-09T09:16:52Z</time>
      </trkpt>
      <trkpt lat="46.86769" lon="6.02945">
        <ele>840.2</ele>
        <time>2020-07-09T09:16:57Z</time>
      </trkpt>
      <trkpt lat="46.86764" lon="6.02946">
        <ele>841.4</ele>
        <time>2020-07-09T09:17:03Z</time>
      </trkpt>
      <trkpt lat="46.8676" lon="6.02943">
        <ele>842.8</ele>
        <time>2020-07-09T09:17:09Z</time>
      </trkpt>
      <trkpt lat="46.86756" lon="6.02938">
        <ele>844.1</ele>
        <time>2020-07-09T09:17:16Z</time>
      </trkpt>
      <trkpt lat="46.86751" lon="6.02937">
        <ele>845.4</ele>
        <time>2020-07-09T09:17:22Z</time>
      </trkpt>
      <trkpt lat="46.86746" lon="6.02937">
        <ele>846.2</ele>
        <time>2020-07-09T09:17:26Z</time>
      </trkpt>
      <trkpt lat="46.86741" lon="6.02935">
        <ele>846.8</ele>
        <time>2020-07-09T09:17:29Z</time>
      </trkpt>
      <trkpt lat="46.86737" lon="6.02934">
        <ele>847.4</ele>
        <time>2020-07-09T09:17:39Z</time>
      </trkpt>
      <trkpt lat="46.86721" lon="6.0293">
        <ele>845.9</ele>
        <time>2020-07-09T09:18:05Z</time>
      </trkpt>
      <trkpt lat="46.8671" lon="6.02931">
        <ele>845.4</ele>
        <time>2020-07-09T09:18:14Z</time>
      </trkpt>
      <trkpt lat="46.86704" lon="6.02937">
        <ele>845.4</ele>
        <time>2020-07-09T09:18:16Z</time>
      </trkpt>
      <trkpt lat="46.86699" lon="6.02941">
        <ele>845.3</ele>
        <time>2020-07-09T09:18:18Z</time>
      </trkpt>
      <trkpt lat="46.86694" lon="6.02943">
        <ele>845.5</ele>
        <time>2020-07-09T09:18:21Z</time>
      </trkpt>
      <trkpt lat="46.86689" lon="6.02944">
        <ele>845.9</ele>
        <time>2020-07-09T09:18:26Z</time>
      </trkpt>
      <trkpt lat="46.86676" lon="6.02948">
        <ele>848.1</ele>
        <time>2020-07-09T09:18:45Z</time>
      </trkpt>
      <trkpt lat="46.86671" lon="6.02949">
        <ele>848.1</ele>
        <time>2020-07-09T09:18:50Z</time>
      </trkpt>
      <trkpt lat="46.86666" lon="6.02952">
        <ele>848</ele>
        <time>2020-07-09T09:18:59Z</time>
      </trkpt>
      <trkpt lat="46.8666" lon="6.02955">
        <ele>847.7</ele>
        <time>2020-07-09T09:19:06Z</time>
      </trkpt>
      <trkpt lat="46.86656" lon="6.02957">
        <ele>847.7</ele>
        <time>2020-07-09T09:19:12Z</time>
      </trkpt>
      <trkpt lat="46.86651" lon="6.02958">
        <ele>847.9</ele>
        <time>2020-07-09T09:19:20Z</time>
      </trkpt>
      <trkpt lat="46.86646" lon="6.02962">
        <ele>847.9</ele>
        <time>2020-07-09T09:19:26Z</time>
      </trkpt>
      <trkpt lat="46.86642" lon="6.02965">
        <ele>847.7</ele>
        <time>2020-07-09T09:19:29Z</time>
      </trkpt>
      <trkpt lat="46.86638" lon="6.02967">
        <ele>847.2</ele>
        <time>2020-07-09T09:19:33Z</time>
      </trkpt>
      <trkpt lat="46.86633" lon="6.0297">
        <ele>846.6</ele>
        <time>2020-07-09T09:19:37Z</time>
      </trkpt>
      <trkpt lat="46.86627" lon="6.02972">
        <ele>846.4</ele>
        <time>2020-07-09T09:19:39Z</time>
      </trkpt>
      <trkpt lat="46.86622" lon="6.02975">
        <ele>846.1</ele>
        <time>2020-07-09T09:19:42Z</time>
      </trkpt>
      <trkpt lat="46.86618" lon="6.02977">
        <ele>845.9</ele>
        <time>2020-07-09T09:19:47Z</time>
      </trkpt>
      <trkpt lat="46.86612" lon="6.0298">
        <ele>845.9</ele>
        <time>2020-07-09T09:19:50Z</time>
      </trkpt>
      <trkpt lat="46.86608" lon="6.02983">
        <ele>846</ele>
        <time>2020-07-09T09:19:53Z</time>
      </trkpt>
      <trkpt lat="46.86604" lon="6.02984">
        <ele>846.1</ele>
        <time>2020-07-09T09:19:57Z</time>
      </trkpt>
      <trkpt lat="46.86599" lon="6.02981">
        <ele>845.9</ele>
        <time>2020-07-09T09:20:02Z</time>
      </trkpt>
      <trkpt lat="46.86594" lon="6.02983">
        <ele>845.4</ele>
        <time>2020-07-09T09:20:06Z</time>
      </trkpt>
      <trkpt lat="46.86589" lon="6.02984">
        <ele>844.6</ele>
        <time>2020-07-09T09:20:13Z</time>
      </trkpt>
      <trkpt lat="46.86583" lon="6.02985">
        <ele>844.4</ele>
        <time>2020-07-09T09:20:19Z</time>
      </trkpt>
      <trkpt lat="46.86578" lon="6.02987">
        <ele>844.4</ele>
        <time>2020-07-09T09:20:22Z</time>
      </trkpt>
      <trkpt lat="46.86573" lon="6.02988">
        <ele>844.4</ele>
        <time>2020-07-09T09:20:27Z</time>
      </trkpt>
      <trkpt lat="46.8656" lon="6.02993">
        <ele>845.1</ele>
        <time>2020-07-09T09:20:36Z</time>
      </trkpt>
      <trkpt lat="46.86556" lon="6.02996">
        <ele>845.2</ele>
        <time>2020-07-09T09:20:38Z</time>
      </trkpt>
      <trkpt lat="46.86551" lon="6.02995">
        <ele>845.2</ele>
        <time>2020-07-09T09:20:44Z</time>
      </trkpt>
      <trkpt lat="46.86546" lon="6.02998">
        <ele>844.5</ele>
        <time>2020-07-09T09:20:52Z</time>
      </trkpt>
      <trkpt lat="46.86538" lon="6.03001">
        <ele>840.9</ele>
        <time>2020-07-09T09:21:09Z</time>
      </trkpt>
      <trkpt lat="46.8652" lon="6.03017">
        <ele>842.3</ele>
        <time>2020-07-09T09:21:23Z</time>
      </trkpt>
      <trkpt lat="46.86516" lon="6.03023">
        <ele>842.9</ele>
        <time>2020-07-09T09:21:27Z</time>
      </trkpt>
      <trkpt lat="46.86502" lon="6.0305">
        <ele>849.2</ele>
        <time>2020-07-09T09:22:04Z</time>
      </trkpt>
      <trkpt lat="46.86501" lon="6.03057">
        <ele>849.7</ele>
        <time>2020-07-09T09:22:07Z</time>
      </trkpt>
      <trkpt lat="46.865" lon="6.03066">
        <ele>850.9</ele>
        <time>2020-07-09T09:22:13Z</time>
      </trkpt>
      <trkpt lat="46.86498" lon="6.03074">
        <ele>851.4</ele>
        <time>2020-07-09T09:22:15Z</time>
      </trkpt>
      <trkpt lat="46.86497" lon="6.03081">
        <ele>851.9</ele>
        <time>2020-07-09T09:22:18Z</time>
      </trkpt>
      <trkpt lat="46.86496" lon="6.0309">
        <ele>852.2</ele>
        <time>2020-07-09T09:22:20Z</time>
      </trkpt>
      <trkpt lat="46.86495" lon="6.03097">
        <ele>852.6</ele>
        <time>2020-07-09T09:22:26Z</time>
      </trkpt>
      <trkpt lat="46.86493" lon="6.03105">
        <ele>852.5</ele>
        <time>2020-07-09T09:22:31Z</time>
      </trkpt>
      <trkpt lat="46.8649" lon="6.03112">
        <ele>852.4</ele>
        <time>2020-07-09T09:22:35Z</time>
      </trkpt>
      <trkpt lat="46.86488" lon="6.03125">
        <ele>851.7</ele>
        <time>2020-07-09T09:22:52Z</time>
      </trkpt>
      <trkpt lat="46.86489" lon="6.03145">
        <ele>851.4</ele>
        <time>2020-07-09T09:23:02Z</time>
      </trkpt>
      <trkpt lat="46.86487" lon="6.03152">
        <ele>851.4</ele>
        <time>2020-07-09T09:23:04Z</time>
      </trkpt>
      <trkpt lat="46.86485" lon="6.03169">
        <ele>851.1</ele>
        <time>2020-07-09T09:23:13Z</time>
      </trkpt>
      <trkpt lat="46.86487" lon="6.03177">
        <ele>851.1</ele>
        <time>2020-07-09T09:23:16Z</time>
      </trkpt>
      <trkpt lat="46.86487" lon="6.03189">
        <ele>851.7</ele>
        <time>2020-07-09T09:23:26Z</time>
      </trkpt>
      <trkpt lat="46.86485" lon="6.03196">
        <ele>851.8</ele>
        <time>2020-07-09T09:23:29Z</time>
      </trkpt>
      <trkpt lat="46.86484" lon="6.03203">
        <ele>851.6</ele>
        <time>2020-07-09T09:23:36Z</time>
      </trkpt>
      <trkpt lat="46.86486" lon="6.0321">
        <ele>851</ele>
        <time>2020-07-09T09:23:41Z</time>
      </trkpt>
      <trkpt lat="46.86487" lon="6.03218">
        <ele>850.4</ele>
        <time>2020-07-09T09:23:46Z</time>
      </trkpt>
      <trkpt lat="46.86488" lon="6.03225">
        <ele>850</ele>
        <time>2020-07-09T09:23:52Z</time>
      </trkpt>
      <trkpt lat="46.86487" lon="6.03232">
        <ele>849.8</ele>
        <time>2020-07-09T09:23:59Z</time>
      </trkpt>
      <trkpt lat="46.8649" lon="6.03238">
        <ele>849.6</ele>
        <time>2020-07-09T09:24:03Z</time>
      </trkpt>
      <trkpt lat="46.86492" lon="6.03245">
        <ele>849.5</ele>
        <time>2020-07-09T09:24:06Z</time>
      </trkpt>
      <trkpt lat="46.86493" lon="6.03254">
        <ele>849.6</ele>
        <time>2020-07-09T09:24:08Z</time>
      </trkpt>
      <trkpt lat="46.86494" lon="6.0326">
        <ele>849.8</ele>
        <time>2020-07-09T09:24:11Z</time>
      </trkpt>
      <trkpt lat="46.86493" lon="6.03267">
        <ele>850.2</ele>
        <time>2020-07-09T09:24:17Z</time>
      </trkpt>
      <trkpt lat="46.86493" lon="6.03274">
        <ele>850.8</ele>
        <time>2020-07-09T09:24:25Z</time>
      </trkpt>
      <trkpt lat="46.86494" lon="6.03281">
        <ele>851</ele>
        <time>2020-07-09T09:24:29Z</time>
      </trkpt>
      <trkpt lat="46.86494" lon="6.03288">
        <ele>850.9</ele>
        <time>2020-07-09T09:24:35Z</time>
      </trkpt>
      <trkpt lat="46.86492" lon="6.03297">
        <ele>850.6</ele>
        <time>2020-07-09T09:24:40Z</time>
      </trkpt>
      <trkpt lat="46.86492" lon="6.03304">
        <ele>850.2</ele>
        <time>2020-07-09T09:24:44Z</time>
      </trkpt>
      <trkpt lat="46.8649" lon="6.03311">
        <ele>850</ele>
        <time>2020-07-09T09:24:48Z</time>
      </trkpt>
      <trkpt lat="46.8649" lon="6.03321">
        <ele>849.8</ele>
        <time>2020-07-09T09:24:53Z</time>
      </trkpt>
      <trkpt lat="46.86489" lon="6.03327">
        <ele>849.8</ele>
        <time>2020-07-09T09:24:55Z</time>
      </trkpt>
      <trkpt lat="46.86488" lon="6.03334">
        <ele>849.8</ele>
        <time>2020-07-09T09:25:01Z</time>
      </trkpt>
      <trkpt lat="46.86485" lon="6.0334">
        <ele>849.8</ele>
        <time>2020-07-09T09:25:07Z</time>
      </trkpt>
      <trkpt lat="46.86482" lon="6.03347">
        <ele>849.9</ele>
        <time>2020-07-09T09:25:11Z</time>
      </trkpt>
      <trkpt lat="46.86478" lon="6.03352">
        <ele>850</ele>
        <time>2020-07-09T09:25:16Z</time>
      </trkpt>
      <trkpt lat="46.86472" lon="6.03355">
        <ele>849</ele>
        <time>2020-07-09T09:25:25Z</time>
      </trkpt>
      <trkpt lat="46.86468" lon="6.03359">
        <ele>848.2</ele>
        <time>2020-07-09T09:25:28Z</time>
      </trkpt>
      <trkpt lat="46.86456" lon="6.03369">
        <ele>844.2</ele>
        <time>2020-07-09T09:25:38Z</time>
      </trkpt>
      <trkpt lat="46.86451" lon="6.0337">
        <ele>842.8</ele>
        <time>2020-07-09T09:25:42Z</time>
      </trkpt>
      <trkpt lat="46.86446" lon="6.03371">
        <ele>841.2</ele>
        <time>2020-07-09T09:25:47Z</time>
      </trkpt>
      <trkpt lat="46.86442" lon="6.0337">
        <ele>839.8</ele>
        <time>2020-07-09T09:25:54Z</time>
      </trkpt>
      <trkpt lat="46.86437" lon="6.03371">
        <ele>839.9</ele>
        <time>2020-07-09T09:26:22Z</time>
      </trkpt>
      <trkpt lat="46.86437" lon="6.03364">
        <ele>840.5</ele>
        <time>2020-07-09T09:26:31Z</time>
      </trkpt>
      <trkpt lat="46.86435" lon="6.03357">
        <ele>840.5</ele>
        <time>2020-07-09T09:26:40Z</time>
      </trkpt>
      <trkpt lat="46.86433" lon="6.03351">
        <ele>839.8</ele>
        <time>2020-07-09T09:26:46Z</time>
      </trkpt>
      <trkpt lat="46.86427" lon="6.03343">
        <ele>836.9</ele>
        <time>2020-07-09T09:27:02Z</time>
      </trkpt>
      <trkpt lat="46.86422" lon="6.03343">
        <ele>834.9</ele>
        <time>2020-07-09T09:27:42Z</time>
      </trkpt>
      <trkpt lat="46.86417" lon="6.03339">
        <ele>832</ele>
        <time>2020-07-09T09:28:20Z</time>
      </trkpt>
      <trkpt lat="46.86411" lon="6.03328">
        <ele>830.9</ele>
        <time>2020-07-09T09:28:30Z</time>
      </trkpt>
      <trkpt lat="46.86408" lon="6.03321">
        <ele>830.9</ele>
        <time>2020-07-09T09:28:33Z</time>
      </trkpt>
      <trkpt lat="46.86404" lon="6.03317">
        <ele>830.4</ele>
        <time>2020-07-09T09:28:41Z</time>
      </trkpt>
      <trkpt lat="46.86399" lon="6.03317">
        <ele>830.1</ele>
        <time>2020-07-09T09:28:43Z</time>
      </trkpt>
      <trkpt lat="46.86394" lon="6.03316">
        <ele>829.3</ele>
        <time>2020-07-09T09:28:47Z</time>
      </trkpt>
      <trkpt lat="46.8639" lon="6.0331">
        <ele>828</ele>
        <time>2020-07-09T09:28:52Z</time>
      </trkpt>
      <trkpt lat="46.86378" lon="6.03301">
        <ele>824.4</ele>
        <time>2020-07-09T09:29:09Z</time>
      </trkpt>
      <trkpt lat="46.86375" lon="6.03295">
        <ele>823.5</ele>
        <time>2020-07-09T09:29:17Z</time>
      </trkpt>
      <trkpt lat="46.86371" lon="6.03292">
        <ele>822.5</ele>
        <time>2020-07-09T09:29:24Z</time>
      </trkpt>
      <trkpt lat="46.86368" lon="6.03286">
        <ele>821.7</ele>
        <time>2020-07-09T09:29:29Z</time>
      </trkpt>
      <trkpt lat="46.86366" lon="6.03279">
        <ele>821.1</ele>
        <time>2020-07-09T09:29:34Z</time>
      </trkpt>
      <trkpt lat="46.86362" lon="6.03274">
        <ele>821.8</ele>
        <time>2020-07-09T09:29:43Z</time>
      </trkpt>
      <trkpt lat="46.86358" lon="6.03269">
        <ele>822.7</ele>
        <time>2020-07-09T09:29:50Z</time>
      </trkpt>
      <trkpt lat="46.86353" lon="6.03267">
        <ele>823.4</ele>
        <time>2020-07-09T09:29:55Z</time>
      </trkpt>
      <trkpt lat="46.86337" lon="6.03246">
        <ele>827.5</ele>
        <time>2020-07-09T09:30:18Z</time>
      </trkpt>
      <trkpt lat="46.86334" lon="6.0324">
        <ele>828.3</ele>
        <time>2020-07-09T09:30:22Z</time>
      </trkpt>
      <trkpt lat="46.8633" lon="6.03235">
        <ele>829.3</ele>
        <time>2020-07-09T09:30:29Z</time>
      </trkpt>
      <trkpt lat="46.86326" lon="6.03231">
        <ele>829.6</ele>
        <time>2020-07-09T09:30:36Z</time>
      </trkpt>
      <trkpt lat="46.86322" lon="6.03224">
        <ele>829.4</ele>
        <time>2020-07-09T09:30:45Z</time>
      </trkpt>
      <trkpt lat="46.8632" lon="6.03217">
        <ele>828.4</ele>
        <time>2020-07-09T09:30:52Z</time>
      </trkpt>
      <trkpt lat="46.86317" lon="6.03211">
        <ele>827.7</ele>
        <time>2020-07-09T09:30:56Z</time>
      </trkpt>
      <trkpt lat="46.86314" lon="6.03206">
        <ele>826.6</ele>
        <time>2020-07-09T09:31:00Z</time>
      </trkpt>
      <trkpt lat="46.8631" lon="6.03202">
        <ele>825.7</ele>
        <time>2020-07-09T09:31:03Z</time>
      </trkpt>
      <trkpt lat="46.86305" lon="6.032">
        <ele>824.3</ele>
        <time>2020-07-09T09:31:07Z</time>
      </trkpt>
      <trkpt lat="46.863" lon="6.03198">
        <ele>823.1</ele>
        <time>2020-07-09T09:31:10Z</time>
      </trkpt>
      <trkpt lat="46.86296" lon="6.03195">
        <ele>821.5</ele>
        <time>2020-07-09T09:31:14Z</time>
      </trkpt>
      <trkpt lat="46.86291" lon="6.03194">
        <ele>819</ele>
        <time>2020-07-09T09:31:22Z</time>
      </trkpt>
      <trkpt lat="46.86286" lon="6.0319">
        <ele>816</ele>
        <time>2020-07-09T09:31:31Z</time>
      </trkpt>
      <trkpt lat="46.86282" lon="6.03188">
        <ele>813.8</ele>
        <time>2020-07-09T09:31:38Z</time>
      </trkpt>
      <trkpt lat="46.86279" lon="6.03183">
        <ele>811.7</ele>
        <time>2020-07-09T09:31:45Z</time>
      </trkpt>
      <trkpt lat="46.86275" lon="6.03177">
        <ele>809.5</ele>
        <time>2020-07-09T09:31:55Z</time>
      </trkpt>
      <trkpt lat="46.8627" lon="6.03174">
        <ele>809.1</ele>
        <time>2020-07-09T09:31:57Z</time>
      </trkpt>
      <trkpt lat="46.86265" lon="6.03172">
        <ele>808.7</ele>
        <time>2020-07-09T09:31:59Z</time>
      </trkpt>
      <trkpt lat="46.8626" lon="6.0317">
        <ele>807.6</ele>
        <time>2020-07-09T09:32:04Z</time>
      </trkpt>
      <trkpt lat="46.86255" lon="6.03169">
        <ele>806.9</ele>
        <time>2020-07-09T09:32:07Z</time>
      </trkpt>
      <trkpt lat="46.8625" lon="6.03166">
        <ele>805.9</ele>
        <time>2020-07-09T09:32:11Z</time>
      </trkpt>
      <trkpt lat="46.86245" lon="6.03165">
        <ele>804.8</ele>
        <time>2020-07-09T09:32:16Z</time>
      </trkpt>
      <trkpt lat="46.86241" lon="6.0316">
        <ele>803</ele>
        <time>2020-07-09T09:32:23Z</time>
      </trkpt>
      <trkpt lat="46.86237" lon="6.03154">
        <ele>802.1</ele>
        <time>2020-07-09T09:32:26Z</time>
      </trkpt>
      <trkpt lat="46.86234" lon="6.0315">
        <ele>800.6</ele>
        <time>2020-07-09T09:32:31Z</time>
      </trkpt>
      <trkpt lat="46.86228" lon="6.03148">
        <ele>798.1</ele>
        <time>2020-07-09T09:32:40Z</time>
      </trkpt>
      <trkpt lat="46.86224" lon="6.03148">
        <ele>797.5</ele>
        <time>2020-07-09T09:32:46Z</time>
      </trkpt>
      <trkpt lat="46.8622" lon="6.03145">
        <ele>798.5</ele>
        <time>2020-07-09T09:32:54Z</time>
      </trkpt>
      <trkpt lat="46.86217" lon="6.03139">
        <ele>800.2</ele>
        <time>2020-07-09T09:33:00Z</time>
      </trkpt>
      <trkpt lat="46.86211" lon="6.03134">
        <ele>801.7</ele>
        <time>2020-07-09T09:33:06Z</time>
      </trkpt>
      <trkpt lat="46.86207" lon="6.03129">
        <ele>803</ele>
        <time>2020-07-09T09:33:10Z</time>
      </trkpt>
      <trkpt lat="46.86204" lon="6.03124">
        <ele>804.5</ele>
        <time>2020-07-09T09:33:14Z</time>
      </trkpt>
      <trkpt lat="46.86202" lon="6.03118">
        <ele>806.1</ele>
        <time>2020-07-09T09:33:18Z</time>
      </trkpt>
      <trkpt lat="46.86191" lon="6.03096">
        <ele>814.5</ele>
        <time>2020-07-09T09:33:38Z</time>
      </trkpt>
      <trkpt lat="46.86187" lon="6.03091">
        <ele>816.4</ele>
        <time>2020-07-09T09:33:44Z</time>
      </trkpt>
      <trkpt lat="46.86182" lon="6.03088">
        <ele>817.3</ele>
        <time>2020-07-09T09:33:47Z</time>
      </trkpt>
      <trkpt lat="46.86176" lon="6.03087">
        <ele>819.3</ele>
        <time>2020-07-09T09:33:54Z</time>
      </trkpt>
      <trkpt lat="46.86172" lon="6.03086">
        <ele>820.4</ele>
        <time>2020-07-09T09:34:01Z</time>
      </trkpt>
      <trkpt lat="46.86168" lon="6.0308">
        <ele>821.1</ele>
        <time>2020-07-09T09:34:09Z</time>
      </trkpt>
      <trkpt lat="46.86166" lon="6.03074">
        <ele>821.6</ele>
        <time>2020-07-09T09:34:14Z</time>
      </trkpt>
      <trkpt lat="46.86161" lon="6.03072">
        <ele>822</ele>
        <time>2020-07-09T09:34:18Z</time>
      </trkpt>
      <trkpt lat="46.86157" lon="6.03067">
        <ele>822.2</ele>
        <time>2020-07-09T09:34:20Z</time>
      </trkpt>
      <trkpt lat="46.86155" lon="6.03061">
        <ele>822.7</ele>
        <time>2020-07-09T09:34:25Z</time>
      </trkpt>
      <trkpt lat="46.86152" lon="6.03056">
        <ele>823.7</ele>
        <time>2020-07-09T09:34:32Z</time>
      </trkpt>
      <trkpt lat="46.86147" lon="6.03051">
        <ele>824.1</ele>
        <time>2020-07-09T09:34:35Z</time>
      </trkpt>
      <trkpt lat="46.86143" lon="6.03046">
        <ele>824.7</ele>
        <time>2020-07-09T09:34:39Z</time>
      </trkpt>
      <trkpt lat="46.86139" lon="6.03042">
        <ele>825.2</ele>
        <time>2020-07-09T09:34:44Z</time>
      </trkpt>
      <trkpt lat="46.86133" lon="6.03037">
        <ele>825.9</ele>
        <time>2020-07-09T09:34:52Z</time>
      </trkpt>
      <trkpt lat="46.86129" lon="6.03031">
        <ele>826.1</ele>
        <time>2020-07-09T09:34:55Z</time>
      </trkpt>
      <trkpt lat="46.86126" lon="6.03023">
        <ele>826.5</ele>
        <time>2020-07-09T09:34:58Z</time>
      </trkpt>
      <trkpt lat="46.86123" lon="6.03017">
        <ele>826.9</ele>
        <time>2020-07-09T09:35:01Z</time>
      </trkpt>
      <trkpt lat="46.86121" lon="6.03011">
        <ele>827.6</ele>
        <time>2020-07-09T09:35:07Z</time>
      </trkpt>
      <trkpt lat="46.86118" lon="6.03005">
        <ele>828.1</ele>
        <time>2020-07-09T09:35:13Z</time>
      </trkpt>
      <trkpt lat="46.86112" lon="6.03002">
        <ele>829.3</ele>
        <time>2020-07-09T09:35:21Z</time>
      </trkpt>
      <trkpt lat="46.86097" lon="6.02999">
        <ele>828.3</ele>
        <time>2020-07-09T09:35:38Z</time>
      </trkpt>
      <trkpt lat="46.86094" lon="6.02995">
        <ele>826.7</ele>
        <time>2020-07-09T09:35:43Z</time>
      </trkpt>
      <trkpt lat="46.8609" lon="6.02991">
        <ele>825.1</ele>
        <time>2020-07-09T09:35:47Z</time>
      </trkpt>
      <trkpt lat="46.86086" lon="6.02989">
        <ele>823.3</ele>
        <time>2020-07-09T09:35:51Z</time>
      </trkpt>
      <trkpt lat="46.86081" lon="6.02984">
        <ele>820.8</ele>
        <time>2020-07-09T09:35:57Z</time>
      </trkpt>
      <trkpt lat="46.86077" lon="6.02981">
        <ele>818.2</ele>
        <time>2020-07-09T09:36:03Z</time>
      </trkpt>
      <trkpt lat="46.86069" lon="6.02981">
        <ele>809.1</ele>
        <time>2020-07-09T09:36:22Z</time>
      </trkpt>
      <trkpt lat="46.86065" lon="6.02978">
        <ele>806.3</ele>
        <time>2020-07-09T09:36:29Z</time>
      </trkpt>
      <trkpt lat="46.86059" lon="6.02978">
        <ele>804.8</ele>
        <time>2020-07-09T09:36:34Z</time>
      </trkpt>
      <trkpt lat="46.86054" lon="6.02978">
        <ele>803.8</ele>
        <time>2020-07-09T09:36:38Z</time>
      </trkpt>
      <trkpt lat="46.86049" lon="6.02978">
        <ele>802.8</ele>
        <time>2020-07-09T09:36:44Z</time>
      </trkpt>
      <trkpt lat="46.8604" lon="6.02974">
        <ele>801.6</ele>
        <time>2020-07-09T09:37:00Z</time>
      </trkpt>
      <trkpt lat="46.86035" lon="6.02968">
        <ele>801.6</ele>
        <time>2020-07-09T09:37:03Z</time>
      </trkpt>
      <trkpt lat="46.86031" lon="6.02963">
        <ele>801.3</ele>
        <time>2020-07-09T09:37:07Z</time>
      </trkpt>
      <trkpt lat="46.86028" lon="6.02959">
        <ele>800.5</ele>
        <time>2020-07-09T09:37:14Z</time>
      </trkpt>
      <trkpt lat="46.86025" lon="6.02954">
        <ele>799.2</ele>
        <time>2020-07-09T09:37:20Z</time>
      </trkpt>
      <trkpt lat="46.8602" lon="6.0295">
        <ele>797.7</ele>
        <time>2020-07-09T09:37:26Z</time>
      </trkpt>
      <trkpt lat="46.86015" lon="6.02948">
        <ele>796.6</ele>
        <time>2020-07-09T09:37:31Z</time>
      </trkpt>
      <trkpt lat="46.86011" lon="6.02946">
        <ele>796</ele>
        <time>2020-07-09T09:37:36Z</time>
      </trkpt>
      <trkpt lat="46.86006" lon="6.02942">
        <ele>796.9</ele>
        <time>2020-07-09T09:37:45Z</time>
      </trkpt>
      <trkpt lat="46.85992" lon="6.02942">
        <ele>799.1</ele>
        <time>2020-07-09T09:38:02Z</time>
      </trkpt>
      <trkpt lat="46.85988" lon="6.02943">
        <ele>801</ele>
        <time>2020-07-09T09:38:10Z</time>
      </trkpt>
      <trkpt lat="46.85983" lon="6.02946">
        <ele>801.8</ele>
        <time>2020-07-09T09:38:13Z</time>
      </trkpt>
      <trkpt lat="46.85965" lon="6.02918">
        <ele>800.1</ele>
        <time>2020-07-09T09:39:40Z</time>
      </trkpt>
      <trkpt lat="46.85959" lon="6.02907">
        <ele>794.8</ele>
        <time>2020-07-09T09:39:52Z</time>
      </trkpt>
      <trkpt lat="46.85951" lon="6.02897">
        <ele>792.3</ele>
        <time>2020-07-09T09:40:04Z</time>
      </trkpt>
      <trkpt lat="46.85946" lon="6.02895">
        <ele>792.1</ele>
        <time>2020-07-09T09:40:08Z</time>
      </trkpt>
      <trkpt lat="46.85942" lon="6.02891">
        <ele>791.9</ele>
        <time>2020-07-09T09:40:12Z</time>
      </trkpt>
      <trkpt lat="46.85937" lon="6.02887">
        <ele>791.8</ele>
        <time>2020-07-09T09:40:14Z</time>
      </trkpt>
      <trkpt lat="46.85933" lon="6.02883">
        <ele>791.7</ele>
        <time>2020-07-09T09:40:17Z</time>
      </trkpt>
      <trkpt lat="46.85928" lon="6.02881">
        <ele>791.6</ele>
        <time>2020-07-09T09:40:21Z</time>
      </trkpt>
      <trkpt lat="46.85924" lon="6.02877">
        <ele>791.1</ele>
        <time>2020-07-09T09:40:26Z</time>
      </trkpt>
      <trkpt lat="46.8592" lon="6.02872">
        <ele>790.7</ele>
        <time>2020-07-09T09:40:30Z</time>
      </trkpt>
      <trkpt lat="46.85908" lon="6.02856">
        <ele>789.9</ele>
        <time>2020-07-09T09:40:45Z</time>
      </trkpt>
      <trkpt lat="46.85905" lon="6.02849">
        <ele>790</ele>
        <time>2020-07-09T09:40:50Z</time>
      </trkpt>
      <trkpt lat="46.85902" lon="6.02844">
        <ele>789.9</ele>
        <time>2020-07-09T09:40:53Z</time>
      </trkpt>
      <trkpt lat="46.85898" lon="6.02839">
        <ele>789.9</ele>
        <time>2020-07-09T09:40:56Z</time>
      </trkpt>
      <trkpt lat="46.85895" lon="6.02834">
        <ele>789.9</ele>
        <time>2020-07-09T09:41:00Z</time>
      </trkpt>
      <trkpt lat="46.8589" lon="6.02831">
        <ele>790</ele>
        <time>2020-07-09T09:41:09Z</time>
      </trkpt>
      <trkpt lat="46.85888" lon="6.02825">
        <ele>789.7</ele>
        <time>2020-07-09T09:41:14Z</time>
      </trkpt>
      <trkpt lat="46.85886" lon="6.02817">
        <ele>789</ele>
        <time>2020-07-09T09:41:20Z</time>
      </trkpt>
      <trkpt lat="46.85885" lon="6.02809">
        <ele>788.5</ele>
        <time>2020-07-09T09:41:26Z</time>
      </trkpt>
      <trkpt lat="46.85884" lon="6.02802">
        <ele>788.2</ele>
        <time>2020-07-09T09:41:32Z</time>
      </trkpt>
      <trkpt lat="46.85882" lon="6.02796">
        <ele>788</ele>
        <time>2020-07-09T09:41:35Z</time>
      </trkpt>
      <trkpt lat="46.85879" lon="6.02789">
        <ele>787.6</ele>
        <time>2020-07-09T09:41:40Z</time>
      </trkpt>
      <trkpt lat="46.85879" lon="6.02782">
        <ele>787</ele>
        <time>2020-07-09T09:41:46Z</time>
      </trkpt>
      <trkpt lat="46.85877" lon="6.02775">
        <ele>786.2</ele>
        <time>2020-07-09T09:41:50Z</time>
      </trkpt>
      <trkpt lat="46.85875" lon="6.02768">
        <ele>784.7</ele>
        <time>2020-07-09T09:41:56Z</time>
      </trkpt>
      <trkpt lat="46.85872" lon="6.02762">
        <ele>783.6</ele>
        <time>2020-07-09T09:42:01Z</time>
      </trkpt>
      <trkpt lat="46.85869" lon="6.02756">
        <ele>783</ele>
        <time>2020-07-09T09:42:05Z</time>
      </trkpt>
      <trkpt lat="46.85865" lon="6.02752">
        <ele>782.2</ele>
        <time>2020-07-09T09:42:11Z</time>
      </trkpt>
      <trkpt lat="46.85862" lon="6.02747">
        <ele>781.6</ele>
        <time>2020-07-09T09:42:17Z</time>
      </trkpt>
      <trkpt lat="46.85854" lon="6.02737">
        <ele>780</ele>
        <time>2020-07-09T09:42:29Z</time>
      </trkpt>
      <trkpt lat="46.85849" lon="6.02734">
        <ele>779.6</ele>
        <time>2020-07-09T09:42:34Z</time>
      </trkpt>
      <trkpt lat="46.85837" lon="6.0273">
        <ele>777.9</ele>
        <time>2020-07-09T09:42:47Z</time>
      </trkpt>
      <trkpt lat="46.85831" lon="6.02729">
        <ele>776.8</ele>
        <time>2020-07-09T09:42:53Z</time>
      </trkpt>
      <trkpt lat="46.85819" lon="6.02737">
        <ele>774.8</ele>
        <time>2020-07-09T09:43:00Z</time>
      </trkpt>
      <trkpt lat="46.85813" lon="6.02739">
        <ele>774.3</ele>
        <time>2020-07-09T09:43:04Z</time>
      </trkpt>
      <trkpt lat="46.85808" lon="6.02738">
        <ele>774</ele>
        <time>2020-07-09T09:43:08Z</time>
      </trkpt>
      <trkpt lat="46.85802" lon="6.02736">
        <ele>774.1</ele>
        <time>2020-07-09T09:43:12Z</time>
      </trkpt>
      <trkpt lat="46.85797" lon="6.02735">
        <ele>774.4</ele>
        <time>2020-07-09T09:43:15Z</time>
      </trkpt>
      <trkpt lat="46.85793" lon="6.02734">
        <ele>774.9</ele>
        <time>2020-07-09T09:43:18Z</time>
      </trkpt>
      <trkpt lat="46.85788" lon="6.02732">
        <ele>775.7</ele>
        <time>2020-07-09T09:43:22Z</time>
      </trkpt>
      <trkpt lat="46.85783" lon="6.02727">
        <ele>776.3</ele>
        <time>2020-07-09T09:43:26Z</time>
      </trkpt>
      <trkpt lat="46.85779" lon="6.02724">
        <ele>776.8</ele>
        <time>2020-07-09T09:43:30Z</time>
      </trkpt>
      <trkpt lat="46.85774" lon="6.02724">
        <ele>777.6</ele>
        <time>2020-07-09T09:43:37Z</time>
      </trkpt>
      <trkpt lat="46.85769" lon="6.02722">
        <ele>778.1</ele>
        <time>2020-07-09T09:43:43Z</time>
      </trkpt>
      <trkpt lat="46.85765" lon="6.0272">
        <ele>778.8</ele>
        <time>2020-07-09T09:43:50Z</time>
      </trkpt>
      <trkpt lat="46.8576" lon="6.02717">
        <ele>779.4</ele>
        <time>2020-07-09T09:43:56Z</time>
      </trkpt>
      <trkpt lat="46.85755" lon="6.02712">
        <ele>779.7</ele>
        <time>2020-07-09T09:44:01Z</time>
      </trkpt>
      <trkpt lat="46.85751" lon="6.0271">
        <ele>779.8</ele>
        <time>2020-07-09T09:44:05Z</time>
      </trkpt>
      <trkpt lat="46.85746" lon="6.02706">
        <ele>779.9</ele>
        <time>2020-07-09T09:44:12Z</time>
      </trkpt>
      <trkpt lat="46.85741" lon="6.02705">
        <ele>780</ele>
        <time>2020-07-09T09:44:17Z</time>
      </trkpt>
      <trkpt lat="46.85735" lon="6.02705">
        <ele>780.1</ele>
        <time>2020-07-09T09:44:22Z</time>
      </trkpt>
      <trkpt lat="46.8573" lon="6.02706">
        <ele>780.3</ele>
        <time>2020-07-09T09:44:27Z</time>
      </trkpt>
      <trkpt lat="46.85726" lon="6.02707">
        <ele>780.8</ele>
        <time>2020-07-09T09:44:31Z</time>
      </trkpt>
      <trkpt lat="46.8572" lon="6.02709">
        <ele>782</ele>
        <time>2020-07-09T09:44:48Z</time>
      </trkpt>
      <trkpt lat="46.85715" lon="6.02714">
        <ele>782.5</ele>
        <time>2020-07-09T09:44:51Z</time>
      </trkpt>
      <trkpt lat="46.85711" lon="6.02716">
        <ele>783.1</ele>
        <time>2020-07-09T09:44:54Z</time>
      </trkpt>
      <trkpt lat="46.85706" lon="6.02715">
        <ele>785.4</ele>
        <time>2020-07-09T09:45:02Z</time>
      </trkpt>
      <trkpt lat="46.85703" lon="6.02721">
        <ele>788.4</ele>
        <time>2020-07-09T09:45:10Z</time>
      </trkpt>
      <trkpt lat="46.857" lon="6.02726">
        <ele>795</ele>
        <time>2020-07-09T09:45:29Z</time>
      </trkpt>
      <trkpt lat="46.85696" lon="6.02729">
        <ele>795.6</ele>
        <time>2020-07-09T09:45:37Z</time>
      </trkpt>
      <trkpt lat="46.857" lon="6.02732">
        <ele>798.6</ele>
        <time>2020-07-09T09:46:08Z</time>
      </trkpt>
      <trkpt lat="46.85696" lon="6.02733">
        <ele>799.1</ele>
        <time>2020-07-09T09:46:28Z</time>
      </trkpt>
      <trkpt lat="46.85691" lon="6.02735">
        <ele>798.7</ele>
        <time>2020-07-09T09:46:35Z</time>
      </trkpt>
      <trkpt lat="46.85686" lon="6.02734">
        <ele>798</ele>
        <time>2020-07-09T09:46:40Z</time>
      </trkpt>
      <trkpt lat="46.85682" lon="6.02735">
        <ele>797.4</ele>
        <time>2020-07-09T09:46:45Z</time>
      </trkpt>
      <trkpt lat="46.85677" lon="6.02738">
        <ele>797.1</ele>
        <time>2020-07-09T09:46:50Z</time>
      </trkpt>
      <trkpt lat="46.85675" lon="6.02744">
        <ele>798</ele>
        <time>2020-07-09T09:47:02Z</time>
      </trkpt>
      <trkpt lat="46.8568" lon="6.02743">
        <ele>798.8</ele>
        <time>2020-07-09T09:47:11Z</time>
      </trkpt>
      <trkpt lat="46.85685" lon="6.02743">
        <ele>799.1</ele>
        <time>2020-07-09T09:47:25Z</time>
      </trkpt>
      <trkpt lat="46.85686" lon="6.02751">
        <ele>799.4</ele>
        <time>2020-07-09T09:47:31Z</time>
      </trkpt>
      <trkpt lat="46.85688" lon="6.02758">
        <ele>799.8</ele>
        <time>2020-07-09T09:47:36Z</time>
      </trkpt>
      <trkpt lat="46.8569" lon="6.02765">
        <ele>799.9</ele>
        <time>2020-07-09T09:47:43Z</time>
      </trkpt>
      <trkpt lat="46.85691" lon="6.02772">
        <ele>800.5</ele>
        <time>2020-07-09T09:47:54Z</time>
      </trkpt>
      <trkpt lat="46.85692" lon="6.02779">
        <ele>800.7</ele>
        <time>2020-07-09T09:47:59Z</time>
      </trkpt>
      <trkpt lat="46.85693" lon="6.02786">
        <ele>800.8</ele>
        <time>2020-07-09T09:48:03Z</time>
      </trkpt>
      <trkpt lat="46.85695" lon="6.02792">
        <ele>801.2</ele>
        <time>2020-07-09T09:48:08Z</time>
      </trkpt>
      <trkpt lat="46.85697" lon="6.02799">
        <ele>801.4</ele>
        <time>2020-07-09T09:48:13Z</time>
      </trkpt>
      <trkpt lat="46.85698" lon="6.02806">
        <ele>801.6</ele>
        <time>2020-07-09T09:48:18Z</time>
      </trkpt>
      <trkpt lat="46.85699" lon="6.02814">
        <ele>801.8</ele>
        <time>2020-07-09T09:48:23Z</time>
      </trkpt>
      <trkpt lat="46.85701" lon="6.02822">
        <ele>802</ele>
        <time>2020-07-09T09:48:28Z</time>
      </trkpt>
      <trkpt lat="46.85703" lon="6.02828">
        <ele>802.2</ele>
        <time>2020-07-09T09:48:32Z</time>
      </trkpt>
      <trkpt lat="46.85705" lon="6.02835">
        <ele>802.4</ele>
        <time>2020-07-09T09:48:37Z</time>
      </trkpt>
      <trkpt lat="46.85706" lon="6.02842">
        <ele>802.6</ele>
        <time>2020-07-09T09:48:41Z</time>
      </trkpt>
      <trkpt lat="46.85708" lon="6.02849">
        <ele>802.9</ele>
        <time>2020-07-09T09:48:46Z</time>
      </trkpt>
      <trkpt lat="46.85708" lon="6.02857">
        <ele>803.2</ele>
        <time>2020-07-09T09:48:50Z</time>
      </trkpt>
      <trkpt lat="46.85709" lon="6.02863">
        <ele>803.5</ele>
        <time>2020-07-09T09:48:56Z</time>
      </trkpt>
      <trkpt lat="46.85711" lon="6.0287">
        <ele>803.6</ele>
        <time>2020-07-09T09:49:01Z</time>
      </trkpt>
      <trkpt lat="46.85712" lon="6.02877">
        <ele>803.5</ele>
        <time>2020-07-09T09:49:05Z</time>
      </trkpt>
      <trkpt lat="46.85713" lon="6.02884">
        <ele>803.5</ele>
        <time>2020-07-09T09:49:11Z</time>
      </trkpt>
      <trkpt lat="46.85713" lon="6.02891">
        <ele>803.9</ele>
        <time>2020-07-09T09:49:16Z</time>
      </trkpt>
      <trkpt lat="46.85713" lon="6.02899">
        <ele>804.3</ele>
        <time>2020-07-09T09:49:21Z</time>
      </trkpt>
      <trkpt lat="46.85713" lon="6.02907">
        <ele>804.9</ele>
        <time>2020-07-09T09:49:27Z</time>
      </trkpt>
      <trkpt lat="46.85712" lon="6.02915">
        <ele>805.3</ele>
        <time>2020-07-09T09:49:33Z</time>
      </trkpt>
      <trkpt lat="46.8571" lon="6.02921">
        <ele>805.7</ele>
        <time>2020-07-09T09:49:38Z</time>
      </trkpt>
      <trkpt lat="46.85708" lon="6.02927">
        <ele>806.1</ele>
        <time>2020-07-09T09:49:43Z</time>
      </trkpt>
      <trkpt lat="46.85707" lon="6.02934">
        <ele>806.8</ele>
        <time>2020-07-09T09:49:49Z</time>
      </trkpt>
      <trkpt lat="46.85706" lon="6.02941">
        <ele>807.4</ele>
        <time>2020-07-09T09:49:54Z</time>
      </trkpt>
      <trkpt lat="46.85705" lon="6.02948">
        <ele>807.8</ele>
        <time>2020-07-09T09:49:58Z</time>
      </trkpt>
      <trkpt lat="46.85703" lon="6.02954">
        <ele>808.4</ele>
        <time>2020-07-09T09:50:02Z</time>
      </trkpt>
      <trkpt lat="46.85703" lon="6.02962">
        <ele>809.1</ele>
        <time>2020-07-09T09:50:07Z</time>
      </trkpt>
      <trkpt lat="46.85702" lon="6.0297">
        <ele>809.5</ele>
        <time>2020-07-09T09:50:11Z</time>
      </trkpt>
      <trkpt lat="46.857" lon="6.02977">
        <ele>809.8</ele>
        <time>2020-07-09T09:50:15Z</time>
      </trkpt>
      <trkpt lat="46.857" lon="6.02984">
        <ele>810</ele>
        <time>2020-07-09T09:50:19Z</time>
      </trkpt>
      <trkpt lat="46.857" lon="6.0299">
        <ele>810.2</ele>
        <time>2020-07-09T09:50:24Z</time>
      </trkpt>
      <trkpt lat="46.85699" lon="6.02997">
        <ele>810.4</ele>
        <time>2020-07-09T09:50:29Z</time>
      </trkpt>
      <trkpt lat="46.85698" lon="6.03004">
        <ele>810.7</ele>
        <time>2020-07-09T09:50:34Z</time>
      </trkpt>
      <trkpt lat="46.85696" lon="6.03011">
        <ele>811.1</ele>
        <time>2020-07-09T09:50:39Z</time>
      </trkpt>
      <trkpt lat="46.85695" lon="6.03018">
        <ele>811.6</ele>
        <time>2020-07-09T09:50:44Z</time>
      </trkpt>
      <trkpt lat="46.85693" lon="6.03026">
        <ele>812.3</ele>
        <time>2020-07-09T09:50:49Z</time>
      </trkpt>
      <trkpt lat="46.85691" lon="6.03033">
        <ele>812.8</ele>
        <time>2020-07-09T09:50:54Z</time>
      </trkpt>
      <trkpt lat="46.8569" lon="6.03039">
        <ele>813.4</ele>
        <time>2020-07-09T09:51:00Z</time>
      </trkpt>
      <trkpt lat="46.85688" lon="6.03047">
        <ele>813.8</ele>
        <time>2020-07-09T09:51:07Z</time>
      </trkpt>
      <trkpt lat="46.85687" lon="6.03054">
        <ele>813.8</ele>
        <time>2020-07-09T09:51:11Z</time>
      </trkpt>
      <trkpt lat="46.85687" lon="6.03061">
        <ele>813.5</ele>
        <time>2020-07-09T09:51:16Z</time>
      </trkpt>
      <trkpt lat="46.85687" lon="6.03069">
        <ele>813.1</ele>
        <time>2020-07-09T09:51:22Z</time>
      </trkpt>
      <trkpt lat="46.85686" lon="6.03076">
        <ele>812.9</ele>
        <time>2020-07-09T09:51:26Z</time>
      </trkpt>
      <trkpt lat="46.85685" lon="6.03084">
        <ele>812.6</ele>
        <time>2020-07-09T09:51:30Z</time>
      </trkpt>
      <trkpt lat="46.85683" lon="6.03091">
        <ele>812.2</ele>
        <time>2020-07-09T09:51:34Z</time>
      </trkpt>
      <trkpt lat="46.85682" lon="6.03098">
        <ele>811.8</ele>
        <time>2020-07-09T09:51:38Z</time>
      </trkpt>
      <trkpt lat="46.85681" lon="6.03105">
        <ele>811.6</ele>
        <time>2020-07-09T09:51:43Z</time>
      </trkpt>
      <trkpt lat="46.8568" lon="6.03112">
        <ele>811.6</ele>
        <time>2020-07-09T09:51:48Z</time>
      </trkpt>
      <trkpt lat="46.85677" lon="6.03119">
        <ele>811.6</ele>
        <time>2020-07-09T09:51:55Z</time>
      </trkpt>
      <trkpt lat="46.85675" lon="6.03127">
        <ele>811.6</ele>
        <time>2020-07-09T09:52:01Z</time>
      </trkpt>
      <trkpt lat="46.85674" lon="6.03135">
        <ele>811.6</ele>
        <time>2020-07-09T09:52:06Z</time>
      </trkpt>
      <trkpt lat="46.85674" lon="6.03141">
        <ele>811.6</ele>
        <time>2020-07-09T09:52:10Z</time>
      </trkpt>
      <trkpt lat="46.85672" lon="6.03149">
        <ele>811.7</ele>
        <time>2020-07-09T09:52:14Z</time>
      </trkpt>
      <trkpt lat="46.85672" lon="6.03157">
        <ele>811.7</ele>
        <time>2020-07-09T09:52:19Z</time>
      </trkpt>
      <trkpt lat="46.85671" lon="6.03164">
        <ele>811.7</ele>
        <time>2020-07-09T09:52:24Z</time>
      </trkpt>
      <trkpt lat="46.8567" lon="6.03171">
        <ele>811.5</ele>
        <time>2020-07-09T09:52:29Z</time>
      </trkpt>
      <trkpt lat="46.8567" lon="6.03179">
        <ele>811.3</ele>
        <time>2020-07-09T09:52:34Z</time>
      </trkpt>
      <trkpt lat="46.85669" lon="6.03187">
        <ele>811.1</ele>
        <time>2020-07-09T09:52:39Z</time>
      </trkpt>
      <trkpt lat="46.85668" lon="6.03194">
        <ele>811</ele>
        <time>2020-07-09T09:52:43Z</time>
      </trkpt>
      <trkpt lat="46.85667" lon="6.03202">
        <ele>811</ele>
        <time>2020-07-09T09:52:47Z</time>
      </trkpt>
      <trkpt lat="46.85666" lon="6.03209">
        <ele>811.1</ele>
        <time>2020-07-09T09:52:51Z</time>
      </trkpt>
      <trkpt lat="46.85666" lon="6.03216">
        <ele>811.1</ele>
        <time>2020-07-09T09:52:55Z</time>
      </trkpt>
      <trkpt lat="46.85666" lon="6.03223">
        <ele>811</ele>
        <time>2020-07-09T09:53:00Z</time>
      </trkpt>
      <trkpt lat="46.85666" lon="6.0323">
        <ele>811.1</ele>
        <time>2020-07-09T09:53:05Z</time>
      </trkpt>
      <trkpt lat="46.85665" lon="6.03237">
        <ele>811.3</ele>
        <time>2020-07-09T09:53:09Z</time>
      </trkpt>
      <trkpt lat="46.85663" lon="6.03244">
        <ele>811.3</ele>
        <time>2020-07-09T09:53:13Z</time>
      </trkpt>
      <trkpt lat="46.85662" lon="6.03251">
        <ele>811.1</ele>
        <time>2020-07-09T09:53:18Z</time>
      </trkpt>
      <trkpt lat="46.85661" lon="6.03259">
        <ele>810.9</ele>
        <time>2020-07-09T09:53:24Z</time>
      </trkpt>
      <trkpt lat="46.85661" lon="6.03267">
        <ele>810.7</ele>
        <time>2020-07-09T09:53:29Z</time>
      </trkpt>
      <trkpt lat="46.85661" lon="6.03275">
        <ele>810.5</ele>
        <time>2020-07-09T09:53:33Z</time>
      </trkpt>
      <trkpt lat="46.85661" lon="6.03281">
        <ele>810.4</ele>
        <time>2020-07-09T09:53:37Z</time>
      </trkpt>
      <trkpt lat="46.8566" lon="6.03289">
        <ele>810.4</ele>
        <time>2020-07-09T09:53:42Z</time>
      </trkpt>
      <trkpt lat="46.85659" lon="6.03297">
        <ele>810.4</ele>
        <time>2020-07-09T09:53:48Z</time>
      </trkpt>
      <trkpt lat="46.85656" lon="6.03315">
        <ele>811.1</ele>
        <time>2020-07-09T09:54:02Z</time>
      </trkpt>
      <trkpt lat="46.85655" lon="6.03322">
        <ele>811.6</ele>
        <time>2020-07-09T09:54:08Z</time>
      </trkpt>
      <trkpt lat="46.85655" lon="6.0333">
        <ele>812.6</ele>
        <time>2020-07-09T09:54:15Z</time>
      </trkpt>
      <trkpt lat="46.85655" lon="6.03337">
        <ele>813.1</ele>
        <time>2020-07-09T09:54:20Z</time>
      </trkpt>
      <trkpt lat="46.85654" lon="6.03345">
        <ele>813.3</ele>
        <time>2020-07-09T09:54:24Z</time>
      </trkpt>
      <trkpt lat="46.85654" lon="6.03352">
        <ele>813.2</ele>
        <time>2020-07-09T09:54:29Z</time>
      </trkpt>
      <trkpt lat="46.85654" lon="6.03359">
        <ele>813</ele>
        <time>2020-07-09T09:54:34Z</time>
      </trkpt>
      <trkpt lat="46.85654" lon="6.03367">
        <ele>813</ele>
        <time>2020-07-09T09:54:39Z</time>
      </trkpt>
      <trkpt lat="46.85652" lon="6.03374">
        <ele>813.3</ele>
        <time>2020-07-09T09:54:45Z</time>
      </trkpt>
      <trkpt lat="46.8565" lon="6.03381">
        <ele>813.7</ele>
        <time>2020-07-09T09:54:50Z</time>
      </trkpt>
      <trkpt lat="46.85649" lon="6.03388">
        <ele>814</ele>
        <time>2020-07-09T09:54:56Z</time>
      </trkpt>
      <trkpt lat="46.85647" lon="6.03394">
        <ele>814.1</ele>
        <time>2020-07-09T09:55:01Z</time>
      </trkpt>
      <trkpt lat="46.85645" lon="6.034">
        <ele>814</ele>
        <time>2020-07-09T09:55:06Z</time>
      </trkpt>
      <trkpt lat="46.85641" lon="6.03405">
        <ele>813.8</ele>
        <time>2020-07-09T09:55:11Z</time>
      </trkpt>
      <trkpt lat="46.85638" lon="6.0341">
        <ele>813.8</ele>
        <time>2020-07-09T09:55:17Z</time>
      </trkpt>
      <trkpt lat="46.85635" lon="6.03416">
        <ele>813.9</ele>
        <time>2020-07-09T09:55:21Z</time>
      </trkpt>
      <trkpt lat="46.85633" lon="6.03422">
        <ele>814.1</ele>
        <time>2020-07-09T09:55:26Z</time>
      </trkpt>
      <trkpt lat="46.85631" lon="6.03429">
        <ele>814.3</ele>
        <time>2020-07-09T09:55:37Z</time>
      </trkpt>
      <trkpt lat="46.85626" lon="6.03433">
        <ele>813.6</ele>
        <time>2020-07-09T09:55:45Z</time>
      </trkpt>
      <trkpt lat="46.85622" lon="6.03438">
        <ele>812.9</ele>
        <time>2020-07-09T09:55:50Z</time>
      </trkpt>
      <trkpt lat="46.85618" lon="6.03442">
        <ele>812.2</ele>
        <time>2020-07-09T09:55:55Z</time>
      </trkpt>
      <trkpt lat="46.85615" lon="6.03447">
        <ele>811.5</ele>
        <time>2020-07-09T09:56:01Z</time>
      </trkpt>
      <trkpt lat="46.85611" lon="6.03453">
        <ele>811</ele>
        <time>2020-07-09T09:56:06Z</time>
      </trkpt>
      <trkpt lat="46.85608" lon="6.03458">
        <ele>810.7</ele>
        <time>2020-07-09T09:56:11Z</time>
      </trkpt>
      <trkpt lat="46.85604" lon="6.03463">
        <ele>810.4</ele>
        <time>2020-07-09T09:56:15Z</time>
      </trkpt>
      <trkpt lat="46.85601" lon="6.03468">
        <ele>809.6</ele>
        <time>2020-07-09T09:56:21Z</time>
      </trkpt>
      <trkpt lat="46.85598" lon="6.03474">
        <ele>808.9</ele>
        <time>2020-07-09T09:56:26Z</time>
      </trkpt>
      <trkpt lat="46.85595" lon="6.0348">
        <ele>808.4</ele>
        <time>2020-07-09T09:56:31Z</time>
      </trkpt>
      <trkpt lat="46.85593" lon="6.03486">
        <ele>808</ele>
        <time>2020-07-09T09:56:36Z</time>
      </trkpt>
      <trkpt lat="46.8559" lon="6.03491">
        <ele>807.8</ele>
        <time>2020-07-09T09:56:41Z</time>
      </trkpt>
      <trkpt lat="46.85588" lon="6.03498">
        <ele>807.6</ele>
        <time>2020-07-09T09:56:46Z</time>
      </trkpt>
      <trkpt lat="46.85584" lon="6.03505">
        <ele>807.3</ele>
        <time>2020-07-09T09:56:50Z</time>
      </trkpt>
      <trkpt lat="46.85581" lon="6.03511">
        <ele>807</ele>
        <time>2020-07-09T09:56:54Z</time>
      </trkpt>
      <trkpt lat="46.85578" lon="6.03518">
        <ele>806.6</ele>
        <time>2020-07-09T09:56:58Z</time>
      </trkpt>
      <trkpt lat="46.85575" lon="6.03523">
        <ele>806.3</ele>
        <time>2020-07-09T09:57:02Z</time>
      </trkpt>
      <trkpt lat="46.85572" lon="6.03529">
        <ele>806</ele>
        <time>2020-07-09T09:57:09Z</time>
      </trkpt>
      <trkpt lat="46.85569" lon="6.03536">
        <ele>806</ele>
        <time>2020-07-09T09:57:13Z</time>
      </trkpt>
      <trkpt lat="46.85567" lon="6.03542">
        <ele>806.1</ele>
        <time>2020-07-09T09:57:16Z</time>
      </trkpt>
      <trkpt lat="46.85564" lon="6.03548">
        <ele>806.3</ele>
        <time>2020-07-09T09:57:20Z</time>
      </trkpt>
      <trkpt lat="46.85562" lon="6.03554">
        <ele>806.5</ele>
        <time>2020-07-09T09:57:25Z</time>
      </trkpt>
      <trkpt lat="46.8556" lon="6.03562">
        <ele>806.4</ele>
        <time>2020-07-09T09:57:30Z</time>
      </trkpt>
      <trkpt lat="46.85558" lon="6.03569">
        <ele>806.2</ele>
        <time>2020-07-09T09:57:34Z</time>
      </trkpt>
      <trkpt lat="46.85556" lon="6.03576">
        <ele>806.1</ele>
        <time>2020-07-09T09:57:37Z</time>
      </trkpt>
      <trkpt lat="46.85552" lon="6.03582">
        <ele>805.8</ele>
        <time>2020-07-09T09:57:41Z</time>
      </trkpt>
      <trkpt lat="46.8555" lon="6.0359">
        <ele>805.6</ele>
        <time>2020-07-09T09:57:45Z</time>
      </trkpt>
      <trkpt lat="46.85547" lon="6.03596">
        <ele>805.3</ele>
        <time>2020-07-09T09:57:50Z</time>
      </trkpt>
      <trkpt lat="46.85544" lon="6.03602">
        <ele>805</ele>
        <time>2020-07-09T09:57:55Z</time>
      </trkpt>
      <trkpt lat="46.85541" lon="6.03609">
        <ele>804.8</ele>
        <time>2020-07-09T09:57:59Z</time>
      </trkpt>
      <trkpt lat="46.85538" lon="6.03614">
        <ele>804.7</ele>
        <time>2020-07-09T09:58:04Z</time>
      </trkpt>
      <trkpt lat="46.85535" lon="6.03621">
        <ele>804.6</ele>
        <time>2020-07-09T09:58:09Z</time>
      </trkpt>
      <trkpt lat="46.85532" lon="6.03627">
        <ele>804.5</ele>
        <time>2020-07-09T09:58:15Z</time>
      </trkpt>
      <trkpt lat="46.85528" lon="6.03631">
        <ele>804.7</ele>
        <time>2020-07-09T09:58:21Z</time>
      </trkpt>
      <trkpt lat="46.85523" lon="6.03634">
        <ele>804.8</ele>
        <time>2020-07-09T09:58:28Z</time>
      </trkpt>
      <trkpt lat="46.8552" lon="6.0364">
        <ele>804.8</ele>
        <time>2020-07-09T09:58:33Z</time>
      </trkpt>
      <trkpt lat="46.85517" lon="6.03646">
        <ele>804.7</ele>
        <time>2020-07-09T09:58:38Z</time>
      </trkpt>
      <trkpt lat="46.85513" lon="6.03652">
        <ele>804.8</ele>
        <time>2020-07-09T09:58:42Z</time>
      </trkpt>
      <trkpt lat="46.8551" lon="6.03658">
        <ele>805</ele>
        <time>2020-07-09T09:58:46Z</time>
      </trkpt>
      <trkpt lat="46.85507" lon="6.03663">
        <ele>805.2</ele>
        <time>2020-07-09T09:58:50Z</time>
      </trkpt>
      <trkpt lat="46.85504" lon="6.03669">
        <ele>805.5</ele>
        <time>2020-07-09T09:58:55Z</time>
      </trkpt>
      <trkpt lat="46.855" lon="6.03675">
        <ele>805.9</ele>
        <time>2020-07-09T09:58:59Z</time>
      </trkpt>
      <trkpt lat="46.85498" lon="6.03681">
        <ele>806.5</ele>
        <time>2020-07-09T09:59:03Z</time>
      </trkpt>
      <trkpt lat="46.85495" lon="6.03688">
        <ele>807.2</ele>
        <time>2020-07-09T09:59:09Z</time>
      </trkpt>
      <trkpt lat="46.85492" lon="6.03694">
        <ele>807.8</ele>
        <time>2020-07-09T09:59:13Z</time>
      </trkpt>
      <trkpt lat="46.85489" lon="6.037">
        <ele>808.4</ele>
        <time>2020-07-09T09:59:19Z</time>
      </trkpt>
      <trkpt lat="46.85486" lon="6.03706">
        <ele>808.6</ele>
        <time>2020-07-09T09:59:23Z</time>
      </trkpt>
      <trkpt lat="46.85484" lon="6.03714">
        <ele>808.9</ele>
        <time>2020-07-09T09:59:27Z</time>
      </trkpt>
      <trkpt lat="46.85481" lon="6.0372">
        <ele>809.1</ele>
        <time>2020-07-09T09:59:31Z</time>
      </trkpt>
      <trkpt lat="46.85478" lon="6.03727">
        <ele>809.3</ele>
        <time>2020-07-09T09:59:36Z</time>
      </trkpt>
      <trkpt lat="46.85476" lon="6.03732">
        <ele>809.5</ele>
        <time>2020-07-09T09:59:40Z</time>
      </trkpt>
      <trkpt lat="46.85473" lon="6.03739">
        <ele>809.7</ele>
        <time>2020-07-09T09:59:44Z</time>
      </trkpt>
      <trkpt lat="46.85472" lon="6.03746">
        <ele>809.9</ele>
        <time>2020-07-09T09:59:48Z</time>
      </trkpt>
      <trkpt lat="46.85469" lon="6.03752">
        <ele>810.2</ele>
        <time>2020-07-09T09:59:53Z</time>
      </trkpt>
      <trkpt lat="46.85468" lon="6.03759">
        <ele>810.6</ele>
        <time>2020-07-09T09:59:58Z</time>
      </trkpt>
      <trkpt lat="46.85465" lon="6.03766">
        <ele>810.9</ele>
        <time>2020-07-09T10:00:02Z</time>
      </trkpt>
      <trkpt lat="46.85463" lon="6.03773">
        <ele>811.3</ele>
        <time>2020-07-09T10:00:07Z</time>
      </trkpt>
      <trkpt lat="46.85461" lon="6.0378">
        <ele>811.4</ele>
        <time>2020-07-09T10:00:12Z</time>
      </trkpt>
      <trkpt lat="46.85459" lon="6.03786">
        <ele>811.5</ele>
        <time>2020-07-09T10:00:16Z</time>
      </trkpt>
      <trkpt lat="46.85457" lon="6.03794">
        <ele>811.5</ele>
        <time>2020-07-09T10:00:20Z</time>
      </trkpt>
      <trkpt lat="46.85456" lon="6.03801">
        <ele>811.2</ele>
        <time>2020-07-09T10:00:25Z</time>
      </trkpt>
      <trkpt lat="46.85454" lon="6.03807">
        <ele>810.9</ele>
        <time>2020-07-09T10:00:30Z</time>
      </trkpt>
      <trkpt lat="46.85452" lon="6.03814">
        <ele>810.7</ele>
        <time>2020-07-09T10:00:34Z</time>
      </trkpt>
      <trkpt lat="46.85449" lon="6.0382">
        <ele>810.6</ele>
        <time>2020-07-09T10:00:38Z</time>
      </trkpt>
      <trkpt lat="46.85447" lon="6.03826">
        <ele>810.6</ele>
        <time>2020-07-09T10:00:42Z</time>
      </trkpt>
      <trkpt lat="46.85444" lon="6.03831">
        <ele>810.9</ele>
        <time>2020-07-09T10:00:47Z</time>
      </trkpt>
      <trkpt lat="46.85442" lon="6.03837">
        <ele>811</ele>
        <time>2020-07-09T10:00:51Z</time>
      </trkpt>
      <trkpt lat="46.85441" lon="6.03844">
        <ele>811</ele>
        <time>2020-07-09T10:00:55Z</time>
      </trkpt>
      <trkpt lat="46.85439" lon="6.03852">
        <ele>810.8</ele>
        <time>2020-07-09T10:01:00Z</time>
      </trkpt>
      <trkpt lat="46.85438" lon="6.0386">
        <ele>810.4</ele>
        <time>2020-07-09T10:01:04Z</time>
      </trkpt>
      <trkpt lat="46.85436" lon="6.03866">
        <ele>810</ele>
        <time>2020-07-09T10:01:07Z</time>
      </trkpt>
      <trkpt lat="46.85435" lon="6.03873">
        <ele>809.9</ele>
        <time>2020-07-09T10:01:11Z</time>
      </trkpt>
      <trkpt lat="46.85433" lon="6.03881">
        <ele>809.8</ele>
        <time>2020-07-09T10:01:15Z</time>
      </trkpt>
      <trkpt lat="46.85431" lon="6.03888">
        <ele>809.9</ele>
        <time>2020-07-09T10:01:19Z</time>
      </trkpt>
      <trkpt lat="46.8543" lon="6.03895">
        <ele>810</ele>
        <time>2020-07-09T10:01:23Z</time>
      </trkpt>
      <trkpt lat="46.85427" lon="6.039">
        <ele>809.8</ele>
        <time>2020-07-09T10:01:28Z</time>
      </trkpt>
      <trkpt lat="46.85425" lon="6.03906">
        <ele>809.4</ele>
        <time>2020-07-09T10:01:33Z</time>
      </trkpt>
      <trkpt lat="46.85422" lon="6.03913">
        <ele>809</ele>
        <time>2020-07-09T10:01:38Z</time>
      </trkpt>
      <trkpt lat="46.85419" lon="6.03918">
        <ele>808.2</ele>
        <time>2020-07-09T10:01:43Z</time>
      </trkpt>
      <trkpt lat="46.85417" lon="6.03925">
        <ele>807.3</ele>
        <time>2020-07-09T10:01:49Z</time>
      </trkpt>
      <trkpt lat="46.85415" lon="6.03932">
        <ele>806.7</ele>
        <time>2020-07-09T10:01:54Z</time>
      </trkpt>
      <trkpt lat="46.85413" lon="6.0394">
        <ele>806.3</ele>
        <time>2020-07-09T10:01:59Z</time>
      </trkpt>
      <trkpt lat="46.85411" lon="6.03946">
        <ele>806</ele>
        <time>2020-07-09T10:02:04Z</time>
      </trkpt>
      <trkpt lat="46.85409" lon="6.03953">
        <ele>805.7</ele>
        <time>2020-07-09T10:02:10Z</time>
      </trkpt>
      <trkpt lat="46.85407" lon="6.03959">
        <ele>805.7</ele>
        <time>2020-07-09T10:02:14Z</time>
      </trkpt>
      <trkpt lat="46.85405" lon="6.03966">
        <ele>805.7</ele>
        <time>2020-07-09T10:02:18Z</time>
      </trkpt>
      <trkpt lat="46.85403" lon="6.03975">
        <ele>805.8</ele>
        <time>2020-07-09T10:02:22Z</time>
      </trkpt>
      <trkpt lat="46.85403" lon="6.03982">
        <ele>806</ele>
        <time>2020-07-09T10:02:25Z</time>
      </trkpt>
      <trkpt lat="46.85404" lon="6.03989">
        <ele>806.2</ele>
        <time>2020-07-09T10:02:28Z</time>
      </trkpt>
      <trkpt lat="46.85405" lon="6.03996">
        <ele>806.4</ele>
        <time>2020-07-09T10:02:30Z</time>
      </trkpt>
      <trkpt lat="46.85407" lon="6.04004">
        <ele>806.7</ele>
        <time>2020-07-09T10:02:34Z</time>
      </trkpt>
      <trkpt lat="46.85407" lon="6.04012">
        <ele>806.9</ele>
        <time>2020-07-09T10:02:38Z</time>
      </trkpt>
      <trkpt lat="46.85409" lon="6.0402">
        <ele>807.3</ele>
        <time>2020-07-09T10:02:42Z</time>
      </trkpt>
      <trkpt lat="46.8541" lon="6.04027">
        <ele>807.7</ele>
        <time>2020-07-09T10:02:46Z</time>
      </trkpt>
      <trkpt lat="46.85414" lon="6.04033">
        <ele>808.3</ele>
        <time>2020-07-09T10:02:52Z</time>
      </trkpt>
      <trkpt lat="46.85417" lon="6.04038">
        <ele>808.6</ele>
        <time>2020-07-09T10:02:57Z</time>
      </trkpt>
      <trkpt lat="46.8542" lon="6.04044">
        <ele>809</ele>
        <time>2020-07-09T10:03:02Z</time>
      </trkpt>
      <trkpt lat="46.85422" lon="6.04052">
        <ele>809.4</ele>
        <time>2020-07-09T10:03:07Z</time>
      </trkpt>
      <trkpt lat="46.85424" lon="6.04057">
        <ele>809.5</ele>
        <time>2020-07-09T10:03:12Z</time>
      </trkpt>
      <trkpt lat="46.85428" lon="6.04062">
        <ele>809.7</ele>
        <time>2020-07-09T10:03:17Z</time>
      </trkpt>
      <trkpt lat="46.85432" lon="6.04066">
        <ele>810</ele>
        <time>2020-07-09T10:03:22Z</time>
      </trkpt>
      <trkpt lat="46.85434" lon="6.04072">
        <ele>810.3</ele>
        <time>2020-07-09T10:03:27Z</time>
      </trkpt>
      <trkpt lat="46.85436" lon="6.04079">
        <ele>810.6</ele>
        <time>2020-07-09T10:03:36Z</time>
      </trkpt>
      <trkpt lat="46.85439" lon="6.04085">
        <ele>810.9</ele>
        <time>2020-07-09T10:03:42Z</time>
      </trkpt>
      <trkpt lat="46.85442" lon="6.04091">
        <ele>811.1</ele>
        <time>2020-07-09T10:03:46Z</time>
      </trkpt>
      <trkpt lat="46.85446" lon="6.04096">
        <ele>811.3</ele>
        <time>2020-07-09T10:03:52Z</time>
      </trkpt>
      <trkpt lat="46.85449" lon="6.04102">
        <ele>811.3</ele>
        <time>2020-07-09T10:03:57Z</time>
      </trkpt>
      <trkpt lat="46.85453" lon="6.04107">
        <ele>811.3</ele>
        <time>2020-07-09T10:04:02Z</time>
      </trkpt>
      <trkpt lat="46.85458" lon="6.0411">
        <ele>811</ele>
        <time>2020-07-09T10:04:06Z</time>
      </trkpt>
      <trkpt lat="46.85462" lon="6.04116">
        <ele>810.8</ele>
        <time>2020-07-09T10:04:09Z</time>
      </trkpt>
      <trkpt lat="46.85472" lon="6.04131">
        <ele>810.2</ele>
        <time>2020-07-09T10:04:21Z</time>
      </trkpt>
      <trkpt lat="46.85477" lon="6.04135">
        <ele>810.4</ele>
        <time>2020-07-09T10:04:25Z</time>
      </trkpt>
      <trkpt lat="46.85482" lon="6.04137">
        <ele>810.7</ele>
        <time>2020-07-09T10:04:29Z</time>
      </trkpt>
      <trkpt lat="46.85487" lon="6.0414">
        <ele>811.1</ele>
        <time>2020-07-09T10:04:35Z</time>
      </trkpt>
      <trkpt lat="46.85492" lon="6.04142">
        <ele>811.3</ele>
        <time>2020-07-09T10:04:40Z</time>
      </trkpt>
      <trkpt lat="46.85496" lon="6.04145">
        <ele>811.2</ele>
        <time>2020-07-09T10:04:44Z</time>
      </trkpt>
      <trkpt lat="46.85502" lon="6.04147">
        <ele>811.2</ele>
        <time>2020-07-09T10:04:49Z</time>
      </trkpt>
      <trkpt lat="46.85507" lon="6.0415">
        <ele>811.3</ele>
        <time>2020-07-09T10:04:54Z</time>
      </trkpt>
      <trkpt lat="46.85511" lon="6.04152">
        <ele>811.3</ele>
        <time>2020-07-09T10:04:58Z</time>
      </trkpt>
      <trkpt lat="46.85517" lon="6.04155">
        <ele>811.4</ele>
        <time>2020-07-09T10:05:03Z</time>
      </trkpt>
      <trkpt lat="46.85521" lon="6.04159">
        <ele>811.4</ele>
        <time>2020-07-09T10:05:07Z</time>
      </trkpt>
      <trkpt lat="46.85524" lon="6.04163">
        <ele>811.5</ele>
        <time>2020-07-09T10:05:12Z</time>
      </trkpt>
      <trkpt lat="46.85528" lon="6.04169">
        <ele>811.6</ele>
        <time>2020-07-09T10:05:17Z</time>
      </trkpt>
      <trkpt lat="46.85532" lon="6.04173">
        <ele>811.5</ele>
        <time>2020-07-09T10:05:23Z</time>
      </trkpt>
      <trkpt lat="46.85535" lon="6.04178">
        <ele>810.5</ele>
        <time>2020-07-09T10:05:31Z</time>
      </trkpt>
      <trkpt lat="46.85538" lon="6.04184">
        <ele>809.8</ele>
        <time>2020-07-09T10:05:36Z</time>
      </trkpt>
      <trkpt lat="46.85543" lon="6.04189">
        <ele>809.4</ele>
        <time>2020-07-09T10:05:40Z</time>
      </trkpt>
      <trkpt lat="46.85547" lon="6.04193">
        <ele>809.1</ele>
        <time>2020-07-09T10:05:45Z</time>
      </trkpt>
      <trkpt lat="46.85551" lon="6.04196">
        <ele>809.1</ele>
        <time>2020-07-09T10:05:51Z</time>
      </trkpt>
      <trkpt lat="46.85555" lon="6.042">
        <ele>809.2</ele>
        <time>2020-07-09T10:05:56Z</time>
      </trkpt>
      <trkpt lat="46.85559" lon="6.04204">
        <ele>809.3</ele>
        <time>2020-07-09T10:06:00Z</time>
      </trkpt>
      <trkpt lat="46.85562" lon="6.0421">
        <ele>809.5</ele>
        <time>2020-07-09T10:06:04Z</time>
      </trkpt>
      <trkpt lat="46.85565" lon="6.04216">
        <ele>809.7</ele>
        <time>2020-07-09T10:06:09Z</time>
      </trkpt>
      <trkpt lat="46.85569" lon="6.04219">
        <ele>809.9</ele>
        <time>2020-07-09T10:06:13Z</time>
      </trkpt>
      <trkpt lat="46.85574" lon="6.04224">
        <ele>809.9</ele>
        <time>2020-07-09T10:06:17Z</time>
      </trkpt>
      <trkpt lat="46.85577" lon="6.04228">
        <ele>810.1</ele>
        <time>2020-07-09T10:06:21Z</time>
      </trkpt>
      <trkpt lat="46.85581" lon="6.04233">
        <ele>810.2</ele>
        <time>2020-07-09T10:06:26Z</time>
      </trkpt>
      <trkpt lat="46.85585" lon="6.04237">
        <ele>810.4</ele>
        <time>2020-07-09T10:06:31Z</time>
      </trkpt>
      <trkpt lat="46.8559" lon="6.0424">
        <ele>810.5</ele>
        <time>2020-07-09T10:06:35Z</time>
      </trkpt>
      <trkpt lat="46.85594" lon="6.04245">
        <ele>810.3</ele>
        <time>2020-07-09T10:06:39Z</time>
      </trkpt>
      <trkpt lat="46.85598" lon="6.04249">
        <ele>810.1</ele>
        <time>2020-07-09T10:06:44Z</time>
      </trkpt>
      <trkpt lat="46.85601" lon="6.04255">
        <ele>810</ele>
        <time>2020-07-09T10:06:51Z</time>
      </trkpt>
      <trkpt lat="46.85604" lon="6.04261">
        <ele>809.8</ele>
        <time>2020-07-09T10:06:58Z</time>
      </trkpt>
      <trkpt lat="46.85608" lon="6.04267">
        <ele>809.6</ele>
        <time>2020-07-09T10:07:03Z</time>
      </trkpt>
      <trkpt lat="46.85611" lon="6.04271">
        <ele>809.5</ele>
        <time>2020-07-09T10:07:06Z</time>
      </trkpt>
      <trkpt lat="46.85615" lon="6.04276">
        <ele>809.3</ele>
        <time>2020-07-09T10:07:10Z</time>
      </trkpt>
      <trkpt lat="46.85619" lon="6.0428">
        <ele>809.1</ele>
        <time>2020-07-09T10:07:16Z</time>
      </trkpt>
      <trkpt lat="46.85623" lon="6.04284">
        <ele>809</ele>
        <time>2020-07-09T10:07:21Z</time>
      </trkpt>
      <trkpt lat="46.85627" lon="6.04289">
        <ele>809.1</ele>
        <time>2020-07-09T10:07:25Z</time>
      </trkpt>
      <trkpt lat="46.8563" lon="6.04294">
        <ele>809.3</ele>
        <time>2020-07-09T10:07:30Z</time>
      </trkpt>
      <trkpt lat="46.85632" lon="6.043">
        <ele>809.4</ele>
        <time>2020-07-09T10:07:34Z</time>
      </trkpt>
      <trkpt lat="46.85634" lon="6.04306">
        <ele>809.5</ele>
        <time>2020-07-09T10:07:39Z</time>
      </trkpt>
      <trkpt lat="46.85636" lon="6.04312">
        <ele>809.5</ele>
        <time>2020-07-09T10:07:44Z</time>
      </trkpt>
      <trkpt lat="46.85639" lon="6.04318">
        <ele>809.5</ele>
        <time>2020-07-09T10:07:49Z</time>
      </trkpt>
      <trkpt lat="46.85643" lon="6.04323">
        <ele>809.6</ele>
        <time>2020-07-09T10:07:53Z</time>
      </trkpt>
      <trkpt lat="46.85647" lon="6.04329">
        <ele>809.5</ele>
        <time>2020-07-09T10:07:57Z</time>
      </trkpt>
      <trkpt lat="46.8565" lon="6.04334">
        <ele>809.5</ele>
        <time>2020-07-09T10:08:02Z</time>
      </trkpt>
      <trkpt lat="46.85653" lon="6.04341">
        <ele>809.5</ele>
        <time>2020-07-09T10:08:07Z</time>
      </trkpt>
      <trkpt lat="46.85656" lon="6.04346">
        <ele>809.3</ele>
        <time>2020-07-09T10:08:11Z</time>
      </trkpt>
      <trkpt lat="46.85659" lon="6.04352">
        <ele>809.1</ele>
        <time>2020-07-09T10:08:16Z</time>
      </trkpt>
      <trkpt lat="46.85662" lon="6.04357">
        <ele>808.7</ele>
        <time>2020-07-09T10:08:22Z</time>
      </trkpt>
      <trkpt lat="46.85665" lon="6.04363">
        <ele>808.3</ele>
        <time>2020-07-09T10:08:27Z</time>
      </trkpt>
      <trkpt lat="46.85668" lon="6.04369">
        <ele>808</ele>
        <time>2020-07-09T10:08:32Z</time>
      </trkpt>
      <trkpt lat="46.85671" lon="6.04375">
        <ele>807.7</ele>
        <time>2020-07-09T10:08:37Z</time>
      </trkpt>
      <trkpt lat="46.85674" lon="6.04381">
        <ele>807.8</ele>
        <time>2020-07-09T10:08:41Z</time>
      </trkpt>
      <trkpt lat="46.85677" lon="6.04386">
        <ele>807.9</ele>
        <time>2020-07-09T10:08:45Z</time>
      </trkpt>
      <trkpt lat="46.85679" lon="6.04393">
        <ele>807.8</ele>
        <time>2020-07-09T10:08:51Z</time>
      </trkpt>
      <trkpt lat="46.85682" lon="6.04401">
        <ele>807.6</ele>
        <time>2020-07-09T10:08:56Z</time>
      </trkpt>
      <trkpt lat="46.85684" lon="6.04407">
        <ele>807.4</ele>
        <time>2020-07-09T10:09:00Z</time>
      </trkpt>
      <trkpt lat="46.85687" lon="6.04413">
        <ele>807.3</ele>
        <time>2020-07-09T10:09:06Z</time>
      </trkpt>
      <trkpt lat="46.85689" lon="6.0442">
        <ele>807.3</ele>
        <time>2020-07-09T10:09:12Z</time>
      </trkpt>
      <trkpt lat="46.85691" lon="6.04427">
        <ele>807.1</ele>
        <time>2020-07-09T10:09:17Z</time>
      </trkpt>
      <trkpt lat="46.85693" lon="6.04433">
        <ele>806.9</ele>
        <time>2020-07-09T10:09:21Z</time>
      </trkpt>
      <trkpt lat="46.85696" lon="6.0444">
        <ele>806.6</ele>
        <time>2020-07-09T10:09:26Z</time>
      </trkpt>
      <trkpt lat="46.85698" lon="6.04447">
        <ele>806.4</ele>
        <time>2020-07-09T10:09:30Z</time>
      </trkpt>
      <trkpt lat="46.857" lon="6.04453">
        <ele>806.2</ele>
        <time>2020-07-09T10:09:34Z</time>
      </trkpt>
      <trkpt lat="46.85702" lon="6.04459">
        <ele>806.1</ele>
        <time>2020-07-09T10:09:39Z</time>
      </trkpt>
      <trkpt lat="46.85706" lon="6.04465">
        <ele>805.9</ele>
        <time>2020-07-09T10:09:44Z</time>
      </trkpt>
      <trkpt lat="46.85709" lon="6.04469">
        <ele>805.8</ele>
        <time>2020-07-09T10:09:48Z</time>
      </trkpt>
      <trkpt lat="46.85712" lon="6.04477">
        <ele>805.9</ele>
        <time>2020-07-09T10:09:53Z</time>
      </trkpt>
      <trkpt lat="46.85715" lon="6.04484">
        <ele>806.2</ele>
        <time>2020-07-09T10:09:58Z</time>
      </trkpt>
      <trkpt lat="46.85718" lon="6.0449">
        <ele>806.5</ele>
        <time>2020-07-09T10:10:03Z</time>
      </trkpt>
      <trkpt lat="46.85722" lon="6.04497">
        <ele>806.6</ele>
        <time>2020-07-09T10:10:09Z</time>
      </trkpt>
      <trkpt lat="46.85724" lon="6.04504">
        <ele>806.6</ele>
        <time>2020-07-09T10:10:14Z</time>
      </trkpt>
      <trkpt lat="46.85727" lon="6.0451">
        <ele>806.4</ele>
        <time>2020-07-09T10:10:18Z</time>
      </trkpt>
      <trkpt lat="46.85731" lon="6.04516">
        <ele>806.4</ele>
        <time>2020-07-09T10:10:22Z</time>
      </trkpt>
      <trkpt lat="46.85734" lon="6.04521">
        <ele>806.4</ele>
        <time>2020-07-09T10:10:26Z</time>
      </trkpt>
      <trkpt lat="46.85735" lon="6.04528">
        <ele>806.6</ele>
        <time>2020-07-09T10:10:31Z</time>
      </trkpt>
      <trkpt lat="46.85739" lon="6.04534">
        <ele>807.2</ele>
        <time>2020-07-09T10:10:37Z</time>
      </trkpt>
      <trkpt lat="46.85741" lon="6.04541">
        <ele>807.7</ele>
        <time>2020-07-09T10:10:41Z</time>
      </trkpt>
      <trkpt lat="46.85742" lon="6.04547">
        <ele>808.1</ele>
        <time>2020-07-09T10:10:44Z</time>
      </trkpt>
      <trkpt lat="46.85741" lon="6.04554">
        <ele>808.5</ele>
        <time>2020-07-09T10:10:48Z</time>
      </trkpt>
      <trkpt lat="46.85739" lon="6.0456">
        <ele>809</ele>
        <time>2020-07-09T10:10:56Z</time>
      </trkpt>
      <trkpt lat="46.85737" lon="6.04566">
        <ele>809.7</ele>
        <time>2020-07-09T10:11:07Z</time>
      </trkpt>
      <trkpt lat="46.85734" lon="6.04571">
        <ele>810.4</ele>
        <time>2020-07-09T10:11:15Z</time>
      </trkpt>
      <trkpt lat="46.85729" lon="6.04582">
        <ele>819.5</ele>
        <time>2020-07-09T10:59:25Z</time>
      </trkpt>
      <trkpt lat="46.85728" lon="6.04589">
        <ele>817.5</ele>
        <time>2020-07-09T10:59:33Z</time>
      </trkpt>
      <trkpt lat="46.85714" lon="6.04604">
        <ele>816.7</ele>
        <time>2020-07-09T11:00:26Z</time>
      </trkpt>
      <trkpt lat="46.8571" lon="6.04608">
        <ele>816.7</ele>
        <time>2020-07-09T11:00:33Z</time>
      </trkpt>
      <trkpt lat="46.85707" lon="6.04612">
        <ele>816.4</ele>
        <time>2020-07-09T11:00:37Z</time>
      </trkpt>
      <trkpt lat="46.85699" lon="6.04621">
        <ele>815</ele>
        <time>2020-07-09T11:00:49Z</time>
      </trkpt>
      <trkpt lat="46.85694" lon="6.04623">
        <ele>814.8</ele>
        <time>2020-07-09T11:00:52Z</time>
      </trkpt>
      <trkpt lat="46.85688" lon="6.04625">
        <ele>814.9</ele>
        <time>2020-07-09T11:00:55Z</time>
      </trkpt>
      <trkpt lat="46.85682" lon="6.04626">
        <ele>815</ele>
        <time>2020-07-09T11:00:59Z</time>
      </trkpt>
      <trkpt lat="46.85668" lon="6.04636">
        <ele>817.7</ele>
        <time>2020-07-09T11:01:11Z</time>
      </trkpt>
      <trkpt lat="46.85664" lon="6.04638">
        <ele>819.1</ele>
        <time>2020-07-09T11:01:17Z</time>
      </trkpt>
      <trkpt lat="46.85659" lon="6.04642">
        <ele>820.7</ele>
        <time>2020-07-09T11:01:24Z</time>
      </trkpt>
      <trkpt lat="46.85655" lon="6.04641">
        <ele>822.2</ele>
        <time>2020-07-09T11:01:30Z</time>
      </trkpt>
      <trkpt lat="46.8565" lon="6.04642">
        <ele>823.5</ele>
        <time>2020-07-09T11:01:35Z</time>
      </trkpt>
      <trkpt lat="46.85645" lon="6.04644">
        <ele>824.3</ele>
        <time>2020-07-09T11:01:40Z</time>
      </trkpt>
      <trkpt lat="46.85635" lon="6.0465">
        <ele>824.2</ele>
        <time>2020-07-09T11:01:57Z</time>
      </trkpt>
      <trkpt lat="46.8563" lon="6.04653">
        <ele>824</ele>
        <time>2020-07-09T11:02:00Z</time>
      </trkpt>
      <trkpt lat="46.85627" lon="6.04657">
        <ele>823.9</ele>
        <time>2020-07-09T11:02:04Z</time>
      </trkpt>
      <trkpt lat="46.8561" lon="6.04664">
        <ele>822</ele>
        <time>2020-07-09T11:02:20Z</time>
      </trkpt>
      <trkpt lat="46.85606" lon="6.04669">
        <ele>821.7</ele>
        <time>2020-07-09T11:02:25Z</time>
      </trkpt>
      <trkpt lat="46.85602" lon="6.04674">
        <ele>821.4</ele>
        <time>2020-07-09T11:02:29Z</time>
      </trkpt>
      <trkpt lat="46.85599" lon="6.04679">
        <ele>821.1</ele>
        <time>2020-07-09T11:02:33Z</time>
      </trkpt>
      <trkpt lat="46.85595" lon="6.04685">
        <ele>820.9</ele>
        <time>2020-07-09T11:02:37Z</time>
      </trkpt>
      <trkpt lat="46.8559" lon="6.04689">
        <ele>820.9</ele>
        <time>2020-07-09T11:02:40Z</time>
      </trkpt>
      <trkpt lat="46.85586" lon="6.04692">
        <ele>821.2</ele>
        <time>2020-07-09T11:02:44Z</time>
      </trkpt>
      <trkpt lat="46.85581" lon="6.04695">
        <ele>821.7</ele>
        <time>2020-07-09T11:02:48Z</time>
      </trkpt>
      <trkpt lat="46.8557" lon="6.04699">
        <ele>825</ele>
        <time>2020-07-09T11:02:57Z</time>
      </trkpt>
      <trkpt lat="46.85565" lon="6.04699">
        <ele>826.1</ele>
        <time>2020-07-09T11:03:01Z</time>
      </trkpt>
      <trkpt lat="46.85557" lon="6.04707">
        <ele>828.9</ele>
        <time>2020-07-09T11:03:12Z</time>
      </trkpt>
      <trkpt lat="46.85553" lon="6.04714">
        <ele>829.4</ele>
        <time>2020-07-09T11:03:18Z</time>
      </trkpt>
      <trkpt lat="46.8555" lon="6.04721">
        <ele>829.5</ele>
        <time>2020-07-09T11:03:20Z</time>
      </trkpt>
      <trkpt lat="46.85548" lon="6.04728">
        <ele>829.5</ele>
        <time>2020-07-09T11:03:22Z</time>
      </trkpt>
      <trkpt lat="46.85545" lon="6.04734">
        <ele>829.2</ele>
        <time>2020-07-09T11:03:27Z</time>
      </trkpt>
      <trkpt lat="46.85542" lon="6.0474">
        <ele>828.6</ele>
        <time>2020-07-09T11:03:34Z</time>
      </trkpt>
      <trkpt lat="46.85537" lon="6.04753">
        <ele>827</ele>
        <time>2020-07-09T11:03:47Z</time>
      </trkpt>
      <trkpt lat="46.85532" lon="6.04757">
        <ele>826.6</ele>
        <time>2020-07-09T11:04:05Z</time>
      </trkpt>
      <trkpt lat="46.85528" lon="6.04761">
        <ele>826.1</ele>
        <time>2020-07-09T11:04:09Z</time>
      </trkpt>
      <trkpt lat="46.85525" lon="6.04767">
        <ele>825.6</ele>
        <time>2020-07-09T11:04:13Z</time>
      </trkpt>
      <trkpt lat="46.8552" lon="6.0477">
        <ele>825.3</ele>
        <time>2020-07-09T11:04:16Z</time>
      </trkpt>
      <trkpt lat="46.85516" lon="6.04774">
        <ele>825.3</ele>
        <time>2020-07-09T11:04:20Z</time>
      </trkpt>
      <trkpt lat="46.85513" lon="6.0478">
        <ele>825.5</ele>
        <time>2020-07-09T11:04:25Z</time>
      </trkpt>
      <trkpt lat="46.8551" lon="6.04784">
        <ele>826.1</ele>
        <time>2020-07-09T11:04:30Z</time>
      </trkpt>
      <trkpt lat="46.85507" lon="6.0479">
        <ele>826.9</ele>
        <time>2020-07-09T11:04:37Z</time>
      </trkpt>
      <trkpt lat="46.85499" lon="6.04799">
        <ele>826.5</ele>
        <time>2020-07-09T11:05:32Z</time>
      </trkpt>
      <trkpt lat="46.85495" lon="6.04804">
        <ele>826.3</ele>
        <time>2020-07-09T11:05:34Z</time>
      </trkpt>
      <trkpt lat="46.85491" lon="6.04809">
        <ele>826.1</ele>
        <time>2020-07-09T11:05:37Z</time>
      </trkpt>
      <trkpt lat="46.85481" lon="6.04826">
        <ele>826.4</ele>
        <time>2020-07-09T11:05:53Z</time>
      </trkpt>
      <trkpt lat="46.85476" lon="6.04832">
        <ele>826.8</ele>
        <time>2020-07-09T11:05:57Z</time>
      </trkpt>
      <trkpt lat="46.85472" lon="6.04836">
        <ele>827.4</ele>
        <time>2020-07-09T11:06:01Z</time>
      </trkpt>
      <trkpt lat="46.85467" lon="6.04839">
        <ele>827.8</ele>
        <time>2020-07-09T11:06:04Z</time>
      </trkpt>
      <trkpt lat="46.85463" lon="6.04842">
        <ele>828.4</ele>
        <time>2020-07-09T11:06:10Z</time>
      </trkpt>
      <trkpt lat="46.8546" lon="6.04849">
        <ele>828.5</ele>
        <time>2020-07-09T11:06:16Z</time>
      </trkpt>
      <trkpt lat="46.85454" lon="6.04854">
        <ele>828.4</ele>
        <time>2020-07-09T11:06:21Z</time>
      </trkpt>
      <trkpt lat="46.8545" lon="6.04858">
        <ele>828.2</ele>
        <time>2020-07-09T11:06:25Z</time>
      </trkpt>
      <trkpt lat="46.85447" lon="6.04863">
        <ele>827.8</ele>
        <time>2020-07-09T11:06:29Z</time>
      </trkpt>
      <trkpt lat="46.85445" lon="6.0487">
        <ele>827.6</ele>
        <time>2020-07-09T11:06:32Z</time>
      </trkpt>
      <trkpt lat="46.85443" lon="6.04877">
        <ele>827</ele>
        <time>2020-07-09T11:06:36Z</time>
      </trkpt>
      <trkpt lat="46.8544" lon="6.04883">
        <ele>826.7</ele>
        <time>2020-07-09T11:06:38Z</time>
      </trkpt>
      <trkpt lat="46.85437" lon="6.04889">
        <ele>826</ele>
        <time>2020-07-09T11:06:41Z</time>
      </trkpt>
      <trkpt lat="46.85433" lon="6.04895">
        <ele>825.1</ele>
        <time>2020-07-09T11:06:45Z</time>
      </trkpt>
      <trkpt lat="46.8543" lon="6.049">
        <ele>824.1</ele>
        <time>2020-07-09T11:06:49Z</time>
      </trkpt>
      <trkpt lat="46.85416" lon="6.0492">
        <ele>824.4</ele>
        <time>2020-07-09T11:07:11Z</time>
      </trkpt>
      <trkpt lat="46.85413" lon="6.04924">
        <ele>824.5</ele>
        <time>2020-07-09T11:07:13Z</time>
      </trkpt>
      <trkpt lat="46.85403" lon="6.04936">
        <ele>824.8</ele>
        <time>2020-07-09T11:07:22Z</time>
      </trkpt>
      <trkpt lat="46.85398" lon="6.04939">
        <ele>824.8</ele>
        <time>2020-07-09T11:07:25Z</time>
      </trkpt>
      <trkpt lat="46.85393" lon="6.04942">
        <ele>824.9</ele>
        <time>2020-07-09T11:07:28Z</time>
      </trkpt>
      <trkpt lat="46.85387" lon="6.04944">
        <ele>825.2</ele>
        <time>2020-07-09T11:07:31Z</time>
      </trkpt>
      <trkpt lat="46.85382" lon="6.04943">
        <ele>825.6</ele>
        <time>2020-07-09T11:07:34Z</time>
      </trkpt>
      <trkpt lat="46.85378" lon="6.04942">
        <ele>826.3</ele>
        <time>2020-07-09T11:07:37Z</time>
      </trkpt>
      <trkpt lat="46.85372" lon="6.04941">
        <ele>827.2</ele>
        <time>2020-07-09T11:07:42Z</time>
      </trkpt>
      <trkpt lat="46.85367" lon="6.04939">
        <ele>828.1</ele>
        <time>2020-07-09T11:07:46Z</time>
      </trkpt>
      <trkpt lat="46.85362" lon="6.04936">
        <ele>828.7</ele>
        <time>2020-07-09T11:07:50Z</time>
      </trkpt>
      <trkpt lat="46.85358" lon="6.04932">
        <ele>829</ele>
        <time>2020-07-09T11:07:53Z</time>
      </trkpt>
      <trkpt lat="46.85348" lon="6.04925">
        <ele>829.3</ele>
        <time>2020-07-09T11:08:00Z</time>
      </trkpt>
      <trkpt lat="46.85342" lon="6.04925">
        <ele>829.3</ele>
        <time>2020-07-09T11:08:03Z</time>
      </trkpt>
      <trkpt lat="46.85337" lon="6.04924">
        <ele>829.5</ele>
        <time>2020-07-09T11:08:06Z</time>
      </trkpt>
      <trkpt lat="46.85332" lon="6.04923">
        <ele>829.7</ele>
        <time>2020-07-09T11:08:09Z</time>
      </trkpt>
      <trkpt lat="46.85327" lon="6.04921">
        <ele>830</ele>
        <time>2020-07-09T11:08:12Z</time>
      </trkpt>
      <trkpt lat="46.85322" lon="6.04917">
        <ele>830.6</ele>
        <time>2020-07-09T11:08:16Z</time>
      </trkpt>
      <trkpt lat="46.85317" lon="6.04914">
        <ele>831.2</ele>
        <time>2020-07-09T11:08:19Z</time>
      </trkpt>
      <trkpt lat="46.85313" lon="6.04909">
        <ele>832</ele>
        <time>2020-07-09T11:08:23Z</time>
      </trkpt>
      <trkpt lat="46.85309" lon="6.04905">
        <ele>833</ele>
        <time>2020-07-09T11:08:27Z</time>
      </trkpt>
      <trkpt lat="46.85304" lon="6.04902">
        <ele>833.7</ele>
        <time>2020-07-09T11:08:30Z</time>
      </trkpt>
      <trkpt lat="46.853" lon="6.049">
        <ele>834.4</ele>
        <time>2020-07-09T11:08:33Z</time>
      </trkpt>
      <trkpt lat="46.85296" lon="6.04895">
        <ele>835.2</ele>
        <time>2020-07-09T11:08:40Z</time>
      </trkpt>
      <trkpt lat="46.85286" lon="6.04881">
        <ele>835.2</ele>
        <time>2020-07-09T11:08:53Z</time>
      </trkpt>
      <trkpt lat="46.85282" lon="6.04877">
        <ele>835</ele>
        <time>2020-07-09T11:08:56Z</time>
      </trkpt>
      <trkpt lat="46.85277" lon="6.04875">
        <ele>835</ele>
        <time>2020-07-09T11:09:01Z</time>
      </trkpt>
      <trkpt lat="46.85271" lon="6.04872">
        <ele>835.4</ele>
        <time>2020-07-09T11:09:06Z</time>
      </trkpt>
      <trkpt lat="46.85266" lon="6.0487">
        <ele>835.6</ele>
        <time>2020-07-09T11:09:08Z</time>
      </trkpt>
      <trkpt lat="46.85261" lon="6.04867">
        <ele>836</ele>
        <time>2020-07-09T11:09:11Z</time>
      </trkpt>
      <trkpt lat="46.85255" lon="6.04863">
        <ele>836.6</ele>
        <time>2020-07-09T11:09:16Z</time>
      </trkpt>
      <trkpt lat="46.85251" lon="6.0486">
        <ele>836.8</ele>
        <time>2020-07-09T11:09:19Z</time>
      </trkpt>
      <trkpt lat="46.85246" lon="6.04859">
        <ele>837.1</ele>
        <time>2020-07-09T11:09:24Z</time>
      </trkpt>
      <trkpt lat="46.85241" lon="6.04857">
        <ele>837.2</ele>
        <time>2020-07-09T11:09:28Z</time>
      </trkpt>
      <trkpt lat="46.85233" lon="6.04849">
        <ele>837.8</ele>
        <time>2020-07-09T11:09:36Z</time>
      </trkpt>
      <trkpt lat="46.8523" lon="6.04844">
        <ele>838.2</ele>
        <time>2020-07-09T11:09:42Z</time>
      </trkpt>
      <trkpt lat="46.85216" lon="6.04829">
        <ele>839.4</ele>
        <time>2020-07-09T11:10:07Z</time>
      </trkpt>
      <trkpt lat="46.85212" lon="6.04827">
        <ele>839.3</ele>
        <time>2020-07-09T11:10:12Z</time>
      </trkpt>
      <trkpt lat="46.85203" lon="6.04817">
        <ele>838.5</ele>
        <time>2020-07-09T11:10:22Z</time>
      </trkpt>
      <trkpt lat="46.852" lon="6.0481">
        <ele>838</ele>
        <time>2020-07-09T11:10:26Z</time>
      </trkpt>
      <trkpt lat="46.85197" lon="6.04804">
        <ele>837.7</ele>
        <time>2020-07-09T11:10:30Z</time>
      </trkpt>
      <trkpt lat="46.85194" lon="6.04799">
        <ele>837.4</ele>
        <time>2020-07-09T11:10:34Z</time>
      </trkpt>
      <trkpt lat="46.85185" lon="6.04782">
        <ele>836</ele>
        <time>2020-07-09T11:10:47Z</time>
      </trkpt>
      <trkpt lat="46.8518" lon="6.04778">
        <ele>836</ele>
        <time>2020-07-09T11:10:52Z</time>
      </trkpt>
      <trkpt lat="46.85177" lon="6.04773">
        <ele>836.2</ele>
        <time>2020-07-09T11:10:56Z</time>
      </trkpt>
      <trkpt lat="46.85174" lon="6.04766">
        <ele>836.4</ele>
        <time>2020-07-09T11:10:59Z</time>
      </trkpt>
      <trkpt lat="46.85171" lon="6.04761">
        <ele>837</ele>
        <time>2020-07-09T11:11:03Z</time>
      </trkpt>
      <trkpt lat="46.85168" lon="6.04756">
        <ele>837.3</ele>
        <time>2020-07-09T11:11:06Z</time>
      </trkpt>
      <trkpt lat="46.85165" lon="6.0475">
        <ele>837.8</ele>
        <time>2020-07-09T11:11:11Z</time>
      </trkpt>
      <trkpt lat="46.85162" lon="6.04744">
        <ele>838.6</ele>
        <time>2020-07-09T11:11:17Z</time>
      </trkpt>
      <trkpt lat="46.85159" lon="6.04737">
        <ele>839.1</ele>
        <time>2020-07-09T11:11:22Z</time>
      </trkpt>
      <trkpt lat="46.85158" lon="6.04731">
        <ele>839.3</ele>
        <time>2020-07-09T11:11:26Z</time>
      </trkpt>
      <trkpt lat="46.85155" lon="6.04725">
        <ele>839.4</ele>
        <time>2020-07-09T11:11:31Z</time>
      </trkpt>
      <trkpt lat="46.85153" lon="6.04718">
        <ele>839.9</ele>
        <time>2020-07-09T11:11:39Z</time>
      </trkpt>
      <trkpt lat="46.85149" lon="6.04712">
        <ele>840.4</ele>
        <time>2020-07-09T11:11:44Z</time>
      </trkpt>
      <trkpt lat="46.85142" lon="6.04698">
        <ele>841.2</ele>
        <time>2020-07-09T11:11:55Z</time>
      </trkpt>
      <trkpt lat="46.85139" lon="6.04692">
        <ele>841.2</ele>
        <time>2020-07-09T11:11:58Z</time>
      </trkpt>
      <trkpt lat="46.85137" lon="6.04685">
        <ele>841.2</ele>
        <time>2020-07-09T11:12:02Z</time>
      </trkpt>
      <trkpt lat="46.85134" lon="6.04678">
        <ele>841</ele>
        <time>2020-07-09T11:12:09Z</time>
      </trkpt>
      <trkpt lat="46.85131" lon="6.04673">
        <ele>840.9</ele>
        <time>2020-07-09T11:12:13Z</time>
      </trkpt>
      <trkpt lat="46.85128" lon="6.04667">
        <ele>840.4</ele>
        <time>2020-07-09T11:12:18Z</time>
      </trkpt>
      <trkpt lat="46.85125" lon="6.0466">
        <ele>840.1</ele>
        <time>2020-07-09T11:12:21Z</time>
      </trkpt>
      <trkpt lat="46.85122" lon="6.04654">
        <ele>839.7</ele>
        <time>2020-07-09T11:12:25Z</time>
      </trkpt>
      <trkpt lat="46.85119" lon="6.04648">
        <ele>839</ele>
        <time>2020-07-09T11:12:33Z</time>
      </trkpt>
      <trkpt lat="46.85116" lon="6.04641">
        <ele>838.4</ele>
        <time>2020-07-09T11:12:39Z</time>
      </trkpt>
      <trkpt lat="46.85113" lon="6.04633">
        <ele>832.8</ele>
        <time>2020-07-09T11:13:08Z</time>
      </trkpt>
      <trkpt lat="46.8511" lon="6.04627">
        <ele>831.2</ele>
        <time>2020-07-09T11:13:14Z</time>
      </trkpt>
      <trkpt lat="46.85107" lon="6.0462">
        <ele>830.5</ele>
        <time>2020-07-09T11:13:17Z</time>
      </trkpt>
      <trkpt lat="46.85103" lon="6.04614">
        <ele>829.6</ele>
        <time>2020-07-09T11:13:21Z</time>
      </trkpt>
      <trkpt lat="46.851" lon="6.04609">
        <ele>828.4</ele>
        <time>2020-07-09T11:13:27Z</time>
      </trkpt>
      <trkpt lat="46.85095" lon="6.04605">
        <ele>827.8</ele>
        <time>2020-07-09T11:13:31Z</time>
      </trkpt>
      <trkpt lat="46.85092" lon="6.04599">
        <ele>827.5</ele>
        <time>2020-07-09T11:13:34Z</time>
      </trkpt>
      <trkpt lat="46.85089" lon="6.04594">
        <ele>827.2</ele>
        <time>2020-07-09T11:13:39Z</time>
      </trkpt>
      <trkpt lat="46.85082" lon="6.04582">
        <ele>827.5</ele>
        <time>2020-07-09T11:13:50Z</time>
      </trkpt>
      <trkpt lat="46.8508" lon="6.04576">
        <ele>827.4</ele>
        <time>2020-07-09T11:13:56Z</time>
      </trkpt>
      <trkpt lat="46.85078" lon="6.04568">
        <ele>827.3</ele>
        <time>2020-07-09T11:14:02Z</time>
      </trkpt>
      <trkpt lat="46.8507" lon="6.04555">
        <ele>826.5</ele>
        <time>2020-07-09T11:14:11Z</time>
      </trkpt>
      <trkpt lat="46.85066" lon="6.04551">
        <ele>825.6</ele>
        <time>2020-07-09T11:14:18Z</time>
      </trkpt>
      <trkpt lat="46.85058" lon="6.04537">
        <ele>824</ele>
        <time>2020-07-09T11:14:28Z</time>
      </trkpt>
      <trkpt lat="46.85054" lon="6.04532">
        <ele>823.7</ele>
        <time>2020-07-09T11:14:32Z</time>
      </trkpt>
      <trkpt lat="46.8505" lon="6.04529">
        <ele>823.4</ele>
        <time>2020-07-09T11:14:37Z</time>
      </trkpt>
      <trkpt lat="46.85047" lon="6.04523">
        <ele>823.3</ele>
        <time>2020-07-09T11:14:39Z</time>
      </trkpt>
      <trkpt lat="46.85043" lon="6.04518">
        <ele>823.3</ele>
        <time>2020-07-09T11:14:43Z</time>
      </trkpt>
      <trkpt lat="46.85039" lon="6.04514">
        <ele>823.4</ele>
        <time>2020-07-09T11:14:48Z</time>
      </trkpt>
      <trkpt lat="46.85036" lon="6.0451">
        <ele>823.6</ele>
        <time>2020-07-09T11:14:52Z</time>
      </trkpt>
      <trkpt lat="46.85031" lon="6.04504">
        <ele>823.7</ele>
        <time>2020-07-09T11:14:55Z</time>
      </trkpt>
      <trkpt lat="46.85027" lon="6.045">
        <ele>823.6</ele>
        <time>2020-07-09T11:15:00Z</time>
      </trkpt>
      <trkpt lat="46.85023" lon="6.04496">
        <ele>823.7</ele>
        <time>2020-07-09T11:15:06Z</time>
      </trkpt>
      <trkpt lat="46.85019" lon="6.04491">
        <ele>824.5</ele>
        <time>2020-07-09T11:15:13Z</time>
      </trkpt>
      <trkpt lat="46.85016" lon="6.04485">
        <ele>825.4</ele>
        <time>2020-07-09T11:15:19Z</time>
      </trkpt>
      <trkpt lat="46.85013" lon="6.04479">
        <ele>825.7</ele>
        <time>2020-07-09T11:15:23Z</time>
      </trkpt>
      <trkpt lat="46.85008" lon="6.04474">
        <ele>826.2</ele>
        <time>2020-07-09T11:15:29Z</time>
      </trkpt>
      <trkpt lat="46.85005" lon="6.04467">
        <ele>826.5</ele>
        <time>2020-07-09T11:15:33Z</time>
      </trkpt>
      <trkpt lat="46.84988" lon="6.04444">
        <ele>826.8</ele>
        <time>2020-07-09T11:15:54Z</time>
      </trkpt>
      <trkpt lat="46.84985" lon="6.04439">
        <ele>826.4</ele>
        <time>2020-07-09T11:16:00Z</time>
      </trkpt>
      <trkpt lat="46.84981" lon="6.04435">
        <ele>826.1</ele>
        <time>2020-07-09T11:16:03Z</time>
      </trkpt>
      <trkpt lat="46.84977" lon="6.04429">
        <ele>825.9</ele>
        <time>2020-07-09T11:16:06Z</time>
      </trkpt>
      <trkpt lat="46.84975" lon="6.04422">
        <ele>825.3</ele>
        <time>2020-07-09T11:16:11Z</time>
      </trkpt>
      <trkpt lat="46.84973" lon="6.04415">
        <ele>823</ele>
        <time>2020-07-09T11:16:22Z</time>
      </trkpt>
      <trkpt lat="46.8497" lon="6.04411">
        <ele>822</ele>
        <time>2020-07-09T11:16:25Z</time>
      </trkpt>
      <trkpt lat="46.84966" lon="6.04407">
        <ele>820.6</ele>
        <time>2020-07-09T11:16:29Z</time>
      </trkpt>
      <trkpt lat="46.84963" lon="6.04401">
        <ele>819.5</ele>
        <time>2020-07-09T11:16:33Z</time>
      </trkpt>
      <trkpt lat="46.8496" lon="6.04394">
        <ele>818.5</ele>
        <time>2020-07-09T11:16:37Z</time>
      </trkpt>
      <trkpt lat="46.84957" lon="6.04388">
        <ele>817.1</ele>
        <time>2020-07-09T11:16:42Z</time>
      </trkpt>
      <trkpt lat="46.84953" lon="6.04383">
        <ele>816.1</ele>
        <time>2020-07-09T11:16:46Z</time>
      </trkpt>
      <trkpt lat="46.84949" lon="6.04377">
        <ele>814.4</ele>
        <time>2020-07-09T11:16:51Z</time>
      </trkpt>
      <trkpt lat="46.84946" lon="6.0437">
        <ele>813.1</ele>
        <time>2020-07-09T11:16:55Z</time>
      </trkpt>
      <trkpt lat="46.84943" lon="6.04363">
        <ele>811.9</ele>
        <time>2020-07-09T11:16:59Z</time>
      </trkpt>
      <trkpt lat="46.84941" lon="6.04356">
        <ele>811.2</ele>
        <time>2020-07-09T11:17:02Z</time>
      </trkpt>
      <trkpt lat="46.84937" lon="6.04351">
        <ele>810.6</ele>
        <time>2020-07-09T11:17:05Z</time>
      </trkpt>
      <trkpt lat="46.84935" lon="6.04344">
        <ele>809.5</ele>
        <time>2020-07-09T11:17:12Z</time>
      </trkpt>
      <trkpt lat="46.84934" lon="6.04337">
        <ele>808.6</ele>
        <time>2020-07-09T11:17:17Z</time>
      </trkpt>
      <trkpt lat="46.84932" lon="6.04331">
        <ele>807.7</ele>
        <time>2020-07-09T11:17:21Z</time>
      </trkpt>
      <trkpt lat="46.84929" lon="6.04326">
        <ele>806.7</ele>
        <time>2020-07-09T11:17:25Z</time>
      </trkpt>
      <trkpt lat="46.84925" lon="6.0432">
        <ele>805.6</ele>
        <time>2020-07-09T11:17:30Z</time>
      </trkpt>
      <trkpt lat="46.8492" lon="6.04315">
        <ele>804.9</ele>
        <time>2020-07-09T11:17:35Z</time>
      </trkpt>
      <trkpt lat="46.84916" lon="6.04312">
        <ele>804.5</ele>
        <time>2020-07-09T11:17:39Z</time>
      </trkpt>
      <trkpt lat="46.84911" lon="6.04309">
        <ele>804.4</ele>
        <time>2020-07-09T11:17:42Z</time>
      </trkpt>
      <trkpt lat="46.84908" lon="6.04305">
        <ele>804.3</ele>
        <time>2020-07-09T11:17:47Z</time>
      </trkpt>
      <trkpt lat="46.84907" lon="6.04298">
        <ele>804</ele>
        <time>2020-07-09T11:17:54Z</time>
      </trkpt>
      <trkpt lat="46.84904" lon="6.04292">
        <ele>804</ele>
        <time>2020-07-09T11:17:59Z</time>
      </trkpt>
      <trkpt lat="46.84901" lon="6.04288">
        <ele>804.1</ele>
        <time>2020-07-09T11:18:03Z</time>
      </trkpt>
      <trkpt lat="46.84898" lon="6.04282">
        <ele>804.3</ele>
        <time>2020-07-09T11:18:06Z</time>
      </trkpt>
      <trkpt lat="46.84897" lon="6.04274">
        <ele>804.6</ele>
        <time>2020-07-09T11:18:10Z</time>
      </trkpt>
      <trkpt lat="46.84897" lon="6.04265">
        <ele>805.3</ele>
        <time>2020-07-09T11:18:16Z</time>
      </trkpt>
      <trkpt lat="46.84894" lon="6.04258">
        <ele>805.7</ele>
        <time>2020-07-09T11:18:18Z</time>
      </trkpt>
      <trkpt lat="46.84891" lon="6.04253">
        <ele>806</ele>
        <time>2020-07-09T11:18:20Z</time>
      </trkpt>
      <trkpt lat="46.84888" lon="6.04247">
        <ele>807.9</ele>
        <time>2020-07-09T11:18:27Z</time>
      </trkpt>
      <trkpt lat="46.84886" lon="6.04228">
        <ele>813.6</ele>
        <time>2020-07-09T11:18:42Z</time>
      </trkpt>
      <trkpt lat="46.84887" lon="6.04221">
        <ele>814.2</ele>
        <time>2020-07-09T11:18:45Z</time>
      </trkpt>
      <trkpt lat="46.84886" lon="6.04212">
        <ele>814.7</ele>
        <time>2020-07-09T11:18:47Z</time>
      </trkpt>
      <trkpt lat="46.84885" lon="6.04204">
        <ele>815.4</ele>
        <time>2020-07-09T11:18:49Z</time>
      </trkpt>
      <trkpt lat="46.84883" lon="6.04198">
        <ele>816.4</ele>
        <time>2020-07-09T11:18:52Z</time>
      </trkpt>
      <trkpt lat="46.8488" lon="6.04183">
        <ele>821</ele>
        <time>2020-07-09T11:19:06Z</time>
      </trkpt>
      <trkpt lat="46.8488" lon="6.04176">
        <ele>821.7</ele>
        <time>2020-07-09T11:19:09Z</time>
      </trkpt>
      <trkpt lat="46.8488" lon="6.04169">
        <ele>823.2</ele>
        <time>2020-07-09T11:19:15Z</time>
      </trkpt>
      <trkpt lat="46.84881" lon="6.04161">
        <ele>824</ele>
        <time>2020-07-09T11:19:19Z</time>
      </trkpt>
      <trkpt lat="46.8488" lon="6.04138">
        <ele>825.7</ele>
        <time>2020-07-09T11:19:37Z</time>
      </trkpt>
      <trkpt lat="46.84877" lon="6.04129">
        <ele>825.9</ele>
        <time>2020-07-09T11:19:43Z</time>
      </trkpt>
      <trkpt lat="46.84873" lon="6.04123">
        <ele>826</ele>
        <time>2020-07-09T11:19:45Z</time>
      </trkpt>
      <trkpt lat="46.8487" lon="6.04117">
        <ele>826.3</ele>
        <time>2020-07-09T11:19:49Z</time>
      </trkpt>
      <trkpt lat="46.84866" lon="6.04112">
        <ele>826.7</ele>
        <time>2020-07-09T11:19:54Z</time>
      </trkpt>
      <trkpt lat="46.84863" lon="6.04108">
        <ele>827</ele>
        <time>2020-07-09T11:20:00Z</time>
      </trkpt>
      <trkpt lat="46.8486" lon="6.04102">
        <ele>825.6</ele>
        <time>2020-07-09T11:20:08Z</time>
      </trkpt>
      <trkpt lat="46.84859" lon="6.04095">
        <ele>823</ele>
        <time>2020-07-09T11:20:15Z</time>
      </trkpt>
      <trkpt lat="46.84858" lon="6.04088">
        <ele>821.1</ele>
        <time>2020-07-09T11:20:20Z</time>
      </trkpt>
      <trkpt lat="46.84855" lon="6.04082">
        <ele>819.5</ele>
        <time>2020-07-09T11:20:25Z</time>
      </trkpt>
      <trkpt lat="46.84853" lon="6.04076">
        <ele>818.1</ele>
        <time>2020-07-09T11:20:30Z</time>
      </trkpt>
      <trkpt lat="46.8485" lon="6.0407">
        <ele>817.6</ele>
        <time>2020-07-09T11:20:33Z</time>
      </trkpt>
      <trkpt lat="46.84847" lon="6.04064">
        <ele>816.7</ele>
        <time>2020-07-09T11:20:37Z</time>
      </trkpt>
      <trkpt lat="46.84844" lon="6.04059">
        <ele>816</ele>
        <time>2020-07-09T11:20:41Z</time>
      </trkpt>
      <trkpt lat="46.84841" lon="6.04053">
        <ele>815.6</ele>
        <time>2020-07-09T11:20:44Z</time>
      </trkpt>
      <trkpt lat="46.84839" lon="6.04047">
        <ele>815.2</ele>
        <time>2020-07-09T11:20:48Z</time>
      </trkpt>
      <trkpt lat="46.84837" lon="6.04041">
        <ele>814.6</ele>
        <time>2020-07-09T11:20:53Z</time>
      </trkpt>
      <trkpt lat="46.84834" lon="6.04035">
        <ele>814.1</ele>
        <time>2020-07-09T11:20:58Z</time>
      </trkpt>
      <trkpt lat="46.8483" lon="6.04029">
        <ele>814.4</ele>
        <time>2020-07-09T11:21:04Z</time>
      </trkpt>
      <trkpt lat="46.84827" lon="6.04023">
        <ele>815</ele>
        <time>2020-07-09T11:21:07Z</time>
      </trkpt>
      <trkpt lat="46.84822" lon="6.04017">
        <ele>815.5</ele>
        <time>2020-07-09T11:21:09Z</time>
      </trkpt>
      <trkpt lat="46.84818" lon="6.04012">
        <ele>816.7</ele>
        <time>2020-07-09T11:21:13Z</time>
      </trkpt>
      <trkpt lat="46.84814" lon="6.04007">
        <ele>818.3</ele>
        <time>2020-07-09T11:21:18Z</time>
      </trkpt>
      <trkpt lat="46.84811" lon="6.04001">
        <ele>819.6</ele>
        <time>2020-07-09T11:21:22Z</time>
      </trkpt>
      <trkpt lat="46.84809" lon="6.03996">
        <ele>821</ele>
        <time>2020-07-09T11:21:26Z</time>
      </trkpt>
      <trkpt lat="46.84806" lon="6.03989">
        <ele>822.3</ele>
        <time>2020-07-09T11:21:31Z</time>
      </trkpt>
      <trkpt lat="46.84802" lon="6.03985">
        <ele>823</ele>
        <time>2020-07-09T11:21:34Z</time>
      </trkpt>
      <trkpt lat="46.84798" lon="6.0398">
        <ele>823.9</ele>
        <time>2020-07-09T11:21:39Z</time>
      </trkpt>
      <trkpt lat="46.84795" lon="6.03975">
        <ele>824.3</ele>
        <time>2020-07-09T11:21:44Z</time>
      </trkpt>
      <trkpt lat="46.84795" lon="6.03967">
        <ele>823.9</ele>
        <time>2020-07-09T11:21:49Z</time>
      </trkpt>
      <trkpt lat="46.84794" lon="6.03961">
        <ele>823.1</ele>
        <time>2020-07-09T11:21:54Z</time>
      </trkpt>
      <trkpt lat="46.84791" lon="6.03955">
        <ele>822.1</ele>
        <time>2020-07-09T11:21:59Z</time>
      </trkpt>
      <trkpt lat="46.84788" lon="6.0395">
        <ele>821.2</ele>
        <time>2020-07-09T11:22:04Z</time>
      </trkpt>
      <trkpt lat="46.84785" lon="6.03944">
        <ele>820.6</ele>
        <time>2020-07-09T11:22:09Z</time>
      </trkpt>
      <trkpt lat="46.84782" lon="6.03938">
        <ele>820.4</ele>
        <time>2020-07-09T11:22:13Z</time>
      </trkpt>
      <trkpt lat="46.84779" lon="6.03933">
        <ele>820</ele>
        <time>2020-07-09T11:22:17Z</time>
      </trkpt>
      <trkpt lat="46.84776" lon="6.03926">
        <ele>819.3</ele>
        <time>2020-07-09T11:22:22Z</time>
      </trkpt>
      <trkpt lat="46.84773" lon="6.03919">
        <ele>818.6</ele>
        <time>2020-07-09T11:22:26Z</time>
      </trkpt>
      <trkpt lat="46.84769" lon="6.03912">
        <ele>818.2</ele>
        <time>2020-07-09T11:22:30Z</time>
      </trkpt>
      <trkpt lat="46.84766" lon="6.03907">
        <ele>818</ele>
        <time>2020-07-09T11:22:33Z</time>
      </trkpt>
      <trkpt lat="46.84754" lon="6.03873">
        <ele>814.8</ele>
        <time>2020-07-09T11:22:58Z</time>
      </trkpt>
      <trkpt lat="46.84751" lon="6.03867">
        <ele>814.5</ele>
        <time>2020-07-09T11:23:01Z</time>
      </trkpt>
      <trkpt lat="46.84749" lon="6.0386">
        <ele>813.5</ele>
        <time>2020-07-09T11:23:05Z</time>
      </trkpt>
      <trkpt lat="46.84748" lon="6.03853">
        <ele>811.8</ele>
        <time>2020-07-09T11:23:10Z</time>
      </trkpt>
      <trkpt lat="46.84747" lon="6.03847">
        <ele>809.6</ele>
        <time>2020-07-09T11:23:16Z</time>
      </trkpt>
      <trkpt lat="46.84746" lon="6.0384">
        <ele>807.8</ele>
        <time>2020-07-09T11:23:22Z</time>
      </trkpt>
      <trkpt lat="46.84743" lon="6.03834">
        <ele>806.8</ele>
        <time>2020-07-09T11:23:27Z</time>
      </trkpt>
      <trkpt lat="46.84741" lon="6.03828">
        <ele>806.1</ele>
        <time>2020-07-09T11:23:32Z</time>
      </trkpt>
      <trkpt lat="46.84738" lon="6.03819">
        <ele>805.8</ele>
        <time>2020-07-09T11:23:35Z</time>
      </trkpt>
      <trkpt lat="46.84735" lon="6.03813">
        <ele>805.1</ele>
        <time>2020-07-09T11:23:39Z</time>
      </trkpt>
      <trkpt lat="46.84733" lon="6.03806">
        <ele>803.4</ele>
        <time>2020-07-09T11:23:44Z</time>
      </trkpt>
      <trkpt lat="46.84731" lon="6.03799">
        <ele>800.8</ele>
        <time>2020-07-09T11:23:50Z</time>
      </trkpt>
      <trkpt lat="46.84727" lon="6.03794">
        <ele>798.5</ele>
        <time>2020-07-09T11:23:58Z</time>
      </trkpt>
      <trkpt lat="46.84724" lon="6.03789">
        <ele>797.9</ele>
        <time>2020-07-09T11:24:04Z</time>
      </trkpt>
      <trkpt lat="46.84721" lon="6.03783">
        <ele>797.9</ele>
        <time>2020-07-09T11:24:07Z</time>
      </trkpt>
      <trkpt lat="46.84718" lon="6.03776">
        <ele>798.2</ele>
        <time>2020-07-09T11:24:12Z</time>
      </trkpt>
      <trkpt lat="46.84716" lon="6.0377">
        <ele>798.7</ele>
        <time>2020-07-09T11:24:17Z</time>
      </trkpt>
      <trkpt lat="46.84713" lon="6.03763">
        <ele>798.9</ele>
        <time>2020-07-09T11:24:22Z</time>
      </trkpt>
      <trkpt lat="46.84706" lon="6.03751">
        <ele>799.4</ele>
        <time>2020-07-09T11:24:32Z</time>
      </trkpt>
      <trkpt lat="46.84704" lon="6.03744">
        <ele>799.6</ele>
        <time>2020-07-09T11:24:36Z</time>
      </trkpt>
      <trkpt lat="46.84702" lon="6.03737">
        <ele>799.6</ele>
        <time>2020-07-09T11:24:42Z</time>
      </trkpt>
      <trkpt lat="46.847" lon="6.03731">
        <ele>799.2</ele>
        <time>2020-07-09T11:24:49Z</time>
      </trkpt>
      <trkpt lat="46.84697" lon="6.03724">
        <ele>798.6</ele>
        <time>2020-07-09T11:24:55Z</time>
      </trkpt>
      <trkpt lat="46.84693" lon="6.03719">
        <ele>797.8</ele>
        <time>2020-07-09T11:25:00Z</time>
      </trkpt>
      <trkpt lat="46.84689" lon="6.03714">
        <ele>797.2</ele>
        <time>2020-07-09T11:25:04Z</time>
      </trkpt>
      <trkpt lat="46.84679" lon="6.03701">
        <ele>795.4</ele>
        <time>2020-07-09T11:25:13Z</time>
      </trkpt>
      <trkpt lat="46.84676" lon="6.03695">
        <ele>794.9</ele>
        <time>2020-07-09T11:25:19Z</time>
      </trkpt>
      <trkpt lat="46.84673" lon="6.0369">
        <ele>794.9</ele>
        <time>2020-07-09T11:25:24Z</time>
      </trkpt>
      <trkpt lat="46.84669" lon="6.03683">
        <ele>795.6</ele>
        <time>2020-07-09T11:25:29Z</time>
      </trkpt>
      <trkpt lat="46.84667" lon="6.03678">
        <ele>796.1</ele>
        <time>2020-07-09T11:25:31Z</time>
      </trkpt>
      <trkpt lat="46.84664" lon="6.03671">
        <ele>797.3</ele>
        <time>2020-07-09T11:25:35Z</time>
      </trkpt>
      <trkpt lat="46.84661" lon="6.03664">
        <ele>799.3</ele>
        <time>2020-07-09T11:25:40Z</time>
      </trkpt>
      <trkpt lat="46.84657" lon="6.03659">
        <ele>801.2</ele>
        <time>2020-07-09T11:25:44Z</time>
      </trkpt>
      <trkpt lat="46.8465" lon="6.03644">
        <ele>809.1</ele>
        <time>2020-07-09T11:25:57Z</time>
      </trkpt>
      <trkpt lat="46.84647" lon="6.03638">
        <ele>810.5</ele>
        <time>2020-07-09T11:26:01Z</time>
      </trkpt>
      <trkpt lat="46.84639" lon="6.0362">
        <ele>814.2</ele>
        <time>2020-07-09T11:26:15Z</time>
      </trkpt>
      <trkpt lat="46.84636" lon="6.03614">
        <ele>815.7</ele>
        <time>2020-07-09T11:26:21Z</time>
      </trkpt>
      <trkpt lat="46.84632" lon="6.03609">
        <ele>817</ele>
        <time>2020-07-09T11:26:27Z</time>
      </trkpt>
      <trkpt lat="46.84629" lon="6.03602">
        <ele>817.4</ele>
        <time>2020-07-09T11:26:30Z</time>
      </trkpt>
      <trkpt lat="46.84624" lon="6.03594">
        <ele>817.7</ele>
        <time>2020-07-09T11:26:33Z</time>
      </trkpt>
      <trkpt lat="46.84621" lon="6.03588">
        <ele>818.1</ele>
        <time>2020-07-09T11:26:35Z</time>
      </trkpt>
      <trkpt lat="46.84617" lon="6.03581">
        <ele>818.6</ele>
        <time>2020-07-09T11:26:38Z</time>
      </trkpt>
      <trkpt lat="46.84619" lon="6.03575">
        <ele>819.2</ele>
        <time>2020-07-09T11:26:46Z</time>
      </trkpt>
      <trkpt lat="46.84618" lon="6.03567">
        <ele>817.9</ele>
        <time>2020-07-09T11:26:55Z</time>
      </trkpt>
      <trkpt lat="46.84616" lon="6.0356">
        <ele>817.1</ele>
        <time>2020-07-09T11:27:00Z</time>
      </trkpt>
      <trkpt lat="46.84612" lon="6.03555">
        <ele>816.8</ele>
        <time>2020-07-09T11:27:04Z</time>
      </trkpt>
      <trkpt lat="46.84609" lon="6.0355">
        <ele>816.5</ele>
        <time>2020-07-09T11:27:08Z</time>
      </trkpt>
      <trkpt lat="46.84607" lon="6.03544">
        <ele>816.4</ele>
        <time>2020-07-09T11:27:12Z</time>
      </trkpt>
      <trkpt lat="46.84604" lon="6.03537">
        <ele>816.6</ele>
        <time>2020-07-09T11:27:17Z</time>
      </trkpt>
      <trkpt lat="46.84602" lon="6.0353">
        <ele>816.9</ele>
        <time>2020-07-09T11:27:21Z</time>
      </trkpt>
      <trkpt lat="46.846" lon="6.03523">
        <ele>817.2</ele>
        <time>2020-07-09T11:27:27Z</time>
      </trkpt>
      <trkpt lat="46.84597" lon="6.03518">
        <ele>817.3</ele>
        <time>2020-07-09T11:27:32Z</time>
      </trkpt>
      <trkpt lat="46.84595" lon="6.03512">
        <ele>817.6</ele>
        <time>2020-07-09T11:27:38Z</time>
      </trkpt>
      <trkpt lat="46.84592" lon="6.03506">
        <ele>817.7</ele>
        <time>2020-07-09T11:27:44Z</time>
      </trkpt>
      <trkpt lat="46.84591" lon="6.03499">
        <ele>817.6</ele>
        <time>2020-07-09T11:27:49Z</time>
      </trkpt>
      <trkpt lat="46.84587" lon="6.03481">
        <ele>813.7</ele>
        <time>2020-07-09T11:28:03Z</time>
      </trkpt>
      <trkpt lat="46.84581" lon="6.03467">
        <ele>811.7</ele>
        <time>2020-07-09T11:28:10Z</time>
      </trkpt>
      <trkpt lat="46.84578" lon="6.03461">
        <ele>811.6</ele>
        <time>2020-07-09T11:28:14Z</time>
      </trkpt>
      <trkpt lat="46.84576" lon="6.03454">
        <ele>811.8</ele>
        <time>2020-07-09T11:28:19Z</time>
      </trkpt>
      <trkpt lat="46.84574" lon="6.03447">
        <ele>812.2</ele>
        <time>2020-07-09T11:28:22Z</time>
      </trkpt>
      <trkpt lat="46.8457" lon="6.0344">
        <ele>812.7</ele>
        <time>2020-07-09T11:28:25Z</time>
      </trkpt>
      <trkpt lat="46.84562" lon="6.03427">
        <ele>814</ele>
        <time>2020-07-09T11:28:34Z</time>
      </trkpt>
      <trkpt lat="46.8456" lon="6.0342">
        <ele>813.9</ele>
        <time>2020-07-09T11:28:36Z</time>
      </trkpt>
      <trkpt lat="46.84557" lon="6.03413">
        <ele>813.7</ele>
        <time>2020-07-09T11:28:39Z</time>
      </trkpt>
      <trkpt lat="46.84554" lon="6.03407">
        <ele>813.4</ele>
        <time>2020-07-09T11:28:43Z</time>
      </trkpt>
      <trkpt lat="46.84548" lon="6.03394">
        <ele>812.8</ele>
        <time>2020-07-09T11:28:52Z</time>
      </trkpt>
      <trkpt lat="46.84547" lon="6.03387">
        <ele>812.9</ele>
        <time>2020-07-09T11:28:56Z</time>
      </trkpt>
      <trkpt lat="46.84544" lon="6.03381">
        <ele>813.2</ele>
        <time>2020-07-09T11:29:01Z</time>
      </trkpt>
      <trkpt lat="46.84541" lon="6.03374">
        <ele>813.8</ele>
        <time>2020-07-09T11:29:07Z</time>
      </trkpt>
      <trkpt lat="46.8454" lon="6.03368">
        <ele>814.2</ele>
        <time>2020-07-09T11:29:12Z</time>
      </trkpt>
      <trkpt lat="46.84539" lon="6.03361">
        <ele>814.4</ele>
        <time>2020-07-09T11:29:18Z</time>
      </trkpt>
      <trkpt lat="46.84537" lon="6.03354">
        <ele>814.1</ele>
        <time>2020-07-09T11:29:23Z</time>
      </trkpt>
      <trkpt lat="46.84534" lon="6.03346">
        <ele>813.5</ele>
        <time>2020-07-09T11:29:27Z</time>
      </trkpt>
      <trkpt lat="46.84532" lon="6.0334">
        <ele>812.7</ele>
        <time>2020-07-09T11:29:31Z</time>
      </trkpt>
      <trkpt lat="46.8453" lon="6.03333">
        <ele>811.7</ele>
        <time>2020-07-09T11:29:36Z</time>
      </trkpt>
      <trkpt lat="46.84528" lon="6.03327">
        <ele>810.9</ele>
        <time>2020-07-09T11:29:42Z</time>
      </trkpt>
      <trkpt lat="46.84526" lon="6.03321">
        <ele>810.7</ele>
        <time>2020-07-09T11:29:47Z</time>
      </trkpt>
      <trkpt lat="46.84525" lon="6.03315">
        <ele>810.5</ele>
        <time>2020-07-09T11:29:52Z</time>
      </trkpt>
      <trkpt lat="46.84523" lon="6.03308">
        <ele>810.4</ele>
        <time>2020-07-09T11:29:57Z</time>
      </trkpt>
      <trkpt lat="46.84521" lon="6.03301">
        <ele>810.6</ele>
        <time>2020-07-09T11:30:03Z</time>
      </trkpt>
      <trkpt lat="46.84514" lon="6.03282">
        <ele>810.9</ele>
        <time>2020-07-09T11:30:15Z</time>
      </trkpt>
      <trkpt lat="46.84512" lon="6.03275">
        <ele>811</ele>
        <time>2020-07-09T11:30:17Z</time>
      </trkpt>
      <trkpt lat="46.84509" lon="6.03269">
        <ele>811.3</ele>
        <time>2020-07-09T11:30:20Z</time>
      </trkpt>
      <trkpt lat="46.84506" lon="6.03264">
        <ele>811.5</ele>
        <time>2020-07-09T11:30:22Z</time>
      </trkpt>
      <trkpt lat="46.84501" lon="6.03259">
        <ele>812.1</ele>
        <time>2020-07-09T11:30:26Z</time>
      </trkpt>
      <trkpt lat="46.84497" lon="6.03254">
        <ele>812.5</ele>
        <time>2020-07-09T11:30:29Z</time>
      </trkpt>
      <trkpt lat="46.84493" lon="6.03249">
        <ele>812.9</ele>
        <time>2020-07-09T11:30:33Z</time>
      </trkpt>
      <trkpt lat="46.84491" lon="6.03243">
        <ele>813.6</ele>
        <time>2020-07-09T11:30:39Z</time>
      </trkpt>
      <trkpt lat="46.84493" lon="6.03233">
        <ele>813.5</ele>
        <time>2020-07-09T11:30:53Z</time>
      </trkpt>
      <trkpt lat="46.8449" lon="6.03228">
        <ele>815</ele>
        <time>2020-07-09T11:31:03Z</time>
      </trkpt>
      <trkpt lat="46.84486" lon="6.03223">
        <ele>816</ele>
        <time>2020-07-09T11:31:08Z</time>
      </trkpt>
      <trkpt lat="46.84483" lon="6.03219">
        <ele>816.8</ele>
        <time>2020-07-09T11:31:13Z</time>
      </trkpt>
      <trkpt lat="46.84478" lon="6.03215">
        <ele>817.3</ele>
        <time>2020-07-09T11:31:17Z</time>
      </trkpt>
      <trkpt lat="46.84474" lon="6.03212">
        <ele>817.7</ele>
        <time>2020-07-09T11:31:20Z</time>
      </trkpt>
      <trkpt lat="46.84469" lon="6.03207">
        <ele>818</ele>
        <time>2020-07-09T11:31:24Z</time>
      </trkpt>
      <trkpt lat="46.84465" lon="6.03202">
        <ele>818.2</ele>
        <time>2020-07-09T11:31:29Z</time>
      </trkpt>
      <trkpt lat="46.84462" lon="6.03197">
        <ele>818.2</ele>
        <time>2020-07-09T11:31:34Z</time>
      </trkpt>
      <trkpt lat="46.84458" lon="6.03193">
        <ele>818.3</ele>
        <time>2020-07-09T11:31:37Z</time>
      </trkpt>
      <trkpt lat="46.84456" lon="6.03187">
        <ele>818</ele>
        <time>2020-07-09T11:31:41Z</time>
      </trkpt>
      <trkpt lat="46.84452" lon="6.0318">
        <ele>817.4</ele>
        <time>2020-07-09T11:31:45Z</time>
      </trkpt>
      <trkpt lat="46.84449" lon="6.03173">
        <ele>816.3</ele>
        <time>2020-07-09T11:31:49Z</time>
      </trkpt>
      <trkpt lat="46.84446" lon="6.03165">
        <ele>814.9</ele>
        <time>2020-07-09T11:31:53Z</time>
      </trkpt>
      <trkpt lat="46.84444" lon="6.03159">
        <ele>812.2</ele>
        <time>2020-07-09T11:32:00Z</time>
      </trkpt>
      <trkpt lat="46.8444" lon="6.03154">
        <ele>810.4</ele>
        <time>2020-07-09T11:32:05Z</time>
      </trkpt>
      <trkpt lat="46.84437" lon="6.0315">
        <ele>809</ele>
        <time>2020-07-09T11:32:09Z</time>
      </trkpt>
      <trkpt lat="46.84433" lon="6.03145">
        <ele>807.9</ele>
        <time>2020-07-09T11:32:12Z</time>
      </trkpt>
      <trkpt lat="46.84428" lon="6.03139">
        <ele>806.1</ele>
        <time>2020-07-09T11:32:16Z</time>
      </trkpt>
      <trkpt lat="46.84424" lon="6.03134">
        <ele>804</ele>
        <time>2020-07-09T11:32:20Z</time>
      </trkpt>
      <trkpt lat="46.8442" lon="6.03129">
        <ele>801.6</ele>
        <time>2020-07-09T11:32:24Z</time>
      </trkpt>
      <trkpt lat="46.84417" lon="6.03124">
        <ele>799.7</ele>
        <time>2020-07-09T11:32:27Z</time>
      </trkpt>
      <trkpt lat="46.84413" lon="6.0312">
        <ele>796</ele>
        <time>2020-07-09T11:32:33Z</time>
      </trkpt>
      <trkpt lat="46.84408" lon="6.03119">
        <ele>792.7</ele>
        <time>2020-07-09T11:32:39Z</time>
      </trkpt>
      <trkpt lat="46.84403" lon="6.03118">
        <ele>791</ele>
        <time>2020-07-09T11:32:43Z</time>
      </trkpt>
      <trkpt lat="46.84398" lon="6.03116">
        <ele>789.6</ele>
        <time>2020-07-09T11:32:47Z</time>
      </trkpt>
      <trkpt lat="46.84393" lon="6.03113">
        <ele>788.7</ele>
        <time>2020-07-09T11:32:51Z</time>
      </trkpt>
      <trkpt lat="46.84387" lon="6.03111">
        <ele>788</ele>
        <time>2020-07-09T11:32:55Z</time>
      </trkpt>
      <trkpt lat="46.84383" lon="6.03107">
        <ele>787.6</ele>
        <time>2020-07-09T11:32:59Z</time>
      </trkpt>
      <trkpt lat="46.84379" lon="6.03103">
        <ele>787</ele>
        <time>2020-07-09T11:33:04Z</time>
      </trkpt>
      <trkpt lat="46.84375" lon="6.03099">
        <ele>786.6</ele>
        <time>2020-07-09T11:33:07Z</time>
      </trkpt>
      <trkpt lat="46.84369" lon="6.03098">
        <ele>786</ele>
        <time>2020-07-09T11:33:11Z</time>
      </trkpt>
      <trkpt lat="46.84364" lon="6.03096">
        <ele>785.7</ele>
        <time>2020-07-09T11:33:15Z</time>
      </trkpt>
      <trkpt lat="46.84358" lon="6.03094">
        <ele>785.9</ele>
        <time>2020-07-09T11:33:19Z</time>
      </trkpt>
      <trkpt lat="46.84352" lon="6.03091">
        <ele>786.1</ele>
        <time>2020-07-09T11:33:21Z</time>
      </trkpt>
      <trkpt lat="46.84348" lon="6.03089">
        <ele>786.4</ele>
        <time>2020-07-09T11:33:23Z</time>
      </trkpt>
      <trkpt lat="46.84343" lon="6.03084">
        <ele>787</ele>
        <time>2020-07-09T11:33:26Z</time>
      </trkpt>
      <trkpt lat="46.84338" lon="6.0308">
        <ele>788</ele>
        <time>2020-07-09T11:33:30Z</time>
      </trkpt>
      <trkpt lat="46.84334" lon="6.03076">
        <ele>789.5</ele>
        <time>2020-07-09T11:33:35Z</time>
      </trkpt>
      <trkpt lat="46.84329" lon="6.03074">
        <ele>792.1</ele>
        <time>2020-07-09T11:33:41Z</time>
      </trkpt>
      <trkpt lat="46.84325" lon="6.03072">
        <ele>795.7</ele>
        <time>2020-07-09T11:33:51Z</time>
      </trkpt>
      <trkpt lat="46.84312" lon="6.03062">
        <ele>798.4</ele>
        <time>2020-07-09T11:34:03Z</time>
      </trkpt>
      <trkpt lat="46.84308" lon="6.03057">
        <ele>798.5</ele>
        <time>2020-07-09T11:34:07Z</time>
      </trkpt>
      <trkpt lat="46.84306" lon="6.03051">
        <ele>798.6</ele>
        <time>2020-07-09T11:34:11Z</time>
      </trkpt>
      <trkpt lat="46.84303" lon="6.03047">
        <ele>799.1</ele>
        <time>2020-07-09T11:34:15Z</time>
      </trkpt>
      <trkpt lat="46.84298" lon="6.03043">
        <ele>800</ele>
        <time>2020-07-09T11:34:21Z</time>
      </trkpt>
      <trkpt lat="46.84293" lon="6.03039">
        <ele>800.3</ele>
        <time>2020-07-09T11:34:26Z</time>
      </trkpt>
      <trkpt lat="46.84289" lon="6.03035">
        <ele>800.4</ele>
        <time>2020-07-09T11:34:29Z</time>
      </trkpt>
      <trkpt lat="46.84286" lon="6.0303">
        <ele>800.8</ele>
        <time>2020-07-09T11:34:35Z</time>
      </trkpt>
      <trkpt lat="46.84285" lon="6.03024">
        <ele>803.6</ele>
        <time>2020-07-09T11:34:50Z</time>
      </trkpt>
      <trkpt lat="46.84291" lon="6.03016">
        <ele>806.9</ele>
        <time>2020-07-09T11:41:57Z</time>
      </trkpt>
      <trkpt lat="46.84295" lon="6.03011">
        <ele>808.4</ele>
        <time>2020-07-09T11:42:04Z</time>
      </trkpt>
      <trkpt lat="46.84297" lon="6.03004">
        <ele>811.8</ele>
        <time>2020-07-09T11:42:11Z</time>
      </trkpt>
      <trkpt lat="46.84299" lon="6.02998">
        <ele>814.3</ele>
        <time>2020-07-09T11:42:15Z</time>
      </trkpt>
      <trkpt lat="46.84301" lon="6.02991">
        <ele>817.1</ele>
        <time>2020-07-09T11:42:19Z</time>
      </trkpt>
      <trkpt lat="46.84303" lon="6.02985">
        <ele>820.7</ele>
        <time>2020-07-09T11:42:24Z</time>
      </trkpt>
      <trkpt lat="46.84307" lon="6.0298">
        <ele>824.8</ele>
        <time>2020-07-09T11:42:30Z</time>
      </trkpt>
      <trkpt lat="46.84315" lon="6.02969">
        <ele>832.3</ele>
        <time>2020-07-09T11:42:43Z</time>
      </trkpt>
      <trkpt lat="46.8432" lon="6.02966">
        <ele>833.4</ele>
        <time>2020-07-09T11:42:48Z</time>
      </trkpt>
      <trkpt lat="46.84325" lon="6.02965">
        <ele>834.2</ele>
        <time>2020-07-09T11:42:53Z</time>
      </trkpt>
      <trkpt lat="46.8433" lon="6.02967">
        <ele>835</ele>
        <time>2020-07-09T11:42:58Z</time>
      </trkpt>
      <trkpt lat="46.84335" lon="6.02968">
        <ele>835.5</ele>
        <time>2020-07-09T11:43:05Z</time>
      </trkpt>
      <trkpt lat="46.8434" lon="6.02967">
        <ele>835.4</ele>
        <time>2020-07-09T11:43:12Z</time>
      </trkpt>
      <trkpt lat="46.84345" lon="6.02968">
        <ele>835.3</ele>
        <time>2020-07-09T11:43:17Z</time>
      </trkpt>
      <trkpt lat="46.84354" lon="6.02966">
        <ele>834.1</ele>
        <time>2020-07-09T11:43:26Z</time>
      </trkpt>
      <trkpt lat="46.84366" lon="6.0296">
        <ele>830.5</ele>
        <time>2020-07-09T11:43:40Z</time>
      </trkpt>
      <trkpt lat="46.84371" lon="6.02959">
        <ele>829.6</ele>
        <time>2020-07-09T11:43:45Z</time>
      </trkpt>
      <trkpt lat="46.84376" lon="6.02958">
        <ele>828.7</ele>
        <time>2020-07-09T11:43:50Z</time>
      </trkpt>
      <trkpt lat="46.84381" lon="6.02955">
        <ele>827.7</ele>
        <time>2020-07-09T11:43:55Z</time>
      </trkpt>
      <trkpt lat="46.84384" lon="6.0295">
        <ele>826.5</ele>
        <time>2020-07-09T11:44:01Z</time>
      </trkpt>
      <trkpt lat="46.84389" lon="6.02946">
        <ele>825.5</ele>
        <time>2020-07-09T11:44:07Z</time>
      </trkpt>
      <trkpt lat="46.84393" lon="6.02941">
        <ele>824.6</ele>
        <time>2020-07-09T11:44:12Z</time>
      </trkpt>
      <trkpt lat="46.84397" lon="6.02936">
        <ele>824</ele>
        <time>2020-07-09T11:44:17Z</time>
      </trkpt>
      <trkpt lat="46.844" lon="6.02929">
        <ele>823.7</ele>
        <time>2020-07-09T11:44:22Z</time>
      </trkpt>
      <trkpt lat="46.84402" lon="6.02922">
        <ele>823.7</ele>
        <time>2020-07-09T11:44:27Z</time>
      </trkpt>
      <trkpt lat="46.84405" lon="6.02917">
        <ele>823.9</ele>
        <time>2020-07-09T11:44:32Z</time>
      </trkpt>
      <trkpt lat="46.8441" lon="6.02913">
        <ele>824</ele>
        <time>2020-07-09T11:44:37Z</time>
      </trkpt>
      <trkpt lat="46.84413" lon="6.02907">
        <ele>824.3</ele>
        <time>2020-07-09T11:44:41Z</time>
      </trkpt>
      <trkpt lat="46.84414" lon="6.02899">
        <ele>824.7</ele>
        <time>2020-07-09T11:44:45Z</time>
      </trkpt>
      <trkpt lat="46.84416" lon="6.02891">
        <ele>825.2</ele>
        <time>2020-07-09T11:44:49Z</time>
      </trkpt>
      <trkpt lat="46.84418" lon="6.02885">
        <ele>825.8</ele>
        <time>2020-07-09T11:44:54Z</time>
      </trkpt>
      <trkpt lat="46.8442" lon="6.02879">
        <ele>826.6</ele>
        <time>2020-07-09T11:44:59Z</time>
      </trkpt>
      <trkpt lat="46.84423" lon="6.02873">
        <ele>827.8</ele>
        <time>2020-07-09T11:45:05Z</time>
      </trkpt>
      <trkpt lat="46.84423" lon="6.02866">
        <ele>828.5</ele>
        <time>2020-07-09T11:45:10Z</time>
      </trkpt>
      <trkpt lat="46.84424" lon="6.02859">
        <ele>829.2</ele>
        <time>2020-07-09T11:45:15Z</time>
      </trkpt>
      <trkpt lat="46.84425" lon="6.02852">
        <ele>830</ele>
        <time>2020-07-09T11:45:22Z</time>
      </trkpt>
      <trkpt lat="46.84427" lon="6.02846">
        <ele>830.7</ele>
        <time>2020-07-09T11:45:28Z</time>
      </trkpt>
      <trkpt lat="46.84429" lon="6.02839">
        <ele>831</ele>
        <time>2020-07-09T11:45:33Z</time>
      </trkpt>
      <trkpt lat="46.84431" lon="6.02833">
        <ele>831.1</ele>
        <time>2020-07-09T11:45:38Z</time>
      </trkpt>
      <trkpt lat="46.84432" lon="6.02826">
        <ele>830.9</ele>
        <time>2020-07-09T11:45:43Z</time>
      </trkpt>
      <trkpt lat="46.84433" lon="6.02819">
        <ele>830.4</ele>
        <time>2020-07-09T11:45:48Z</time>
      </trkpt>
      <trkpt lat="46.84435" lon="6.02812">
        <ele>829.8</ele>
        <time>2020-07-09T11:45:52Z</time>
      </trkpt>
      <trkpt lat="46.84438" lon="6.02807">
        <ele>829.2</ele>
        <time>2020-07-09T11:45:56Z</time>
      </trkpt>
      <trkpt lat="46.84441" lon="6.02801">
        <ele>828.3</ele>
        <time>2020-07-09T11:46:02Z</time>
      </trkpt>
      <trkpt lat="46.84442" lon="6.02794">
        <ele>827.4</ele>
        <time>2020-07-09T11:46:09Z</time>
      </trkpt>
      <trkpt lat="46.84443" lon="6.02787">
        <ele>827</ele>
        <time>2020-07-09T11:46:13Z</time>
      </trkpt>
      <trkpt lat="46.84445" lon="6.02781">
        <ele>826.3</ele>
        <time>2020-07-09T11:46:19Z</time>
      </trkpt>
      <trkpt lat="46.84447" lon="6.02774">
        <ele>825.7</ele>
        <time>2020-07-09T11:46:24Z</time>
      </trkpt>
      <trkpt lat="46.8445" lon="6.02768">
        <ele>825.2</ele>
        <time>2020-07-09T11:46:29Z</time>
      </trkpt>
      <trkpt lat="46.84451" lon="6.0276">
        <ele>824.6</ele>
        <time>2020-07-09T11:46:35Z</time>
      </trkpt>
      <trkpt lat="46.84453" lon="6.02752">
        <ele>824.2</ele>
        <time>2020-07-09T11:46:39Z</time>
      </trkpt>
      <trkpt lat="46.84454" lon="6.02745">
        <ele>823.2</ele>
        <time>2020-07-09T11:46:45Z</time>
      </trkpt>
      <trkpt lat="46.84455" lon="6.02737">
        <ele>822.4</ele>
        <time>2020-07-09T11:46:50Z</time>
      </trkpt>
      <trkpt lat="46.84458" lon="6.02732">
        <ele>821.5</ele>
        <time>2020-07-09T11:46:55Z</time>
      </trkpt>
      <trkpt lat="46.84461" lon="6.02726">
        <ele>821</ele>
        <time>2020-07-09T11:46:58Z</time>
      </trkpt>
      <trkpt lat="46.84461" lon="6.02719">
        <ele>820.6</ele>
        <time>2020-07-09T11:47:02Z</time>
      </trkpt>
      <trkpt lat="46.8446" lon="6.02712">
        <ele>820.3</ele>
        <time>2020-07-09T11:47:05Z</time>
      </trkpt>
      <trkpt lat="46.8446" lon="6.02705">
        <ele>820.2</ele>
        <time>2020-07-09T11:47:08Z</time>
      </trkpt>
      <trkpt lat="46.84459" lon="6.02697">
        <ele>820.1</ele>
        <time>2020-07-09T11:47:13Z</time>
      </trkpt>
      <trkpt lat="46.84459" lon="6.02691">
        <ele>820</ele>
        <time>2020-07-09T11:47:19Z</time>
      </trkpt>
      <trkpt lat="46.84459" lon="6.02684">
        <ele>819.8</ele>
        <time>2020-07-09T11:47:25Z</time>
      </trkpt>
      <trkpt lat="46.8446" lon="6.02676">
        <ele>819.5</ele>
        <time>2020-07-09T11:47:32Z</time>
      </trkpt>
      <trkpt lat="46.8446" lon="6.02669">
        <ele>819.3</ele>
        <time>2020-07-09T11:47:35Z</time>
      </trkpt>
      <trkpt lat="46.84459" lon="6.02662">
        <ele>819.1</ele>
        <time>2020-07-09T11:47:39Z</time>
      </trkpt>
      <trkpt lat="46.84458" lon="6.02655">
        <ele>818.6</ele>
        <time>2020-07-09T11:47:43Z</time>
      </trkpt>
      <trkpt lat="46.84458" lon="6.02648">
        <ele>817.9</ele>
        <time>2020-07-09T11:47:47Z</time>
      </trkpt>
      <trkpt lat="46.8446" lon="6.02641">
        <ele>817.2</ele>
        <time>2020-07-09T11:47:51Z</time>
      </trkpt>
      <trkpt lat="46.8446" lon="6.02634">
        <ele>816.2</ele>
        <time>2020-07-09T11:47:58Z</time>
      </trkpt>
      <trkpt lat="46.8446" lon="6.02627">
        <ele>815.1</ele>
        <time>2020-07-09T11:48:05Z</time>
      </trkpt>
      <trkpt lat="46.84462" lon="6.02621">
        <ele>813.9</ele>
        <time>2020-07-09T11:48:12Z</time>
      </trkpt>
      <trkpt lat="46.84462" lon="6.02614">
        <ele>813.4</ele>
        <time>2020-07-09T11:48:18Z</time>
      </trkpt>
      <trkpt lat="46.84463" lon="6.02607">
        <ele>812.8</ele>
        <time>2020-07-09T11:48:25Z</time>
      </trkpt>
      <trkpt lat="46.84469" lon="6.02589">
        <ele>810.6</ele>
        <time>2020-07-09T11:48:38Z</time>
      </trkpt>
      <trkpt lat="46.84471" lon="6.02582">
        <ele>810.3</ele>
        <time>2020-07-09T11:48:42Z</time>
      </trkpt>
      <trkpt lat="46.84473" lon="6.02576">
        <ele>810.1</ele>
        <time>2020-07-09T11:48:46Z</time>
      </trkpt>
      <trkpt lat="46.84474" lon="6.02568">
        <ele>809.9</ele>
        <time>2020-07-09T11:48:51Z</time>
      </trkpt>
      <trkpt lat="46.84475" lon="6.02561">
        <ele>809.5</ele>
        <time>2020-07-09T11:48:55Z</time>
      </trkpt>
      <trkpt lat="46.84478" lon="6.02556">
        <ele>808.9</ele>
        <time>2020-07-09T11:49:00Z</time>
      </trkpt>
      <trkpt lat="46.8448" lon="6.02548">
        <ele>808.5</ele>
        <time>2020-07-09T11:49:04Z</time>
      </trkpt>
      <trkpt lat="46.84482" lon="6.02541">
        <ele>808.2</ele>
        <time>2020-07-09T11:49:08Z</time>
      </trkpt>
      <trkpt lat="46.84485" lon="6.02535">
        <ele>808.1</ele>
        <time>2020-07-09T11:49:10Z</time>
      </trkpt>
      <trkpt lat="46.84487" lon="6.02528">
        <ele>808.1</ele>
        <time>2020-07-09T11:49:15Z</time>
      </trkpt>
      <trkpt lat="46.8449" lon="6.02522">
        <ele>808.5</ele>
        <time>2020-07-09T11:49:20Z</time>
      </trkpt>
      <trkpt lat="46.84491" lon="6.02513">
        <ele>809</ele>
        <time>2020-07-09T11:49:23Z</time>
      </trkpt>
      <trkpt lat="46.84491" lon="6.02505">
        <ele>809.3</ele>
        <time>2020-07-09T11:49:25Z</time>
      </trkpt>
      <trkpt lat="46.84492" lon="6.02498">
        <ele>810.1</ele>
        <time>2020-07-09T11:49:29Z</time>
      </trkpt>
      <trkpt lat="46.84498" lon="6.02479">
        <ele>814.3</ele>
        <time>2020-07-09T11:49:42Z</time>
      </trkpt>
      <trkpt lat="46.845" lon="6.02473">
        <ele>816.2</ele>
        <time>2020-07-09T11:49:49Z</time>
      </trkpt>
      <trkpt lat="46.84503" lon="6.02467">
        <ele>817.2</ele>
        <time>2020-07-09T11:49:55Z</time>
      </trkpt>
      <trkpt lat="46.84506" lon="6.02461">
        <ele>817.7</ele>
        <time>2020-07-09T11:50:03Z</time>
      </trkpt>
      <trkpt lat="46.84508" lon="6.02455">
        <ele>817.4</ele>
        <time>2020-07-09T11:50:09Z</time>
      </trkpt>
      <trkpt lat="46.8451" lon="6.02449">
        <ele>817</ele>
        <time>2020-07-09T11:50:15Z</time>
      </trkpt>
      <trkpt lat="46.84512" lon="6.02443">
        <ele>816.5</ele>
        <time>2020-07-09T11:50:21Z</time>
      </trkpt>
      <trkpt lat="46.84514" lon="6.02435">
        <ele>815.9</ele>
        <time>2020-07-09T11:50:26Z</time>
      </trkpt>
      <trkpt lat="46.84516" lon="6.02427">
        <ele>815.5</ele>
        <time>2020-07-09T11:50:31Z</time>
      </trkpt>
      <trkpt lat="46.84517" lon="6.0242">
        <ele>815.1</ele>
        <time>2020-07-09T11:50:35Z</time>
      </trkpt>
      <trkpt lat="46.84519" lon="6.02412">
        <ele>814.6</ele>
        <time>2020-07-09T11:50:40Z</time>
      </trkpt>
      <trkpt lat="46.8452" lon="6.02405">
        <ele>814.1</ele>
        <time>2020-07-09T11:50:46Z</time>
      </trkpt>
      <trkpt lat="46.84521" lon="6.02399">
        <ele>813.6</ele>
        <time>2020-07-09T11:50:51Z</time>
      </trkpt>
      <trkpt lat="46.84523" lon="6.02392">
        <ele>813.2</ele>
        <time>2020-07-09T11:50:55Z</time>
      </trkpt>
      <trkpt lat="46.84523" lon="6.02385">
        <ele>812.6</ele>
        <time>2020-07-09T11:51:00Z</time>
      </trkpt>
      <trkpt lat="46.84523" lon="6.02377">
        <ele>811.5</ele>
        <time>2020-07-09T11:51:07Z</time>
      </trkpt>
      <trkpt lat="46.84524" lon="6.02371">
        <ele>810.8</ele>
        <time>2020-07-09T11:51:12Z</time>
      </trkpt>
      <trkpt lat="46.84524" lon="6.02363">
        <ele>810.2</ele>
        <time>2020-07-09T11:51:17Z</time>
      </trkpt>
      <trkpt lat="46.84525" lon="6.02355">
        <ele>809.8</ele>
        <time>2020-07-09T11:51:22Z</time>
      </trkpt>
      <trkpt lat="46.84525" lon="6.02347">
        <ele>809.5</ele>
        <time>2020-07-09T11:51:28Z</time>
      </trkpt>
      <trkpt lat="46.84525" lon="6.0234">
        <ele>809.6</ele>
        <time>2020-07-09T11:51:33Z</time>
      </trkpt>
      <trkpt lat="46.84525" lon="6.02333">
        <ele>809.8</ele>
        <time>2020-07-09T11:51:37Z</time>
      </trkpt>
      <trkpt lat="46.84525" lon="6.02318">
        <ele>809.8</ele>
        <time>2020-07-09T11:51:48Z</time>
      </trkpt>
      <trkpt lat="46.84525" lon="6.0231">
        <ele>809.3</ele>
        <time>2020-07-09T11:51:54Z</time>
      </trkpt>
      <trkpt lat="46.84525" lon="6.02303">
        <ele>809.1</ele>
        <time>2020-07-09T11:51:58Z</time>
      </trkpt>
      <trkpt lat="46.84528" lon="6.02296">
        <ele>808.9</ele>
        <time>2020-07-09T11:52:03Z</time>
      </trkpt>
      <trkpt lat="46.84532" lon="6.0229">
        <ele>808.6</ele>
        <time>2020-07-09T11:52:07Z</time>
      </trkpt>
      <trkpt lat="46.84533" lon="6.02282">
        <ele>808.1</ele>
        <time>2020-07-09T11:52:11Z</time>
      </trkpt>
      <trkpt lat="46.84533" lon="6.02274">
        <ele>807.7</ele>
        <time>2020-07-09T11:52:15Z</time>
      </trkpt>
      <trkpt lat="46.84531" lon="6.02266">
        <ele>807.4</ele>
        <time>2020-07-09T11:52:20Z</time>
      </trkpt>
      <trkpt lat="46.84529" lon="6.02259">
        <ele>807.2</ele>
        <time>2020-07-09T11:52:24Z</time>
      </trkpt>
      <trkpt lat="46.84528" lon="6.02252">
        <ele>807.1</ele>
        <time>2020-07-09T11:52:29Z</time>
      </trkpt>
      <trkpt lat="46.84528" lon="6.02244">
        <ele>806.9</ele>
        <time>2020-07-09T11:52:34Z</time>
      </trkpt>
      <trkpt lat="46.84529" lon="6.02237">
        <ele>806.5</ele>
        <time>2020-07-09T11:52:38Z</time>
      </trkpt>
      <trkpt lat="46.84532" lon="6.0223">
        <ele>806.1</ele>
        <time>2020-07-09T11:52:42Z</time>
      </trkpt>
      <trkpt lat="46.84531" lon="6.02212">
        <ele>804.1</ele>
        <time>2020-07-09T11:52:53Z</time>
      </trkpt>
      <trkpt lat="46.84532" lon="6.02205">
        <ele>803.5</ele>
        <time>2020-07-09T11:52:58Z</time>
      </trkpt>
      <trkpt lat="46.84533" lon="6.02199">
        <ele>802.8</ele>
        <time>2020-07-09T11:53:03Z</time>
      </trkpt>
      <trkpt lat="46.84537" lon="6.02193">
        <ele>802.4</ele>
        <time>2020-07-09T11:53:10Z</time>
      </trkpt>
      <trkpt lat="46.84539" lon="6.02187">
        <ele>801.7</ele>
        <time>2020-07-09T11:53:18Z</time>
      </trkpt>
      <trkpt lat="46.84541" lon="6.0218">
        <ele>801.6</ele>
        <time>2020-07-09T11:53:24Z</time>
      </trkpt>
      <trkpt lat="46.84543" lon="6.02174">
        <ele>801.8</ele>
        <time>2020-07-09T11:53:29Z</time>
      </trkpt>
      <trkpt lat="46.84546" lon="6.02167">
        <ele>802</ele>
        <time>2020-07-09T11:53:35Z</time>
      </trkpt>
      <trkpt lat="46.84548" lon="6.02161">
        <ele>802</ele>
        <time>2020-07-09T11:53:40Z</time>
      </trkpt>
      <trkpt lat="46.84551" lon="6.02156">
        <ele>801.9</ele>
        <time>2020-07-09T11:53:44Z</time>
      </trkpt>
      <trkpt lat="46.84554" lon="6.0215">
        <ele>801.7</ele>
        <time>2020-07-09T11:53:48Z</time>
      </trkpt>
      <trkpt lat="46.84556" lon="6.02143">
        <ele>801.3</ele>
        <time>2020-07-09T11:53:53Z</time>
      </trkpt>
      <trkpt lat="46.84557" lon="6.02135">
        <ele>800.6</ele>
        <time>2020-07-09T11:53:58Z</time>
      </trkpt>
      <trkpt lat="46.84559" lon="6.02129">
        <ele>799.9</ele>
        <time>2020-07-09T11:54:01Z</time>
      </trkpt>
      <trkpt lat="46.84559" lon="6.02121">
        <ele>799.1</ele>
        <time>2020-07-09T11:54:05Z</time>
      </trkpt>
      <trkpt lat="46.84561" lon="6.02114">
        <ele>798.5</ele>
        <time>2020-07-09T11:54:08Z</time>
      </trkpt>
      <trkpt lat="46.84565" lon="6.02107">
        <ele>798.2</ele>
        <time>2020-07-09T11:54:11Z</time>
      </trkpt>
      <trkpt lat="46.84568" lon="6.021">
        <ele>798.3</ele>
        <time>2020-07-09T11:54:14Z</time>
      </trkpt>
      <trkpt lat="46.84571" lon="6.02095">
        <ele>799</ele>
        <time>2020-07-09T11:54:18Z</time>
      </trkpt>
      <trkpt lat="46.84576" lon="6.02093">
        <ele>799.9</ele>
        <time>2020-07-09T11:54:22Z</time>
      </trkpt>
      <trkpt lat="46.84582" lon="6.0209">
        <ele>800.7</ele>
        <time>2020-07-09T11:54:26Z</time>
      </trkpt>
      <trkpt lat="46.84584" lon="6.02072">
        <ele>804.9</ele>
        <time>2020-07-09T11:54:39Z</time>
      </trkpt>
      <trkpt lat="46.84586" lon="6.02065">
        <ele>806.5</ele>
        <time>2020-07-09T11:54:44Z</time>
      </trkpt>
      <trkpt lat="46.8459" lon="6.02061">
        <ele>808.5</ele>
        <time>2020-07-09T11:54:50Z</time>
      </trkpt>
      <trkpt lat="46.84593" lon="6.02056">
        <ele>809.6</ele>
        <time>2020-07-09T11:54:54Z</time>
      </trkpt>
      <trkpt lat="46.84597" lon="6.02051">
        <ele>810.2</ele>
        <time>2020-07-09T11:54:58Z</time>
      </trkpt>
      <trkpt lat="46.846" lon="6.02045">
        <ele>810.6</ele>
        <time>2020-07-09T11:55:02Z</time>
      </trkpt>
      <trkpt lat="46.84602" lon="6.02038">
        <ele>811.1</ele>
        <time>2020-07-09T11:55:08Z</time>
      </trkpt>
      <trkpt lat="46.84604" lon="6.02032">
        <ele>811.3</ele>
        <time>2020-07-09T11:55:13Z</time>
      </trkpt>
      <trkpt lat="46.84606" lon="6.02025">
        <ele>811.3</ele>
        <time>2020-07-09T11:55:20Z</time>
      </trkpt>
      <trkpt lat="46.84609" lon="6.02019">
        <ele>811.2</ele>
        <time>2020-07-09T11:55:27Z</time>
      </trkpt>
      <trkpt lat="46.84614" lon="6.02016">
        <ele>811.3</ele>
        <time>2020-07-09T11:55:33Z</time>
      </trkpt>
      <trkpt lat="46.84618" lon="6.02013">
        <ele>811</ele>
        <time>2020-07-09T11:55:38Z</time>
      </trkpt>
      <trkpt lat="46.84623" lon="6.02013">
        <ele>810.3</ele>
        <time>2020-07-09T11:55:44Z</time>
      </trkpt>
      <trkpt lat="46.84627" lon="6.02016">
        <ele>809.4</ele>
        <time>2020-07-09T11:55:52Z</time>
      </trkpt>
      <trkpt lat="46.84628" lon="6.01998">
        <ele>796.5</ele>
        <time>2020-07-09T11:59:48Z</time>
      </trkpt>
      <trkpt lat="46.84629" lon="6.01991">
        <ele>797</ele>
        <time>2020-07-09T11:59:51Z</time>
      </trkpt>
      <trkpt lat="46.84628" lon="6.01982">
        <ele>797.7</ele>
        <time>2020-07-09T11:59:54Z</time>
      </trkpt>
      <trkpt lat="46.84628" lon="6.01975">
        <ele>798.9</ele>
        <time>2020-07-09T12:00:00Z</time>
      </trkpt>
      <trkpt lat="46.84627" lon="6.01967">
        <ele>799.6</ele>
        <time>2020-07-09T12:00:05Z</time>
      </trkpt>
      <trkpt lat="46.84627" lon="6.0196">
        <ele>800.1</ele>
        <time>2020-07-09T12:00:10Z</time>
      </trkpt>
      <trkpt lat="46.84627" lon="6.01953">
        <ele>800.8</ele>
        <time>2020-07-09T12:00:14Z</time>
      </trkpt>
      <trkpt lat="46.84627" lon="6.01946">
        <ele>801.8</ele>
        <time>2020-07-09T12:00:18Z</time>
      </trkpt>
      <trkpt lat="46.8463" lon="6.01939">
        <ele>803.2</ele>
        <time>2020-07-09T12:00:23Z</time>
      </trkpt>
      <trkpt lat="46.84632" lon="6.01931">
        <ele>804.2</ele>
        <time>2020-07-09T12:00:28Z</time>
      </trkpt>
      <trkpt lat="46.84634" lon="6.01925">
        <ele>804.9</ele>
        <time>2020-07-09T12:00:32Z</time>
      </trkpt>
      <trkpt lat="46.84634" lon="6.01917">
        <ele>805.5</ele>
        <time>2020-07-09T12:00:35Z</time>
      </trkpt>
      <trkpt lat="46.84634" lon="6.01908">
        <ele>806.3</ele>
        <time>2020-07-09T12:00:38Z</time>
      </trkpt>
      <trkpt lat="46.84639" lon="6.01891">
        <ele>810.6</ele>
        <time>2020-07-09T12:00:49Z</time>
      </trkpt>
      <trkpt lat="46.84642" lon="6.01885">
        <ele>812.1</ele>
        <time>2020-07-09T12:00:55Z</time>
      </trkpt>
      <trkpt lat="46.84643" lon="6.01877">
        <ele>813.7</ele>
        <time>2020-07-09T12:01:00Z</time>
      </trkpt>
      <trkpt lat="46.84641" lon="6.01845">
        <ele>820.3</ele>
        <time>2020-07-09T12:01:15Z</time>
      </trkpt>
      <trkpt lat="46.84643" lon="6.01839">
        <ele>821.7</ele>
        <time>2020-07-09T12:01:21Z</time>
      </trkpt>
      <trkpt lat="46.84644" lon="6.01832">
        <ele>822.5</ele>
        <time>2020-07-09T12:01:24Z</time>
      </trkpt>
      <trkpt lat="46.84644" lon="6.01824">
        <ele>823.5</ele>
        <time>2020-07-09T12:01:28Z</time>
      </trkpt>
      <trkpt lat="46.84643" lon="6.01817">
        <ele>824.5</ele>
        <time>2020-07-09T12:01:33Z</time>
      </trkpt>
      <trkpt lat="46.84644" lon="6.0181">
        <ele>825.3</ele>
        <time>2020-07-09T12:01:39Z</time>
      </trkpt>
      <trkpt lat="46.84643" lon="6.01803">
        <ele>825.2</ele>
        <time>2020-07-09T12:01:46Z</time>
      </trkpt>
      <trkpt lat="46.84643" lon="6.01793">
        <ele>825.2</ele>
        <time>2020-07-09T12:01:49Z</time>
      </trkpt>
      <trkpt lat="46.84643" lon="6.01787">
        <ele>825.3</ele>
        <time>2020-07-09T12:01:51Z</time>
      </trkpt>
      <trkpt lat="46.84645" lon="6.0178">
        <ele>825.8</ele>
        <time>2020-07-09T12:01:55Z</time>
      </trkpt>
      <trkpt lat="46.84647" lon="6.01774">
        <ele>826.5</ele>
        <time>2020-07-09T12:02:00Z</time>
      </trkpt>
      <trkpt lat="46.84649" lon="6.01767">
        <ele>826.9</ele>
        <time>2020-07-09T12:02:05Z</time>
      </trkpt>
      <trkpt lat="46.8465" lon="6.01753">
        <ele>826</ele>
        <time>2020-07-09T12:02:19Z</time>
      </trkpt>
      <trkpt lat="46.84651" lon="6.01747">
        <ele>824.7</ele>
        <time>2020-07-09T12:02:24Z</time>
      </trkpt>
      <trkpt lat="46.84652" lon="6.01737">
        <ele>823.7</ele>
        <time>2020-07-09T12:02:27Z</time>
      </trkpt>
      <trkpt lat="46.84652" lon="6.0173">
        <ele>822.5</ele>
        <time>2020-07-09T12:02:31Z</time>
      </trkpt>
      <trkpt lat="46.84653" lon="6.01723">
        <ele>821.2</ele>
        <time>2020-07-09T12:02:36Z</time>
      </trkpt>
      <trkpt lat="46.84656" lon="6.01716">
        <ele>820.4</ele>
        <time>2020-07-09T12:02:41Z</time>
      </trkpt>
      <trkpt lat="46.84659" lon="6.01709">
        <ele>819.8</ele>
        <time>2020-07-09T12:02:46Z</time>
      </trkpt>
      <trkpt lat="46.84661" lon="6.01702">
        <ele>819.5</ele>
        <time>2020-07-09T12:02:51Z</time>
      </trkpt>
      <trkpt lat="46.84662" lon="6.01695">
        <ele>819.2</ele>
        <time>2020-07-09T12:02:56Z</time>
      </trkpt>
      <trkpt lat="46.84665" lon="6.0169">
        <ele>818.8</ele>
        <time>2020-07-09T12:03:01Z</time>
      </trkpt>
      <trkpt lat="46.84667" lon="6.01683">
        <ele>818.5</ele>
        <time>2020-07-09T12:03:06Z</time>
      </trkpt>
      <trkpt lat="46.84671" lon="6.01677">
        <ele>818.5</ele>
        <time>2020-07-09T12:03:11Z</time>
      </trkpt>
      <trkpt lat="46.84672" lon="6.01669">
        <ele>819.1</ele>
        <time>2020-07-09T12:03:16Z</time>
      </trkpt>
      <trkpt lat="46.84673" lon="6.01661">
        <ele>819.8</ele>
        <time>2020-07-09T12:03:20Z</time>
      </trkpt>
      <trkpt lat="46.84673" lon="6.01653">
        <ele>820.8</ele>
        <time>2020-07-09T12:03:26Z</time>
      </trkpt>
      <trkpt lat="46.84674" lon="6.01646">
        <ele>821.9</ele>
        <time>2020-07-09T12:03:32Z</time>
      </trkpt>
      <trkpt lat="46.84675" lon="6.0164">
        <ele>823.4</ele>
        <time>2020-07-09T12:03:39Z</time>
      </trkpt>
      <trkpt lat="46.84676" lon="6.01633">
        <ele>824</ele>
        <time>2020-07-09T12:03:44Z</time>
      </trkpt>
      <trkpt lat="46.84678" lon="6.01626">
        <ele>824.4</ele>
        <time>2020-07-09T12:03:48Z</time>
      </trkpt>
      <trkpt lat="46.84678" lon="6.01619">
        <ele>824.7</ele>
        <time>2020-07-09T12:03:53Z</time>
      </trkpt>
      <trkpt lat="46.84679" lon="6.0161">
        <ele>825</ele>
        <time>2020-07-09T12:03:57Z</time>
      </trkpt>
      <trkpt lat="46.84681" lon="6.01603">
        <ele>825.4</ele>
        <time>2020-07-09T12:04:00Z</time>
      </trkpt>
      <trkpt lat="46.8468" lon="6.01596">
        <ele>825.8</ele>
        <time>2020-07-09T12:04:03Z</time>
      </trkpt>
      <trkpt lat="46.84681" lon="6.01589">
        <ele>826.4</ele>
        <time>2020-07-09T12:04:07Z</time>
      </trkpt>
      <trkpt lat="46.8468" lon="6.01581">
        <ele>827.2</ele>
        <time>2020-07-09T12:04:12Z</time>
      </trkpt>
      <trkpt lat="46.84679" lon="6.01574">
        <ele>827.8</ele>
        <time>2020-07-09T12:04:16Z</time>
      </trkpt>
      <trkpt lat="46.84677" lon="6.01567">
        <ele>828.3</ele>
        <time>2020-07-09T12:04:20Z</time>
      </trkpt>
      <trkpt lat="46.84676" lon="6.01561">
        <ele>829</ele>
        <time>2020-07-09T12:04:24Z</time>
      </trkpt>
      <trkpt lat="46.84674" lon="6.01554">
        <ele>829.6</ele>
        <time>2020-07-09T12:04:28Z</time>
      </trkpt>
      <trkpt lat="46.84673" lon="6.01546">
        <ele>830.8</ele>
        <time>2020-07-09T12:04:35Z</time>
      </trkpt>
      <trkpt lat="46.84674" lon="6.01539">
        <ele>831.5</ele>
        <time>2020-07-09T12:04:41Z</time>
      </trkpt>
      <trkpt lat="46.84673" lon="6.01531">
        <ele>832.2</ele>
        <time>2020-07-09T12:04:47Z</time>
      </trkpt>
      <trkpt lat="46.84672" lon="6.01525">
        <ele>832.7</ele>
        <time>2020-07-09T12:04:52Z</time>
      </trkpt>
      <trkpt lat="46.8467" lon="6.01517">
        <ele>832.7</ele>
        <time>2020-07-09T12:04:56Z</time>
      </trkpt>
      <trkpt lat="46.8467" lon="6.0151">
        <ele>832.3</ele>
        <time>2020-07-09T12:05:02Z</time>
      </trkpt>
      <trkpt lat="46.84669" lon="6.01503">
        <ele>831.7</ele>
        <time>2020-07-09T12:05:06Z</time>
      </trkpt>
      <trkpt lat="46.8467" lon="6.01495">
        <ele>831</ele>
        <time>2020-07-09T12:05:10Z</time>
      </trkpt>
      <trkpt lat="46.84669" lon="6.01487">
        <ele>829.4</ele>
        <time>2020-07-09T12:05:16Z</time>
      </trkpt>
      <trkpt lat="46.84668" lon="6.01481">
        <ele>827.8</ele>
        <time>2020-07-09T12:05:20Z</time>
      </trkpt>
      <trkpt lat="46.84666" lon="6.01474">
        <ele>826.1</ele>
        <time>2020-07-09T12:05:24Z</time>
      </trkpt>
      <trkpt lat="46.84665" lon="6.01465">
        <ele>824.4</ele>
        <time>2020-07-09T12:05:28Z</time>
      </trkpt>
      <trkpt lat="46.84664" lon="6.01458">
        <ele>822</ele>
        <time>2020-07-09T12:05:33Z</time>
      </trkpt>
      <trkpt lat="46.84662" lon="6.01451">
        <ele>819.4</ele>
        <time>2020-07-09T12:05:39Z</time>
      </trkpt>
      <trkpt lat="46.84659" lon="6.01445">
        <ele>817.7</ele>
        <time>2020-07-09T12:05:43Z</time>
      </trkpt>
      <trkpt lat="46.84655" lon="6.01439">
        <ele>815.9</ele>
        <time>2020-07-09T12:05:47Z</time>
      </trkpt>
      <trkpt lat="46.84653" lon="6.01432">
        <ele>814.2</ele>
        <time>2020-07-09T12:05:51Z</time>
      </trkpt>
      <trkpt lat="46.84651" lon="6.01426">
        <ele>812.7</ele>
        <time>2020-07-09T12:05:55Z</time>
      </trkpt>
      <trkpt lat="46.84649" lon="6.0142">
        <ele>811</ele>
        <time>2020-07-09T12:06:00Z</time>
      </trkpt>
      <trkpt lat="46.84647" lon="6.01414">
        <ele>809</ele>
        <time>2020-07-09T12:06:07Z</time>
      </trkpt>
      <trkpt lat="46.84646" lon="6.01407">
        <ele>807</ele>
        <time>2020-07-09T12:06:14Z</time>
      </trkpt>
      <trkpt lat="46.84644" lon="6.01399">
        <ele>805.2</ele>
        <time>2020-07-09T12:06:19Z</time>
      </trkpt>
      <trkpt lat="46.84641" lon="6.01394">
        <ele>803.2</ele>
        <time>2020-07-09T12:06:24Z</time>
      </trkpt>
      <trkpt lat="46.84638" lon="6.01388">
        <ele>799.9</ele>
        <time>2020-07-09T12:06:32Z</time>
      </trkpt>
      <trkpt lat="46.84636" lon="6.01382">
        <ele>797.8</ele>
        <time>2020-07-09T12:06:37Z</time>
      </trkpt>
      <trkpt lat="46.84633" lon="6.01375">
        <ele>795.8</ele>
        <time>2020-07-09T12:06:42Z</time>
      </trkpt>
      <trkpt lat="46.84631" lon="6.01368">
        <ele>794.2</ele>
        <time>2020-07-09T12:06:46Z</time>
      </trkpt>
      <trkpt lat="46.84629" lon="6.01361">
        <ele>792</ele>
        <time>2020-07-09T12:06:51Z</time>
      </trkpt>
      <trkpt lat="46.84627" lon="6.01354">
        <ele>789.7</ele>
        <time>2020-07-09T12:06:56Z</time>
      </trkpt>
      <trkpt lat="46.84623" lon="6.0135">
        <ele>787.5</ele>
        <time>2020-07-09T12:07:01Z</time>
      </trkpt>
      <trkpt lat="46.8462" lon="6.01343">
        <ele>784.6</ele>
        <time>2020-07-09T12:07:08Z</time>
      </trkpt>
      <trkpt lat="46.84617" lon="6.01337">
        <ele>782.7</ele>
        <time>2020-07-09T12:07:13Z</time>
      </trkpt>
      <trkpt lat="46.84614" lon="6.01331">
        <ele>780.8</ele>
        <time>2020-07-09T12:07:18Z</time>
      </trkpt>
      <trkpt lat="46.8461" lon="6.01328">
        <ele>777.2</ele>
        <time>2020-07-09T12:07:27Z</time>
      </trkpt>
      <trkpt lat="46.84607" lon="6.01322">
        <ele>775.7</ele>
        <time>2020-07-09T12:07:31Z</time>
      </trkpt>
      <trkpt lat="46.84604" lon="6.01316">
        <ele>774.4</ele>
        <time>2020-07-09T12:07:35Z</time>
      </trkpt>
      <trkpt lat="46.84602" lon="6.01309">
        <ele>772.8</ele>
        <time>2020-07-09T12:07:41Z</time>
      </trkpt>
      <trkpt lat="46.846" lon="6.01303">
        <ele>771.9</ele>
        <time>2020-07-09T12:07:45Z</time>
      </trkpt>
      <trkpt lat="46.84598" lon="6.01296">
        <ele>771.4</ele>
        <time>2020-07-09T12:07:49Z</time>
      </trkpt>
      <trkpt lat="46.84597" lon="6.01288">
        <ele>771.3</ele>
        <time>2020-07-09T12:07:51Z</time>
      </trkpt>
      <trkpt lat="46.84595" lon="6.01281">
        <ele>771.2</ele>
        <time>2020-07-09T12:07:54Z</time>
      </trkpt>
      <trkpt lat="46.84592" lon="6.01276">
        <ele>771.2</ele>
        <time>2020-07-09T12:07:57Z</time>
      </trkpt>
      <trkpt lat="46.84589" lon="6.01271">
        <ele>771.9</ele>
        <time>2020-07-09T12:08:03Z</time>
      </trkpt>
      <trkpt lat="46.84585" lon="6.01265">
        <ele>773</ele>
        <time>2020-07-09T12:08:10Z</time>
      </trkpt>
      <trkpt lat="46.84572" lon="6.01251">
        <ele>775.3</ele>
        <time>2020-07-09T12:08:23Z</time>
      </trkpt>
      <trkpt lat="46.84569" lon="6.01246">
        <ele>776.1</ele>
        <time>2020-07-09T12:08:29Z</time>
      </trkpt>
      <trkpt lat="46.84559" lon="6.01232">
        <ele>776.8</ele>
        <time>2020-07-09T12:08:43Z</time>
      </trkpt>
      <trkpt lat="46.84556" lon="6.01226">
        <ele>776.6</ele>
        <time>2020-07-09T12:08:46Z</time>
      </trkpt>
      <trkpt lat="46.8455" lon="6.01216">
        <ele>775.8</ele>
        <time>2020-07-09T12:08:54Z</time>
      </trkpt>
      <trkpt lat="46.84547" lon="6.01208">
        <ele>775.7</ele>
        <time>2020-07-09T12:09:01Z</time>
      </trkpt>
      <trkpt lat="46.84538" lon="6.01195">
        <ele>776.1</ele>
        <time>2020-07-09T12:09:13Z</time>
      </trkpt>
      <trkpt lat="46.8453" lon="6.01175">
        <ele>775.9</ele>
        <time>2020-07-09T12:09:30Z</time>
      </trkpt>
      <trkpt lat="46.84527" lon="6.01169">
        <ele>775.8</ele>
        <time>2020-07-09T12:09:34Z</time>
      </trkpt>
      <trkpt lat="46.84523" lon="6.01163">
        <ele>775.8</ele>
        <time>2020-07-09T12:09:39Z</time>
      </trkpt>
      <trkpt lat="46.84521" lon="6.01157">
        <ele>775.5</ele>
        <time>2020-07-09T12:09:43Z</time>
      </trkpt>
      <trkpt lat="46.84518" lon="6.01151">
        <ele>775.1</ele>
        <time>2020-07-09T12:09:47Z</time>
      </trkpt>
      <trkpt lat="46.84515" lon="6.01145">
        <ele>774.8</ele>
        <time>2020-07-09T12:09:51Z</time>
      </trkpt>
      <trkpt lat="46.84511" lon="6.0114">
        <ele>774.5</ele>
        <time>2020-07-09T12:09:54Z</time>
      </trkpt>
      <trkpt lat="46.84507" lon="6.01137">
        <ele>774.3</ele>
        <time>2020-07-09T12:09:58Z</time>
      </trkpt>
      <trkpt lat="46.84504" lon="6.0113">
        <ele>774.1</ele>
        <time>2020-07-09T12:10:03Z</time>
      </trkpt>
      <trkpt lat="46.84502" lon="6.01124">
        <ele>774.1</ele>
        <time>2020-07-09T12:10:08Z</time>
      </trkpt>
      <trkpt lat="46.845" lon="6.01116">
        <ele>774.3</ele>
        <time>2020-07-09T12:10:13Z</time>
      </trkpt>
      <trkpt lat="46.84498" lon="6.01109">
        <ele>774.4</ele>
        <time>2020-07-09T12:10:18Z</time>
      </trkpt>
      <trkpt lat="46.84496" lon="6.01103">
        <ele>774.3</ele>
        <time>2020-07-09T12:10:22Z</time>
      </trkpt>
      <trkpt lat="46.84494" lon="6.01095">
        <ele>774.1</ele>
        <time>2020-07-09T12:10:25Z</time>
      </trkpt>
      <trkpt lat="46.84488" lon="6.01079">
        <ele>773.4</ele>
        <time>2020-07-09T12:10:35Z</time>
      </trkpt>
      <trkpt lat="46.84485" lon="6.01066">
        <ele>773.8</ele>
        <time>2020-07-09T12:10:49Z</time>
      </trkpt>
      <trkpt lat="46.84484" lon="6.01059">
        <ele>773.7</ele>
        <time>2020-07-09T12:10:55Z</time>
      </trkpt>
      <trkpt lat="46.84481" lon="6.01053">
        <ele>774.4</ele>
        <time>2020-07-09T12:11:01Z</time>
      </trkpt>
      <trkpt lat="46.84479" lon="6.01047">
        <ele>776.3</ele>
        <time>2020-07-09T12:11:10Z</time>
      </trkpt>
      <trkpt lat="46.84475" lon="6.01041">
        <ele>777.1</ele>
        <time>2020-07-09T12:11:14Z</time>
      </trkpt>
      <trkpt lat="46.84471" lon="6.01034">
        <ele>778</ele>
        <time>2020-07-09T12:11:18Z</time>
      </trkpt>
      <trkpt lat="46.84468" lon="6.01028">
        <ele>778.9</ele>
        <time>2020-07-09T12:11:22Z</time>
      </trkpt>
      <trkpt lat="46.84466" lon="6.01022">
        <ele>779.7</ele>
        <time>2020-07-09T12:11:27Z</time>
      </trkpt>
      <trkpt lat="46.84463" lon="6.01018">
        <ele>780.1</ele>
        <time>2020-07-09T12:11:31Z</time>
      </trkpt>
      <trkpt lat="46.84459" lon="6.01012">
        <ele>780.4</ele>
        <time>2020-07-09T12:11:35Z</time>
      </trkpt>
      <trkpt lat="46.84456" lon="6.01007">
        <ele>780.4</ele>
        <time>2020-07-09T12:11:40Z</time>
      </trkpt>
      <trkpt lat="46.84452" lon="6.01003">
        <ele>780.1</ele>
        <time>2020-07-09T12:11:44Z</time>
      </trkpt>
      <trkpt lat="46.84448" lon="6.00998">
        <ele>779.4</ele>
        <time>2020-07-09T12:11:49Z</time>
      </trkpt>
      <trkpt lat="46.84444" lon="6.00993">
        <ele>778.3</ele>
        <time>2020-07-09T12:11:54Z</time>
      </trkpt>
      <trkpt lat="46.8444" lon="6.00988">
        <ele>776.9</ele>
        <time>2020-07-09T12:11:59Z</time>
      </trkpt>
      <trkpt lat="46.84437" lon="6.00983">
        <ele>775.3</ele>
        <time>2020-07-09T12:12:05Z</time>
      </trkpt>
      <trkpt lat="46.84433" lon="6.00977">
        <ele>774.2</ele>
        <time>2020-07-09T12:12:10Z</time>
      </trkpt>
      <trkpt lat="46.84428" lon="6.00974">
        <ele>773.3</ele>
        <time>2020-07-09T12:12:18Z</time>
      </trkpt>
      <trkpt lat="46.84424" lon="6.0097">
        <ele>772.5</ele>
        <time>2020-07-09T12:12:25Z</time>
      </trkpt>
      <trkpt lat="46.84419" lon="6.00966">
        <ele>772.1</ele>
        <time>2020-07-09T12:12:29Z</time>
      </trkpt>
      <trkpt lat="46.84414" lon="6.00963">
        <ele>771.6</ele>
        <time>2020-07-09T12:12:33Z</time>
      </trkpt>
      <trkpt lat="46.84409" lon="6.0096">
        <ele>771.2</ele>
        <time>2020-07-09T12:12:37Z</time>
      </trkpt>
      <trkpt lat="46.84404" lon="6.00958">
        <ele>770.9</ele>
        <time>2020-07-09T12:12:40Z</time>
      </trkpt>
      <trkpt lat="46.844" lon="6.00955">
        <ele>770.6</ele>
        <time>2020-07-09T12:12:45Z</time>
      </trkpt>
      <trkpt lat="46.84396" lon="6.00951">
        <ele>770.4</ele>
        <time>2020-07-09T12:12:51Z</time>
      </trkpt>
      <trkpt lat="46.84391" lon="6.00949">
        <ele>770.3</ele>
        <time>2020-07-09T12:12:57Z</time>
      </trkpt>
      <trkpt lat="46.84386" lon="6.00947">
        <ele>770.5</ele>
        <time>2020-07-09T12:13:02Z</time>
      </trkpt>
      <trkpt lat="46.84382" lon="6.00945">
        <ele>770.6</ele>
        <time>2020-07-09T12:13:07Z</time>
      </trkpt>
      <trkpt lat="46.84378" lon="6.00942">
        <ele>770.8</ele>
        <time>2020-07-09T12:13:13Z</time>
      </trkpt>
      <trkpt lat="46.84369" lon="6.00932">
        <ele>771.5</ele>
        <time>2020-07-09T12:13:26Z</time>
      </trkpt>
      <trkpt lat="46.84365" lon="6.00927">
        <ele>771.9</ele>
        <time>2020-07-09T12:13:31Z</time>
      </trkpt>
      <trkpt lat="46.84362" lon="6.00923">
        <ele>772.3</ele>
        <time>2020-07-09T12:13:35Z</time>
      </trkpt>
      <trkpt lat="46.84357" lon="6.00918">
        <ele>772.6</ele>
        <time>2020-07-09T12:13:39Z</time>
      </trkpt>
      <trkpt lat="46.84354" lon="6.00914">
        <ele>772.8</ele>
        <time>2020-07-09T12:13:42Z</time>
      </trkpt>
      <trkpt lat="46.8435" lon="6.00908">
        <ele>772.8</ele>
        <time>2020-07-09T12:13:46Z</time>
      </trkpt>
      <trkpt lat="46.84346" lon="6.00904">
        <ele>772.7</ele>
        <time>2020-07-09T12:13:50Z</time>
      </trkpt>
      <trkpt lat="46.84342" lon="6.00899">
        <ele>772.4</ele>
        <time>2020-07-09T12:13:54Z</time>
      </trkpt>
      <trkpt lat="46.84339" lon="6.00895">
        <ele>772.3</ele>
        <time>2020-07-09T12:13:58Z</time>
      </trkpt>
      <trkpt lat="46.84334" lon="6.00892">
        <ele>772</ele>
        <time>2020-07-09T12:14:04Z</time>
      </trkpt>
      <trkpt lat="46.84329" lon="6.0089">
        <ele>771.7</ele>
        <time>2020-07-09T12:14:11Z</time>
      </trkpt>
      <trkpt lat="46.84325" lon="6.00887">
        <ele>771.4</ele>
        <time>2020-07-09T12:14:15Z</time>
      </trkpt>
      <trkpt lat="46.8432" lon="6.00885">
        <ele>770.9</ele>
        <time>2020-07-09T12:14:20Z</time>
      </trkpt>
      <trkpt lat="46.84315" lon="6.00882">
        <ele>770.4</ele>
        <time>2020-07-09T12:14:25Z</time>
      </trkpt>
      <trkpt lat="46.8431" lon="6.00879">
        <ele>769.7</ele>
        <time>2020-07-09T12:14:30Z</time>
      </trkpt>
      <trkpt lat="46.84305" lon="6.00875">
        <ele>769</ele>
        <time>2020-07-09T12:14:35Z</time>
      </trkpt>
      <trkpt lat="46.84301" lon="6.00871">
        <ele>768.6</ele>
        <time>2020-07-09T12:14:39Z</time>
      </trkpt>
      <trkpt lat="46.84298" lon="6.00866">
        <ele>767.9</ele>
        <time>2020-07-09T12:14:44Z</time>
      </trkpt>
      <trkpt lat="46.84294" lon="6.00863">
        <ele>767.1</ele>
        <time>2020-07-09T12:14:49Z</time>
      </trkpt>
      <trkpt lat="46.84289" lon="6.00859">
        <ele>766.3</ele>
        <time>2020-07-09T12:14:55Z</time>
      </trkpt>
      <trkpt lat="46.84285" lon="6.00855">
        <ele>765.9</ele>
        <time>2020-07-09T12:14:59Z</time>
      </trkpt>
      <trkpt lat="46.84281" lon="6.00852">
        <ele>765.7</ele>
        <time>2020-07-09T12:15:03Z</time>
      </trkpt>
      <trkpt lat="46.84276" lon="6.00851">
        <ele>765.6</ele>
        <time>2020-07-09T12:15:07Z</time>
      </trkpt>
      <trkpt lat="46.84271" lon="6.00849">
        <ele>765.7</ele>
        <time>2020-07-09T12:15:11Z</time>
      </trkpt>
      <trkpt lat="46.84266" lon="6.00845">
        <ele>765.7</ele>
        <time>2020-07-09T12:15:15Z</time>
      </trkpt>
      <trkpt lat="46.84262" lon="6.00842">
        <ele>765.9</ele>
        <time>2020-07-09T12:15:20Z</time>
      </trkpt>
      <trkpt lat="46.84257" lon="6.0084">
        <ele>766.2</ele>
        <time>2020-07-09T12:15:25Z</time>
      </trkpt>
      <trkpt lat="46.84253" lon="6.00837">
        <ele>766.4</ele>
        <time>2020-07-09T12:15:30Z</time>
      </trkpt>
      <trkpt lat="46.84248" lon="6.00834">
        <ele>766.1</ele>
        <time>2020-07-09T12:15:35Z</time>
      </trkpt>
      <trkpt lat="46.84243" lon="6.00829">
        <ele>765.6</ele>
        <time>2020-07-09T12:15:39Z</time>
      </trkpt>
      <trkpt lat="46.8424" lon="6.00823">
        <ele>765</ele>
        <time>2020-07-09T12:15:43Z</time>
      </trkpt>
      <trkpt lat="46.84236" lon="6.00818">
        <ele>764.3</ele>
        <time>2020-07-09T12:15:47Z</time>
      </trkpt>
      <trkpt lat="46.84232" lon="6.00813">
        <ele>763</ele>
        <time>2020-07-09T12:15:52Z</time>
      </trkpt>
      <trkpt lat="46.84228" lon="6.00809">
        <ele>761.7</ele>
        <time>2020-07-09T12:15:57Z</time>
      </trkpt>
      <trkpt lat="46.84224" lon="6.00806">
        <ele>760.5</ele>
        <time>2020-07-09T12:16:01Z</time>
      </trkpt>
      <trkpt lat="46.8422" lon="6.00802">
        <ele>759</ele>
        <time>2020-07-09T12:16:06Z</time>
      </trkpt>
      <trkpt lat="46.84215" lon="6.00798">
        <ele>757.3</ele>
        <time>2020-07-09T12:16:12Z</time>
      </trkpt>
      <trkpt lat="46.8421" lon="6.00793">
        <ele>756.2</ele>
        <time>2020-07-09T12:16:16Z</time>
      </trkpt>
      <trkpt lat="46.84207" lon="6.00787">
        <ele>755.1</ele>
        <time>2020-07-09T12:16:20Z</time>
      </trkpt>
      <trkpt lat="46.84203" lon="6.00781">
        <ele>753.7</ele>
        <time>2020-07-09T12:16:25Z</time>
      </trkpt>
      <trkpt lat="46.84198" lon="6.00779">
        <ele>751.8</ele>
        <time>2020-07-09T12:16:31Z</time>
      </trkpt>
      <trkpt lat="46.84195" lon="6.00774">
        <ele>749.2</ele>
        <time>2020-07-09T12:16:38Z</time>
      </trkpt>
      <trkpt lat="46.8419" lon="6.0077">
        <ele>746.6</ele>
        <time>2020-07-09T12:16:44Z</time>
      </trkpt>
      <trkpt lat="46.84185" lon="6.00767">
        <ele>744.3</ele>
        <time>2020-07-09T12:16:49Z</time>
      </trkpt>
      <trkpt lat="46.84181" lon="6.00765">
        <ele>742</ele>
        <time>2020-07-09T12:16:54Z</time>
      </trkpt>
      <trkpt lat="46.84177" lon="6.0076">
        <ele>739.5</ele>
        <time>2020-07-09T12:17:00Z</time>
      </trkpt>
      <trkpt lat="46.84173" lon="6.00756">
        <ele>737.6</ele>
        <time>2020-07-09T12:17:05Z</time>
      </trkpt>
      <trkpt lat="46.84167" lon="6.00752">
        <ele>736.3</ele>
        <time>2020-07-09T12:17:09Z</time>
      </trkpt>
      <trkpt lat="46.84162" lon="6.0075">
        <ele>735.2</ele>
        <time>2020-07-09T12:17:13Z</time>
      </trkpt>
      <trkpt lat="46.84157" lon="6.00749">
        <ele>734.7</ele>
        <time>2020-07-09T12:17:16Z</time>
      </trkpt>
      <trkpt lat="46.84146" lon="6.00743">
        <ele>733.7</ele>
        <time>2020-07-09T12:17:24Z</time>
      </trkpt>
      <trkpt lat="46.84142" lon="6.00743">
        <ele>733.7</ele>
        <time>2020-07-09T12:17:27Z</time>
      </trkpt>
      <trkpt lat="46.84137" lon="6.00739">
        <ele>733.7</ele>
        <time>2020-07-09T12:17:32Z</time>
      </trkpt>
      <trkpt lat="46.84133" lon="6.00735">
        <ele>733.7</ele>
        <time>2020-07-09T12:17:37Z</time>
      </trkpt>
      <trkpt lat="46.84129" lon="6.00732">
        <ele>733.6</ele>
        <time>2020-07-09T12:17:42Z</time>
      </trkpt>
      <trkpt lat="46.84124" lon="6.0073">
        <ele>733.1</ele>
        <time>2020-07-09T12:17:47Z</time>
      </trkpt>
      <trkpt lat="46.8412" lon="6.00726">
        <ele>732.1</ele>
        <time>2020-07-09T12:17:52Z</time>
      </trkpt>
      <trkpt lat="46.84116" lon="6.00722">
        <ele>731.2</ele>
        <time>2020-07-09T12:17:56Z</time>
      </trkpt>
      <trkpt lat="46.84112" lon="6.00717">
        <ele>730.2</ele>
        <time>2020-07-09T12:18:01Z</time>
      </trkpt>
      <trkpt lat="46.84108" lon="6.00711">
        <ele>729.5</ele>
        <time>2020-07-09T12:18:07Z</time>
      </trkpt>
      <trkpt lat="46.84104" lon="6.00704">
        <ele>729.1</ele>
        <time>2020-07-09T12:18:12Z</time>
      </trkpt>
      <trkpt lat="46.841" lon="6.00701">
        <ele>728.6</ele>
        <time>2020-07-09T12:18:16Z</time>
      </trkpt>
      <trkpt lat="46.84097" lon="6.00695">
        <ele>727.9</ele>
        <time>2020-07-09T12:18:21Z</time>
      </trkpt>
      <trkpt lat="46.84094" lon="6.0069">
        <ele>727.1</ele>
        <time>2020-07-09T12:18:26Z</time>
      </trkpt>
      <trkpt lat="46.84086" lon="6.00682">
        <ele>725.5</ele>
        <time>2020-07-09T12:18:36Z</time>
      </trkpt>
      <trkpt lat="46.84083" lon="6.00677">
        <ele>725.9</ele>
        <time>2020-07-09T12:18:40Z</time>
      </trkpt>
      <trkpt lat="46.8408" lon="6.00671">
        <ele>726.7</ele>
        <time>2020-07-09T12:18:45Z</time>
      </trkpt>
      <trkpt lat="46.84077" lon="6.00665">
        <ele>727.5</ele>
        <time>2020-07-09T12:18:48Z</time>
      </trkpt>
      <trkpt lat="46.84074" lon="6.0066">
        <ele>729</ele>
        <time>2020-07-09T12:18:52Z</time>
      </trkpt>
      <trkpt lat="46.84071" lon="6.00653">
        <ele>730.5</ele>
        <time>2020-07-09T12:18:56Z</time>
      </trkpt>
      <trkpt lat="46.8407" lon="6.00645">
        <ele>731.9</ele>
        <time>2020-07-09T12:19:00Z</time>
      </trkpt>
      <trkpt lat="46.84068" lon="6.00638">
        <ele>733.9</ele>
        <time>2020-07-09T12:19:05Z</time>
      </trkpt>
      <trkpt lat="46.84067" lon="6.00631">
        <ele>736</ele>
        <time>2020-07-09T12:19:10Z</time>
      </trkpt>
      <trkpt lat="46.84065" lon="6.00624">
        <ele>737.7</ele>
        <time>2020-07-09T12:19:14Z</time>
      </trkpt>
      <trkpt lat="46.84063" lon="6.00617">
        <ele>739.9</ele>
        <time>2020-07-09T12:19:19Z</time>
      </trkpt>
      <trkpt lat="46.84061" lon="6.00596">
        <ele>745.6</ele>
        <time>2020-07-09T12:19:32Z</time>
      </trkpt>
      <trkpt lat="46.84064" lon="6.0059">
        <ele>747.3</ele>
        <time>2020-07-09T12:19:44Z</time>
      </trkpt>
      <trkpt lat="46.84065" lon="6.00583">
        <ele>747.6</ele>
        <time>2020-07-09T12:19:48Z</time>
      </trkpt>
      <trkpt lat="46.84066" lon="6.00577">
        <ele>748</ele>
        <time>2020-07-09T12:19:54Z</time>
      </trkpt>
      <trkpt lat="46.84068" lon="6.00569">
        <ele>749</ele>
        <time>2020-07-09T12:20:04Z</time>
      </trkpt>
      <trkpt lat="46.84068" lon="6.00561">
        <ele>749.4</ele>
        <time>2020-07-09T12:20:07Z</time>
      </trkpt>
      <trkpt lat="46.84069" lon="6.00554">
        <ele>749.7</ele>
        <time>2020-07-09T12:20:09Z</time>
      </trkpt>
      <trkpt lat="46.84071" lon="6.00548">
        <ele>750.2</ele>
        <time>2020-07-09T12:20:13Z</time>
      </trkpt>
      <trkpt lat="46.84072" lon="6.00541">
        <ele>750.7</ele>
        <time>2020-07-09T12:20:16Z</time>
      </trkpt>
      <trkpt lat="46.84074" lon="6.00534">
        <ele>751.4</ele>
        <time>2020-07-09T12:20:21Z</time>
      </trkpt>
      <trkpt lat="46.84085" lon="6.00526">
        <ele>752.8</ele>
        <time>2020-07-09T12:20:35Z</time>
      </trkpt>
      <trkpt lat="46.8409" lon="6.00524">
        <ele>752.9</ele>
        <time>2020-07-09T12:20:38Z</time>
      </trkpt>
      <trkpt lat="46.84094" lon="6.00521">
        <ele>752.9</ele>
        <time>2020-07-09T12:20:40Z</time>
      </trkpt>
      <trkpt lat="46.84099" lon="6.00519">
        <ele>752.9</ele>
        <time>2020-07-09T12:20:44Z</time>
      </trkpt>
      <trkpt lat="46.84104" lon="6.00515">
        <ele>752.7</ele>
        <time>2020-07-09T12:20:50Z</time>
      </trkpt>
      <trkpt lat="46.84108" lon="6.00513">
        <ele>752.6</ele>
        <time>2020-07-09T12:20:57Z</time>
      </trkpt>
      <trkpt lat="46.84115" lon="6.00509">
        <ele>752.1</ele>
        <time>2020-07-09T12:21:04Z</time>
      </trkpt>
      <trkpt lat="46.84122" lon="6.00507">
        <ele>751.9</ele>
        <time>2020-07-09T12:21:06Z</time>
      </trkpt>
      <trkpt lat="46.84127" lon="6.00507">
        <ele>751.6</ele>
        <time>2020-07-09T12:21:08Z</time>
      </trkpt>
      <trkpt lat="46.84134" lon="6.00507">
        <ele>750.5</ele>
        <time>2020-07-09T12:21:12Z</time>
      </trkpt>
      <trkpt lat="46.84139" lon="6.00511">
        <ele>749</ele>
        <time>2020-07-09T12:21:16Z</time>
      </trkpt>
      <trkpt lat="46.84144" lon="6.00513">
        <ele>746.2</ele>
        <time>2020-07-09T12:21:22Z</time>
      </trkpt>
      <trkpt lat="46.84148" lon="6.00513">
        <ele>744.8</ele>
        <time>2020-07-09T12:21:25Z</time>
      </trkpt>
      <trkpt lat="46.84153" lon="6.00515">
        <ele>742.3</ele>
        <time>2020-07-09T12:21:31Z</time>
      </trkpt>
      <trkpt lat="46.84158" lon="6.00515">
        <ele>740.5</ele>
        <time>2020-07-09T12:21:36Z</time>
      </trkpt>
      <trkpt lat="46.84163" lon="6.00514">
        <ele>738.7</ele>
        <time>2020-07-09T12:21:41Z</time>
      </trkpt>
      <trkpt lat="46.8417" lon="6.00515">
        <ele>736.9</ele>
        <time>2020-07-09T12:21:46Z</time>
      </trkpt>
      <trkpt lat="46.84174" lon="6.00515">
        <ele>735.3</ele>
        <time>2020-07-09T12:21:51Z</time>
      </trkpt>
      <trkpt lat="46.84222" lon="6.00513">
        <ele>733.2</ele>
        <time>2020-07-09T12:22:33Z</time>
      </trkpt>
      <trkpt lat="46.84227" lon="6.00512">
        <ele>733.5</ele>
        <time>2020-07-09T12:22:38Z</time>
      </trkpt>
      <trkpt lat="46.84231" lon="6.0051">
        <ele>734.7</ele>
        <time>2020-07-09T12:22:47Z</time>
      </trkpt>
      <trkpt lat="46.84333" lon="6.00523">
        <ele>738.4</ele>
        <time>2020-07-09T12:23:30Z</time>
      </trkpt>
      <trkpt lat="46.84327" lon="6.0052">
        <ele>737.6</ele>
        <time>2020-07-09T12:23:34Z</time>
      </trkpt>
      <trkpt lat="46.84322" lon="6.00518">
        <ele>737</ele>
        <time>2020-07-09T12:23:36Z</time>
      </trkpt>
      <trkpt lat="46.8432" lon="6.00511">
        <ele>733.5</ele>
        <time>2020-07-09T12:23:45Z</time>
      </trkpt>
      <trkpt lat="46.84324" lon="6.00509">
        <ele>726.4</ele>
        <time>2020-07-09T12:24:04Z</time>
      </trkpt>
      <trkpt lat="46.84329" lon="6.00514">
        <ele>724</ele>
        <time>2020-07-09T12:24:22Z</time>
      </trkpt>
      <trkpt lat="46.8434" lon="6.00524">
        <ele>726.4</ele>
        <time>2020-07-09T12:24:39Z</time>
      </trkpt>
      <trkpt lat="46.84345" lon="6.00526">
        <ele>727.1</ele>
        <time>2020-07-09T12:24:47Z</time>
      </trkpt>
      <trkpt lat="46.8435" lon="6.00523">
        <ele>727.9</ele>
        <time>2020-07-09T12:25:00Z</time>
      </trkpt>
      <trkpt lat="46.84355" lon="6.00525">
        <ele>726.3</ele>
        <time>2020-07-09T12:25:06Z</time>
      </trkpt>
      <trkpt lat="46.84359" lon="6.00528">
        <ele>724.1</ele>
        <time>2020-07-09T12:25:12Z</time>
      </trkpt>
      <trkpt lat="46.84363" lon="6.00533">
        <ele>721.4</ele>
        <time>2020-07-09T12:25:20Z</time>
      </trkpt>
      <trkpt lat="46.84368" lon="6.00536">
        <ele>720.7</ele>
        <time>2020-07-09T12:25:22Z</time>
      </trkpt>
      <trkpt lat="46.84373" lon="6.00539">
        <ele>719.5</ele>
        <time>2020-07-09T12:25:25Z</time>
      </trkpt>
      <trkpt lat="46.84378" lon="6.00542">
        <ele>717.8</ele>
        <time>2020-07-09T12:25:30Z</time>
      </trkpt>
      <trkpt lat="46.84382" lon="6.00545">
        <ele>715.8</ele>
        <time>2020-07-09T12:25:36Z</time>
      </trkpt>
      <trkpt lat="46.84386" lon="6.00547">
        <ele>714.8</ele>
        <time>2020-07-09T12:25:39Z</time>
      </trkpt>
      <trkpt lat="46.84392" lon="6.00549">
        <ele>713.8</ele>
        <time>2020-07-09T12:25:42Z</time>
      </trkpt>
      <trkpt lat="46.84397" lon="6.0055">
        <ele>712</ele>
        <time>2020-07-09T12:25:48Z</time>
      </trkpt>
      <trkpt lat="46.84402" lon="6.00552">
        <ele>710.8</ele>
        <time>2020-07-09T12:25:54Z</time>
      </trkpt>
      <trkpt lat="46.84409" lon="6.00555">
        <ele>711.1</ele>
        <time>2020-07-09T12:26:02Z</time>
      </trkpt>
      <trkpt lat="46.84415" lon="6.00556">
        <ele>711.8</ele>
        <time>2020-07-09T12:26:05Z</time>
      </trkpt>
      <trkpt lat="46.84419" lon="6.00558">
        <ele>713.4</ele>
        <time>2020-07-09T12:26:11Z</time>
      </trkpt>
      <trkpt lat="46.84425" lon="6.00562">
        <ele>715.5</ele>
        <time>2020-07-09T12:26:20Z</time>
      </trkpt>
      <trkpt lat="46.8443" lon="6.00563">
        <ele>715.9</ele>
        <time>2020-07-09T12:26:24Z</time>
      </trkpt>
      <trkpt lat="46.84435" lon="6.00565">
        <ele>715.8</ele>
        <time>2020-07-09T12:26:27Z</time>
      </trkpt>
      <trkpt lat="46.8444" lon="6.00568">
        <ele>714.9</ele>
        <time>2020-07-09T12:26:32Z</time>
      </trkpt>
      <trkpt lat="46.84445" lon="6.00571">
        <ele>713.7</ele>
        <time>2020-07-09T12:26:39Z</time>
      </trkpt>
      <trkpt lat="46.84459" lon="6.00576">
        <ele>712.9</ele>
        <time>2020-07-09T12:27:00Z</time>
      </trkpt>
      <trkpt lat="46.84464" lon="6.00577">
        <ele>713.1</ele>
        <time>2020-07-09T12:27:05Z</time>
      </trkpt>
      <trkpt lat="46.8447" lon="6.00581">
        <ele>712.9</ele>
        <time>2020-07-09T12:27:10Z</time>
      </trkpt>
      <trkpt lat="46.84475" lon="6.00584">
        <ele>712.3</ele>
        <time>2020-07-09T12:27:14Z</time>
      </trkpt>
      <trkpt lat="46.8448" lon="6.00584">
        <ele>710</ele>
        <time>2020-07-09T12:27:23Z</time>
      </trkpt>
      <trkpt lat="46.84487" lon="6.00585">
        <ele>709.4</ele>
        <time>2020-07-09T12:27:25Z</time>
      </trkpt>
      <trkpt lat="46.84494" lon="6.00583">
        <ele>708.7</ele>
        <time>2020-07-09T12:27:27Z</time>
      </trkpt>
      <trkpt lat="46.845" lon="6.00581">
        <ele>708.2</ele>
        <time>2020-07-09T12:27:29Z</time>
      </trkpt>
      <trkpt lat="46.84505" lon="6.00581">
        <ele>706.9</ele>
        <time>2020-07-09T12:27:34Z</time>
      </trkpt>
      <trkpt lat="46.84509" lon="6.00583">
        <ele>706.4</ele>
        <time>2020-07-09T12:27:37Z</time>
      </trkpt>
      <trkpt lat="46.84514" lon="6.00585">
        <ele>705.5</ele>
        <time>2020-07-09T12:27:42Z</time>
      </trkpt>
      <trkpt lat="46.84519" lon="6.00585">
        <ele>704</ele>
        <time>2020-07-09T12:27:50Z</time>
      </trkpt>
      <trkpt lat="46.84537" lon="6.0059">
        <ele>698.8</ele>
        <time>2020-07-09T12:28:06Z</time>
      </trkpt>
      <trkpt lat="46.8455" lon="6.00595">
        <ele>693.7</ele>
        <time>2020-07-09T12:28:18Z</time>
      </trkpt>
      <trkpt lat="46.84555" lon="6.00598">
        <ele>693.1</ele>
        <time>2020-07-09T12:28:21Z</time>
      </trkpt>
      <trkpt lat="46.84559" lon="6.00597">
        <ele>692.5</ele>
        <time>2020-07-09T12:28:24Z</time>
      </trkpt>
      <trkpt lat="46.84569" lon="6.00601">
        <ele>688</ele>
        <time>2020-07-09T12:28:42Z</time>
      </trkpt>
      <trkpt lat="46.84575" lon="6.00602">
        <ele>687.4</ele>
        <time>2020-07-09T12:28:50Z</time>
      </trkpt>
      <trkpt lat="46.8458" lon="6.00606">
        <ele>688.6</ele>
        <time>2020-07-09T12:29:03Z</time>
      </trkpt>
      <trkpt lat="46.84584" lon="6.00611">
        <ele>692.4</ele>
        <time>2020-07-09T12:29:22Z</time>
      </trkpt>
      <trkpt lat="46.84588" lon="6.00615">
        <ele>693.6</ele>
        <time>2020-07-09T12:29:26Z</time>
      </trkpt>
      <trkpt lat="46.84605" lon="6.00621">
        <ele>704</ele>
        <time>2020-07-09T12:30:00Z</time>
      </trkpt>
      <trkpt lat="46.8461" lon="6.00622">
        <ele>705.4</ele>
        <time>2020-07-09T12:30:05Z</time>
      </trkpt>
      <trkpt lat="46.84614" lon="6.00623">
        <ele>706.8</ele>
        <time>2020-07-09T12:30:10Z</time>
      </trkpt>
      <trkpt lat="46.84619" lon="6.00623">
        <ele>708.6</ele>
        <time>2020-07-09T12:30:16Z</time>
      </trkpt>
      <trkpt lat="46.84625" lon="6.00624">
        <ele>710.3</ele>
        <time>2020-07-09T12:30:21Z</time>
      </trkpt>
      <trkpt lat="46.8463" lon="6.00627">
        <ele>710.8</ele>
        <time>2020-07-09T12:30:23Z</time>
      </trkpt>
      <trkpt lat="46.84635" lon="6.00628">
        <ele>711.7</ele>
        <time>2020-07-09T12:30:27Z</time>
      </trkpt>
      <trkpt lat="46.84639" lon="6.00629">
        <ele>713.4</ele>
        <time>2020-07-09T12:30:34Z</time>
      </trkpt>
      <trkpt lat="46.84644" lon="6.0063">
        <ele>716.2</ele>
        <time>2020-07-09T12:30:45Z</time>
      </trkpt>
      <trkpt lat="46.84649" lon="6.00633">
        <ele>716.9</ele>
        <time>2020-07-09T12:30:49Z</time>
      </trkpt>
      <trkpt lat="46.84653" lon="6.00634">
        <ele>717.2</ele>
        <time>2020-07-09T12:30:52Z</time>
      </trkpt>
      <trkpt lat="46.84659" lon="6.00639">
        <ele>717.6</ele>
        <time>2020-07-09T12:31:00Z</time>
      </trkpt>
      <trkpt lat="46.84663" lon="6.00641">
        <ele>717.3</ele>
        <time>2020-07-09T12:31:06Z</time>
      </trkpt>
      <trkpt lat="46.84672" lon="6.00644">
        <ele>715.3</ele>
        <time>2020-07-09T12:31:14Z</time>
      </trkpt>
      <trkpt lat="46.84678" lon="6.00647">
        <ele>715</ele>
        <time>2020-07-09T12:31:17Z</time>
      </trkpt>
      <trkpt lat="46.84683" lon="6.00649">
        <ele>714.8</ele>
        <time>2020-07-09T12:31:19Z</time>
      </trkpt>
      <trkpt lat="46.84688" lon="6.00651">
        <ele>714.5</ele>
        <time>2020-07-09T12:31:23Z</time>
      </trkpt>
      <trkpt lat="46.84693" lon="6.00654">
        <ele>714.2</ele>
        <time>2020-07-09T12:31:27Z</time>
      </trkpt>
      <trkpt lat="46.84696" lon="6.00658">
        <ele>713.9</ele>
        <time>2020-07-09T12:31:30Z</time>
      </trkpt>
      <trkpt lat="46.84702" lon="6.00658">
        <ele>713.1</ele>
        <time>2020-07-09T12:31:35Z</time>
      </trkpt>
      <trkpt lat="46.84706" lon="6.00655">
        <ele>712</ele>
        <time>2020-07-09T12:31:41Z</time>
      </trkpt>
      <trkpt lat="46.84701" lon="6.0065">
        <ele>711.4</ele>
        <time>2020-07-09T12:31:45Z</time>
      </trkpt>
      <trkpt lat="46.84697" lon="6.00645">
        <ele>710.8</ele>
        <time>2020-07-09T12:31:50Z</time>
      </trkpt>
    </trkseg>
  </trk>
</gpx>